[[{"header":{"parameterUnit":"m.s-1","parameterCategory":1,"la1":31.0,"la2":29.5877,"lo1":-88.7671,"lo2":-86.6584,"dy":0.0162,"dx":0.0185,"nx":115,"ny":88,"refTime":"2026-03-25T00:00:00:Z","depth":0,"parameterNumber":2,"parameterNumberName":"U-component_of_WINDS"},"data":[0.0,0.0,0.0,0.0,0.0,0.0,0.0,0.0,0.0,0.0,0.0,0.0,0.0,0.0,0.0,0.0,0.0,0.0,0.0,0.0,0.0,0.0,0.0,0.0,0.0,0.0,0.0,0.0,0.0,0.0,0.0,0.0,0.0,0.0,0.0,0.0,0.0,0.0,0.0,0.0,0.0,0.0,0.0,0.0,0.0,0.0,0.0,0.0,0.0,0.0,0.0,0.0,0.0,0.0,0.0,0.0,0.0,0.0,0.0,0.0,0.0,0.0,0.0,0.0,0.0,0.0,0.0,0.0,0.0,0.0,0.0,0.0,0.0,0.0,0.0,0.0,0.0,0.0,0.0,0.0,0.0,0.0,0.0,0.0,0.0,0.0,0.0,0.0,0.0,0.0,0.0,0.0,0.0,0.0,0.0,0.0,0.0,0.0,0.0,0.0,0.0,0.0,0.0,0.0,0.0,0.0,0.0,0.0,0.0,0.0,0.0,0.0,0.0,0.0,0.0,0.0,0.0,0.0,0.0,0.0,0.0,0.0,0.0,0.0,0.0,0.0,0.0,0.0,0.0,0.0,0.0,0.0,0.0,0.0,0.0,0.0,0.0,0.0,0.0,0.0,0.0,0.0,0.0,0.0,0.0,0.0,0.0,0.0,0.0,0.0,0.0,0.0,0.0,0.0,0.0,0.0,0.0,0.0,0.0,0.0,0.0,0.0,0.0,0.0,0.0,0.0,0.0,0.0,0.0,0.0,0.0,0.0,0.0,0.0,0.0,0.0,0.0,0.0,0.0,0.0,0.0,0.0,0.0,0.0,0.0,0.0,0.0,0.0,0.0,0.0,0.0,0.0,0.0,0.0,0.0,0.0,0.0,0.0,0.0,0.0,0.0,0.0,0.0,0.0,0.0,0.0,0.0,0.0,0.0,0.0,0.0,0.0,0.0,0.0,0.0,0.0,0.0,0.0,0.0,0.0,0.0,0.0,0.0,0.0,0.0,0.0,0.0,0.0,0.0,0.0,0.0,0.0,0.0,0.0,0.0,0.0,0.0,0.0,0.0,0.0,0.0,0.0,0.0,0.0,0.0,0.0,0.0,0.0,0.0,0.0,0.0,0.0,0.0,0.0,0.0,0.0,0.0,0.0,0.0,0.0,0.0,0.0,0.0,0.0,0.0,0.0,0.0,0.0,0.0,0.0,0.0,0.0,0.0,0.0,0.0,0.0,0.0,0.0,0.0,0.0,0.0,0.0,0.0,0.0,0.0,0.0,0.0,0.0,0.0,0.0,0.0,0.0,0.0,0.0,0.0,0.0,0.0,0.0,0.0,0.0,0.0,0.0,0.0,0.0,0.0,0.0,0.0,0.0,0.0,0.0,0.0,0.0,0.0,0.0,0.0,0.0,0.0,0.0,0.0,0.0,0.0,0.0,0.0,0.0,0.0,0.0,0.0,0.0,0.0,0.0,0.0,0.0,0.0,0.0,0.0,0.0,0.0,0.0,0.0,0.0,0.0,0.0,0.0,0.0,0.0,0.0,0.0,0.0,0.0,0.0,0.0,0.0,0.0,0.0,0.0,0.0,0.0,0.0,0.0,0.0,0.0,0.0,0.0,0.0,0.0,0.0,0.0,0.0,0.0,0.0,0.0,0.0,0.0,0.0,0.0,0.0,0.0,0.0,0.0,0.0,0.0,0.0,0.0,0.0,0.0,0.0,0.0,0.0,0.0,0.0,0.0,0.0,0.0,0.0,0.0,0.0,0.0,0.0,0.0,0.0,0.0,0.0,0.0,0.0,0.0,0.0,0.0,0.0,0.0,0.0,0.0,0.0,0.0,0.0,0.0,0.0,0.0,0.0,0.0,0.0,0.0,0.0,0.0,0.0,0.0,0.0,0.0,0.0,0.0,0.0,0.0,0.0,0.0,0.0,0.0,0.0,0.0,0.0,0.0,0.0,0.0,0.0,0.0,0.0,0.0,0.0,0.0,0.0,0.0,0.0,0.0,0.0,0.0,0.0,0.0,0.0,0.0,0.0,0.0,0.0,0.0,0.0,0.0,0.0,0.0,0.0,0.0,0.0,0.0,0.0,0.0,0.0,0.0,0.0,0.0,0.0,0.0,0.0,0.0,0.0,0.0,0.0,0.0,0.0,0.0,0.0,0.0,0.0,0.0,0.0,0.0,0.0,0.0,0.0,0.0,0.0,0.0,0.0,0.0,0.0,0.0,0.0,0.0,0.0,0.0,0.0,0.0,0.0,0.0,0.0,0.0,0.0,0.0,0.0,0.0,0.0,0.0,0.0,0.0,0.0,0.0,0.0,0.0,0.0,0.0,0.0,0.0,0.0,0.0,0.0,0.0,0.0,0.0,0.0,0.0,0.0,0.0,0.0,0.0,0.0,0.0,0.0,0.0,0.0,0.0,0.0,0.0,0.0,0.0,0.0,0.0,0.0,0.0,0.0,0.0,0.0,0.0,0.0,0.0,0.0,0.0,0.0,0.0,0.0,0.0,0.0,0.0,0.0,0.0,0.0,0.0,0.0,0.0,0.0,0.0,0.0,0.0,0.0,0.0,0.0,0.0,0.0,0.0,0.0,0.0,0.0,0.0,0.0,0.0,0.0,0.0,0.0,0.0,0.0,0.0,0.0,0.0,0.0,0.0,0.0,0.0,0.0,0.0,0.0,0.0,0.0,0.0,0.0,0.0,0.0,0.0,0.0,0.0,0.0,0.0,0.0,0.0,0.0,0.0,0.0,0.0,0.0,0.0,0.0,0.0,0.0,0.0,0.0,0.0,0.0,0.0,0.0,0.0,0.0,0.0,0.0,0.0,0.0,0.0,0.0,0.0,0.0,0.0,0.0,0.0,0.0,0.0,0.0,0.0,0.0,0.0,0.0,0.0,0.0,0.0,0.0,0.0,0.0,0.0,0.0,0.0,0.0,0.0,0.0,0.0,0.0,0.0,0.0,0.0,0.0,0.0,0.0,0.0,0.0,0.0,0.0,0.0,0.0,0.0,0.0,0.0,0.0,0.0,0.0,0.0,0.0,0.0,0.0,0.0,0.0,0.0,0.0,0.0,0.0,0.0,0.0,0.0,0.0,0.0,0.0,0.0,0.0,0.0,0.0,0.0,0.0,0.0,0.0,0.0,0.0,0.0,0.0,0.0,0.0,0.0,0.0,0.0,0.0,0.0,0.0,0.0,0.0,0.0,0.0,0.0,0.0,0.0,0.0,0.0,0.0,0.0,0.0,0.0,0.0,0.0,0.0,0.0,0.0,0.0,0.0,0.0,0.0,0.0,0.0,0.0,0.0,0.0,0.0,0.0,0.0,0.0,0.0,0.0,0.0,0.0,0.0,0.0,0.0,0.0,0.0,0.0,0.0,0.0,0.0,0.0,0.0,0.0,0.0,0.0,0.0,0.0,0.0,0.0,0.0,0.0,0.0,0.0,0.0,0.0,0.0,0.0,0.0,0.0,0.0,0.0,0.0,0.0,0.0,0.0,0.0,0.0,0.0,0.0,0.0,0.0,0.0,0.0,0.0,0.0,0.0,0.0,0.0,0.0,0.0,0.0,0.0,0.0,0.0,0.0,0.0,0.0,0.0,0.0,0.0,0.0,0.0,0.0,0.0,0.0,0.0,0.0,0.0,0.0,0.0,0.0,0.0,0.0,0.0,0.0,0.0,0.0,0.0,0.0,0.0,0.0,0.0,0.0,0.0,0.0,0.0,0.0,0.0,0.0,0.0,0.0,0.0,0.0,0.0,0.0,0.0,0.0,0.0,0.0,0.0,0.0,0.0,0.0,0.0,0.0,0.0,0.0,0.0,0.0,0.0,0.0,0.0,0.0,0.0,0.0,0.0,0.0,0.0,0.0,0.0,0.0,0.0,0.0,0.0,0.0,0.0,0.0,0.0,0.0,0.0,0.0,0.0,0.0,0.0,0.0,0.0,0.0,0.0,0.0,0.0,0.0,0.0,0.0,0.0,0.0,0.0,0.0,0.0,0.0,0.0,0.0,0.0,0.0,0.0,0.0,0.0,0.0,0.0,0.0,0.0,0.0,0.0,0.0,0.0,0.0,0.0,0.0,0.0,0.0,0.0,0.0,0.0,0.0,0.0,0.0,0.0,0.0,0.0,0.0,0.0,0.0,0.0,0.0,0.0,0.0,0.0,0.0,0.0,0.0,0.0,0.0,0.0,0.0,0.0,0.0,0.0,0.0,0.0,0.0,0.0,0.0,0.0,0.0,0.0,0.0,0.0,0.0,0.0,0.0,0.0,0.0,0.0,-0.3931,0.0,0.0,0.0,0.0,0.0,0.0,0.0,0.0,0.0,0.0,0.0,0.0,0.0,0.0,0.0,0.0,0.0,0.0,0.0,0.0,0.0,0.0,0.0,0.0,0.0,0.0,0.0,0.0,0.0,0.0,0.0,0.0,0.0,0.0,0.0,0.0,0.0,0.0,0.0,0.0,0.0,0.0,0.0,0.0,0.0,0.0,0.0,0.0,0.0,0.0,0.0,0.0,0.0,0.0,0.0,0.0,0.0,0.0,0.0,0.0,0.0,0.0,0.0,0.0,0.0,0.0,0.0,0.0,0.0,0.0,0.0,0.0,0.0,0.0,0.0,0.0,0.0,0.0,0.0,0.0,0.0,0.0,0.0,0.0,0.0,0.0,0.0,0.0,0.0,0.0,0.0,0.0,0.0,0.0,0.0,0.0,0.0,0.0,0.0,0.0,0.0,0.0,0.0,0.0,0.0,0.0,0.0,0.0,0.0,0.0,-0.4112,-0.3987,-0.3953,-0.3902,-0.3858,0.0,0.0,0.0,0.0,0.0,0.0,0.0,0.0,0.0,0.0,0.0,0.0,0.0,0.0,0.0,0.0,0.0,0.0,0.0,0.0,0.0,0.0,0.0,0.0,0.0,0.0,0.0,0.0,0.0,0.0,0.0,0.0,0.0,0.0,0.0,0.0,0.0,0.0,0.0,0.0,0.0,0.0,0.0,0.0,0.0,0.0,0.0,0.0,0.0,0.0,0.0,0.0,0.0,0.0,0.0,0.0,0.0,0.0,0.0,0.0,0.0,0.0,0.0,0.0,0.0,0.0,0.0,0.0,0.0,0.0,0.0,0.0,0.0,0.0,0.0,0.0,0.0,0.0,0.0,0.0,0.0,0.0,0.0,0.0,0.0,0.0,0.0,0.0,0.0,0.0,0.0,0.0,0.0,0.0,0.0,0.0,0.0,0.0,0.0,0.0,0.0,0.0,0.0,0.0,0.0,0.0,0.0,0.0,0.0,0.0,0.0,0.0,-0.3979,-0.3934,-0.3934,0.0,0.0,0.0,0.0,0.0,0.0,0.0,0.0,0.0,0.0,0.0,0.0,0.0,0.0,0.0,0.0,0.0,0.0,0.0,0.0,0.0,0.0,0.0,0.0,0.0,0.0,0.0,0.0,0.0,0.0,0.0,0.0,0.0,0.0,0.0,0.0,0.0,0.0,0.0,0.0,0.0,0.0,0.0,0.0,0.0,0.0,0.0,0.0,0.0,0.0,0.0,0.0,0.0,0.0,0.0,0.0,0.0,0.0,0.0,0.0,0.0,0.0,0.0,0.0,0.0,0.0,0.0,0.0,0.0,0.0,0.0,0.0,0.0,0.0,0.0,0.0,0.0,0.0,0.0,0.0,0.0,0.0,0.0,0.0,0.0,0.0,0.0,0.0,0.0,0.0,0.0,0.0,0.0,0.0,0.0,0.0,0.0,0.0,0.0,0.0,0.0,0.0,0.0,0.0,0.0,0.0,0.0,0.0,0.0,0.0,-0.3902,-0.4437,-0.4422,0.0,-0.4287,0.0,0.0,0.0,0.0,0.0,0.0,0.0,0.0,0.0,0.0,0.0,0.0,0.0,0.0,0.0,0.0,0.0,0.0,0.0,0.0,0.0,0.0,0.0,0.0,0.0,0.0,0.0,0.0,0.0,0.0,0.0,0.0,0.0,0.0,0.0,0.0,0.0,0.0,0.0,0.0,0.0,0.0,0.0,0.0,0.0,0.0,0.0,0.0,0.0,0.0,0.0,0.0,0.0,0.0,0.0,0.0,0.0,0.0,0.0,0.0,0.0,0.0,0.0,0.0,0.0,0.0,0.0,0.0,0.0,0.0,0.0,0.0,0.0,0.0,0.0,0.0,0.0,0.0,0.0,0.0,0.0,0.0,0.0,0.0,0.0,0.0,0.0,0.0,0.0,0.0,0.0,0.0,0.0,0.0,0.0,0.0,0.0,0.0,0.0,0.0,0.0,0.0,0.0,0.0,0.0,0.0,0.0,0.0,0.0,0.0,0.0,-0.4484,-0.4349,-0.4232,0.0,0.0,0.0,0.0,0.0,0.0,0.0,0.0,0.0,0.0,0.0,0.0,0.0,0.0,0.0,0.0,0.0,0.0,0.0,0.0,0.0,0.0,0.0,0.0,0.0,0.0,0.0,0.0,0.0,0.0,0.0,0.0,0.0,0.0,0.0,0.0,0.0,0.0,0.0,0.0,0.0,0.0,0.0,0.0,0.0,0.0,0.0,0.0,0.0,0.0,0.0,0.0,0.0,0.0,0.0,0.0,0.0,0.0,0.0,0.0,0.0,0.0,0.0,0.0,0.0,0.0,0.0,0.0,0.0,0.0,0.0,0.0,0.0,0.0,0.0,0.0,0.0,0.0,0.0,0.0,0.0,0.0,0.0,0.0,0.0,0.0,0.0,0.0,0.0,0.0,0.0,0.0,0.0,0.0,0.0,0.0,0.0,0.0,0.0,0.0,0.0,0.0,0.0,0.0,0.0,0.0,0.0,0.0,0.0,0.0,-0.4206,0.0,-0.456,-0.428,-0.4054,-0.3902,0.0,0.0,0.0,0.0,0.0,0.0,0.0,0.0,0.0,0.0,0.0,0.0,0.0,0.0,0.0,0.0,0.0,0.0,0.0,0.0,0.0,0.0,0.0,0.0,0.0,0.0,0.0,0.0,0.0,0.0,0.0,0.0,0.0,0.0,0.0,0.0,0.0,0.0,0.0,0.0,0.0,0.0,0.0,0.0,0.0,0.0,0.0,0.0,0.0,0.0,0.0,0.0,0.0,0.0,0.0,0.0,0.0,0.0,0.0,0.0,0.0,0.0,0.0,0.0,0.0,0.0,0.0,0.0,0.0,0.0,0.0,0.0,0.0,0.0,0.0,0.0,0.0,0.0,0.0,0.0,0.0,0.0,0.0,0.0,0.0,0.0,0.0,0.0,0.0,0.0,0.0,0.0,0.0,0.0,0.0,0.0,0.0,0.0,0.0,0.0,0.0,0.0,0.0,0.0,0.0,0.0,0.0,0.0,0.0,-0.4254,-0.434,-0.4768,-0.4398,-0.4021,0.0,0.0,0.0,0.0,0.0,0.0,0.0,0.0,0.0,0.0,0.0,0.0,0.0,0.0,0.0,0.0,0.0,0.0,0.0,0.0,0.0,0.0,0.0,0.0,0.0,0.0,0.0,0.0,0.0,0.0,0.0,0.0,0.0,0.0,0.0,0.0,0.0,0.0,0.0,0.0,0.0,0.0,0.0,0.0,0.0,0.0,0.0,0.0,0.0,0.0,0.0,0.0,0.0,0.0,0.0,0.0,0.0,0.0,0.0,0.0,0.0,0.0,0.0,0.0,0.0,0.0,0.0,0.0,0.0,0.0,0.0,0.0,0.0,0.0,0.0,0.0,0.0,0.0,0.0,0.0,0.0,0.0,0.0,0.0,0.0,0.0,0.0,0.0,0.0,0.0,0.0,0.0,0.0,0.0,0.0,0.0,0.0,0.0,0.0,0.0,0.0,0.0,0.0,0.0,0.0,0.0,0.0,0.0,0.0,-0.3498,-0.3779,-0.4279,-0.4996,-0.4268,-0.3867,0.0,0.0,0.0,0.0,0.0,0.0,0.0,0.0,0.0,0.0,0.0,0.0,0.0,0.0,0.0,0.0,0.0,0.0,0.0,0.0,0.0,0.0,0.0,0.0,0.0,0.0,0.0,0.0,0.0,0.0,0.0,0.0,0.0,0.0,0.0,0.0,0.0,0.0,0.0,0.0,0.0,0.0,0.0,0.0,0.0,0.0,0.0,0.0,0.0,0.0,0.0,0.0,0.0,0.0,0.0,0.0,0.0,0.0,0.0,0.0,0.0,0.0,0.0,0.0,0.0,0.0,0.0,0.0,0.0,0.0,0.0,0.0,0.0,0.0,0.0,0.0,0.0,0.0,0.0,0.0,0.0,0.0,0.0,0.0,0.0,0.0,0.0,0.0,0.0,0.0,0.0,0.0,0.0,0.0,0.0,0.0,0.0,0.0,0.0,0.0,0.0,0.0,0.0,0.0,0.0,0.0,0.0,0.0,0.0,-0.3575,0.0,-0.4386,0.0,-0.4175,-0.3723,0.0,0.0,0.0,0.0,0.0,0.0,0.0,0.0,0.0,0.0,0.0,0.0,0.0,0.0,0.0,0.0,0.0,0.0,0.0,0.0,0.0,0.0,0.0,0.0,0.0,0.0,0.0,0.0,0.0,0.0,0.0,0.0,0.0,0.0,0.0,0.0,0.0,0.0,0.0,0.0,0.0,0.0,0.0,0.0,0.0,0.0,0.0,0.0,0.0,0.0,0.0,0.0,0.0,0.0,0.0,0.0,0.0,0.0,0.0,0.0,0.0,0.0,0.0,0.0,0.0,0.0,0.0,0.0,0.0,0.0,0.0,0.0,0.0,0.0,0.0,0.0,0.0,0.0,0.0,0.0,0.0,0.0,0.0,0.0,0.0,0.0,0.0,0.0,0.0,0.0,0.0,0.0,0.0,0.0,0.0,0.0,0.0,0.0,0.0,0.0,0.0,0.0,0.0,0.0,0.0,0.0,0.0,0.0,-0.3722,-0.4883,-0.4744,-0.463,-0.4608,-0.4181,-0.3555,0.0,0.0,0.0,0.0,0.0,0.0,0.0,0.0,0.0,0.0,0.0,0.0,0.0,0.0,0.0,0.0,0.0,0.0,0.0,0.0,0.0,0.0,0.0,0.0,0.0,0.0,0.0,0.0,0.0,0.0,0.0,0.0,0.0,0.0,0.0,0.0,0.0,0.0,0.0,0.0,0.0,0.0,0.0,0.0,0.0,0.0,0.0,0.0,0.0,0.0,0.0,0.0,0.0,0.0,0.0,0.0,0.0,0.0,0.0,0.0,0.0,0.0,0.0,0.0,0.0,0.0,0.0,0.0,0.0,0.0,0.0,0.0,0.0,0.0,0.0,0.0,0.0,0.0,0.0,0.0,0.0,0.0,0.0,0.0,0.0,0.0,0.0,0.0,0.0,0.0,0.0,0.0,0.0,0.0,0.0,0.0,0.0,0.0,0.0,0.0,0.0,0.0,0.0,0.0,0.0,0.0,0.0,0.0,0.0,-0.4167,-0.4291,-0.4504,-0.477,-0.3916,-0.348,0.0,0.0,0.0,0.0,0.0,0.0,0.0,0.0,0.0,0.0,0.0,0.0,0.0,0.0,0.0,0.0,0.0,0.0,0.0,0.0,0.0,0.0,0.0,0.0,0.0,0.0,0.0,0.0,0.0,0.0,0.0,0.0,0.0,0.0,0.0,0.0,0.0,0.0,0.0,0.0,0.0,0.0,0.0,0.0,0.0,0.0,0.0,0.0,0.0,0.0,0.0,0.0,0.0,0.0,0.0,0.0,0.0,0.0,0.0,0.0,0.0,0.0,0.0,0.0,0.0,0.0,0.0,0.0,0.0,0.0,0.0,0.0,0.0,0.0,0.0,0.0,0.0,0.0,0.0,0.0,0.0,0.0,0.0,0.0,0.0,0.0,0.0,0.0,0.0,0.0,0.0,0.0,0.0,0.0,0.0,0.0,0.0,0.0,0.0,0.0,0.0,0.0,0.0,0.0,0.0,0.0,0.0,0.0,0.0,-0.4665,-0.4643,-0.4772,-0.5002,-0.4029,-0.3542,-0.3613,0.0,0.0,0.0,0.0,0.0,0.0,0.0,0.0,0.0,0.0,0.0,0.0,0.0,0.0,0.0,0.0,0.0,0.0,0.0,0.0,0.0,0.0,0.0,0.0,0.0,0.0,0.0,0.0,0.0,0.0,0.0,0.0,0.0,0.0,0.0,0.0,0.0,0.0,0.0,0.0,0.0,0.0,0.0,0.0,0.0,0.0,0.0,0.0,0.0,0.0,0.0,0.0,0.0,0.0,0.0,0.0,0.0,0.0,0.0,0.0,0.0,0.0,0.0,0.0,0.0,0.0,0.0,0.0,0.0,0.0,0.0,0.0,0.0,0.0,0.0,0.0,0.0,0.0,0.0,0.0,0.0,0.0,0.0,0.0,0.0,0.0,0.0,0.0,0.0,0.0,0.0,0.0,0.0,0.0,0.0,0.0,0.0,0.0,0.0,0.0,0.0,0.0,0.0,0.0,0.0,0.0,0.0,0.0,-0.61,-0.567,-0.5356,-0.5214,-0.446,-0.3775,0.0,0.0,0.0,0.0,0.0,0.0,0.0,0.0,0.0,0.0,0.0,0.0,0.0,0.0,0.0,0.0,0.0,0.0,0.0,0.0,0.0,0.0,0.0,0.0,0.0,0.0,0.0,0.0,0.0,0.0,0.0,0.0,0.0,0.0,0.0,0.0,0.0,0.0,0.0,0.0,0.0,0.0,0.0,0.0,0.0,0.0,0.0,0.0,0.0,0.0,0.0,0.0,0.0,0.0,0.0,0.0,0.0,0.0,0.0,0.0,0.0,0.0,0.0,0.0,0.0,0.0,0.0,0.0,0.0,0.0,0.0,0.0,0.0,0.0,0.0,0.0,0.0,0.0,0.0,0.0,0.0,0.0,0.0,0.0,0.0,0.0,0.0,0.0,0.0,0.0,0.0,0.0,0.0,0.0,0.0,0.0,0.0,0.0,0.0,0.0,0.0,0.0,0.0,0.0,0.0,0.0,0.0,0.0,0.0,-0.6235,-0.6028,-0.572,-0.5352,-0.4893,-0.4246,0.0,0.0,0.0,0.0,0.0,0.0,0.0,0.0,0.0,0.0,0.0,0.0,0.0,0.0,0.0,0.0,0.0,0.0,0.0,0.0,0.0,0.0,0.0,0.0,0.0,0.0,0.0,0.0,0.0,0.0,0.0,0.0,0.0,0.0,0.0,0.0,0.0,0.0,0.0,0.0,0.0,0.0,0.0,0.0,0.0,0.0,0.0,0.0,0.0,0.0,0.0,0.0,0.0,0.0,0.0,0.0,0.0,0.0,0.0,0.0,0.0,0.0,0.0,0.0,0.0,0.0,0.0,0.0,0.0,0.0,0.0,0.0,0.0,0.0,0.0,0.0,0.0,0.0,0.0,0.0,0.0,0.0,0.0,0.0,0.0,0.0,0.0,0.0,0.0,0.0,0.0,0.0,0.0,0.0,0.0,0.0,0.0,0.0,0.0,0.0,0.0,0.0,0.0,0.0,0.0,0.0,0.0,0.0,-0.6554,-0.6683,-0.6517,-0.6115,-0.5411,-0.5129,-0.4565,0.0,0.0,0.0,0.0,0.0,0.0,0.0,0.0,0.0,0.0,0.0,0.0,0.0,0.0,0.0,0.0,0.0,0.0,0.0,0.0,0.0,0.0,0.0,0.0,0.0,0.0,0.0,0.0,0.0,0.0,0.0,0.0,0.0,0.0,0.0,0.0,0.0,0.0,0.0,0.0,0.0,0.0,0.0,0.0,0.0,0.0,0.0,0.0,0.0,0.0,0.0,0.0,0.0,0.0,0.0,0.0,0.0,0.0,0.0,0.0,0.0,0.0,0.0,0.0,0.0,0.0,0.0,0.0,0.0,0.0,0.0,0.0,0.0,0.0,0.0,0.0,0.0,0.0,0.0,0.0,0.0,0.0,0.0,0.0,0.0,0.0,0.0,0.0,0.0,0.0,0.0,0.0,0.0,0.0,0.0,0.0,0.0,0.0,0.0,0.0,0.0,0.0,0.0,0.0,0.0,0.0,0.0,0.0,-0.68,-0.7099,-0.6953,-0.6414,-0.5434,-0.5266,-0.481,0.0,0.0,0.0,0.0,0.0,0.0,0.0,0.0,0.0,0.0,0.0,0.0,0.0,0.0,0.0,0.0,0.0,0.0,0.0,0.0,0.0,0.0,0.0,0.0,0.0,0.0,0.0,0.0,0.0,0.0,0.0,0.0,0.0,0.0,0.0,0.0,0.0,0.0,0.0,0.0,0.0,0.0,0.0,0.0,0.0,0.0,0.0,0.0,0.0,0.0,0.0,0.0,0.0,0.0,0.0,0.0,0.0,0.0,0.0,0.0,0.0,0.0,0.0,0.0,0.0,0.0,0.0,0.0,0.0,0.0,0.0,0.0,0.0,0.0,0.0,0.0,0.0,0.0,0.0,0.0,0.0,0.0,0.0,0.0,0.0,0.0,0.0,0.0,0.0,0.0,0.0,0.0,0.0,0.0,0.0,0.0,0.0,0.0,0.0,0.0,0.0,0.0,0.0,0.0,0.0,0.0,0.0,0.0,-0.6886,-0.6503,-0.6594,-0.6261,-0.5423,-0.5611,-0.5205,0.0,0.0,0.0,0.0,0.0,0.0,0.0,0.0,0.0,0.0,0.0,0.0,0.0,0.0,0.0,0.0,0.0,0.0,0.0,0.0,0.0,0.0,0.0,0.0,0.0,0.0,0.0,0.0,0.0,0.0,0.0,0.0,0.0,0.0,0.0,0.0,0.0,0.0,0.0,0.0,0.0,0.0,0.0,0.0,0.0,0.0,0.0,0.0,0.0944,0.0,0.0,0.0,0.0,0.0,0.0,0.0,0.0,0.0,0.0,0.0,0.0,0.0,0.0,0.0,0.0,0.0,0.0,0.0,0.0,0.0,0.0,0.0,0.0,0.0,0.0,0.0,0.0,0.0,0.0,0.0,0.0,0.0,0.0,0.0,0.0,0.0,0.0,0.0,0.0,0.0,0.0,0.0,0.0,0.0,0.0,0.0,0.0,0.0,0.0,0.0,0.0,0.0,0.0,0.0,0.0,0.0,0.0,0.0,-0.7042,-0.6737,-0.6515,-0.6172,-0.5677,-0.5486,-0.5032,0.0,0.0,0.0,0.0,0.0,0.0,0.0,0.0,0.0,0.0,0.0,0.0,0.0,0.0,0.0,0.0,0.0,0.0,0.0,0.0,0.0,0.0,0.0,0.0,0.0,0.0,0.0,0.0,0.0,0.0,0.0,0.0,0.0,0.0,0.0,0.0,0.0,0.0,0.0,0.0,0.0,0.0,0.0,0.0,0.0,0.0,0.0,0.0,0.0,0.0,0.0,0.0,0.0,0.0,0.0,0.0,0.0,0.0,0.0,0.0,0.0,0.0,0.0,0.0,0.0,0.0,0.0,0.0,0.0,0.0,0.0,0.0,0.0,0.0,0.0,0.0,0.0,0.0,0.0,0.0,0.0,0.0,0.0,0.0,0.0,0.0,0.0,0.0,0.0,0.0,0.0,0.0,0.0,0.0,0.0,0.0,0.0,0.0,0.0,0.0,0.0,0.0,0.0,0.0,0.0,0.0,0.0,-0.6857,-0.7209,-0.7186,-0.6549,-0.6115,-0.5888,-0.5213,-0.4664,-0.4291,0.0,0.0,0.0,0.0,0.0,0.0,0.0,0.0,0.0,0.0,0.0,0.0,0.0,0.0,0.0,0.0,0.0,0.0,0.0,0.0,0.0,0.0,0.0,0.0,0.0,0.0,0.0,0.0,0.0,0.0,0.0,0.0,0.0,0.0,0.0,0.0,0.0,0.0,0.0514,0.0765,0.0,0.0,0.0,0.0,0.0,0.0,0.0,0.0,0.0847,0.0,0.0,0.0,0.0,0.0,0.0,0.0,0.0,0.0,0.0,0.0,0.0,0.0,0.0,0.0,0.0,0.0,0.0,0.0,0.0,0.0,0.0,0.0,0.0,0.0,0.0,0.0,0.0,0.0,0.0,0.0,0.0,0.0,0.0,0.0,0.0,0.0,0.0,0.0,0.0,0.0,0.0,0.0,0.0,0.0,0.0,0.0,0.0,0.0,0.0,0.0,0.0,0.0,0.0,0.0,0.0,-0.7556,-0.7319,-0.7209,-0.7193,-0.6549,-0.6115,-0.5879,-0.5048,-0.4471,-0.4283,0.0,0.0,0.0,0.0,0.0,0.0,0.0,0.0,0.0,0.0,0.0,0.0,0.0,0.0,0.0,0.0,0.0,0.0,0.0,0.0,0.0,0.0,0.0,0.0,0.0,0.0,0.0,0.0,0.0,0.0,0.0,0.0,0.0,0.0,0.0,0.0,0.0,0.0,0.0,0.0705,0.0913,0.0,0.0,0.0,0.0,0.0,0.0,0.0,0.0,0.0377,0.0,0.0,0.0,0.0,0.0,0.0,0.0,0.0,0.0,0.0,0.0,0.0,0.0,0.0,0.0,0.0,0.0,0.0,0.0,0.0,0.0,0.0,0.0,0.0,0.0,0.0,0.0,0.0,0.0,0.0,0.0,0.0,0.0,0.0,0.0,0.0,0.0,0.0,0.0,0.0,0.0,0.0,0.0,0.0,0.0,0.0,0.0,0.0,0.0,0.0,0.0,0.0,0.0,0.0,0.0,-0.7295,-0.6956,-0.6876,-0.715,-0.643,-0.6,-0.587,-0.4847,-0.4302,0.0,0.0,0.0,0.0,0.0,0.0,0.0,0.0,0.0,0.0,0.0,0.0,0.0,0.0,0.0,0.0,0.0,0.0,0.0,0.0,0.0,0.0,0.0,0.0,0.0,0.0,0.0,0.0,0.0,0.0,0.0,0.0,0.0,0.0,0.0,0.0,0.0,0.0,0.0,0.0,0.0648,0.0859,0.1176,0.0,0.0,0.0,0.0,0.0,0.0,0.0397,0.0312,0.0,0.0,0.0,0.0,0.0,0.0,0.0,0.0,0.0,0.0,0.0,0.0,0.0,0.0,0.0,0.0,0.0,0.0,0.0,0.0,0.0,0.0,0.0,0.0,0.0,0.0,0.0,0.0,0.0,0.0,0.0,0.0,0.0,0.0,0.0,0.0,0.0,0.0,0.0,0.0,0.0,0.0,0.0,0.0,0.0,0.0,0.0,0.0,0.0,0.0,0.0,0.0,0.0,0.0,0.0,-0.7034,-0.6694,-0.6704,-0.715,-0.6347,-0.5891,-0.5861,-0.4758,-0.4187,0.0,0.0,0.0,0.0,0.0,0.0,0.0,0.0,0.0,0.0,0.0,0.0,0.0,0.0,0.0,0.0,0.0,0.0,0.0,0.0,0.0,0.0,0.0,0.0,0.0,0.0,0.0,0.0,0.0,0.0,0.0,0.0,0.0,0.0,0.0,0.0,0.0,0.0,0.0,0.0,0.0,0.0831,0.1305,0.1177,0.0,0.0,0.0,0.0,0.0443,0.0347,0.0,0.0,0.0,0.0,0.0,0.0,0.0,0.0,0.0,0.0,0.0,0.0,0.0,0.0,0.0,0.0,0.0,0.0,0.0,0.0,0.0,0.0,0.0,0.0,0.0,0.0,0.0,0.0,0.0,0.0,0.0,0.0,0.0,0.0,0.0,0.0,0.0,0.0,0.0,0.0,0.0,0.0,0.0,0.0,0.0,0.0,0.0,0.0,0.0,0.0,0.0,0.0,0.0,0.0,0.0,0.0,-0.7705,-0.7326,-0.7111,-0.7156,-0.635,-0.5891,-0.5881,-0.4837,-0.4282,0.0,0.0,0.0,0.0,0.0,0.0,0.0,0.0,0.0,0.0,0.0,0.0,0.0,0.0,0.0,0.0,0.0,0.0,0.0,0.0,0.0,0.0,0.0,0.0,0.0,0.0,0.0,0.0,0.0,0.0,0.0,0.0,0.0,0.0,0.0,0.0,0.0,0.0,0.0,0.0,0.0,0.0884,0.0963,0.1273,0.1429,0.0,0.0,0.0,0.0663,0.0307,0.0,0.0,0.0,0.0,0.0,0.0,0.0,0.0,0.0,0.0,0.0,0.0,0.0,0.0,0.0,0.0,0.0,0.0,0.0,0.0,0.0,0.0,0.0,0.0,0.0,0.0,0.0,0.0,0.0,0.0,0.0,0.0,0.0,0.0,0.0,0.0,0.0,0.0,0.0,0.0,0.0,0.0,0.0,0.0,0.0,0.0,0.0,0.0,0.0,0.0,0.0,0.0,0.0,0.0,0.0,-0.6179,-0.7795,-0.7106,-0.6848,-0.7158,-0.6468,-0.6007,-0.5891,-0.502,-0.4448,0.0,0.0,0.0,0.0,0.0,0.0,0.0,0.0,0.0,0.0,0.0,0.0,0.0,0.0,0.0,0.0,0.0,0.0,0.0,0.0,0.0,0.0,0.0,0.0,0.0,0.0,0.0,0.0,0.0,0.0,0.0,0.0,0.0,0.0,0.0,0.0,0.0,0.0,0.0,0.0,0.0,0.0,0.1192,0.1157,0.0,0.0,0.0,0.0581,0.0443,0.0,0.0,0.0,0.0,0.0,0.0,0.0,0.0,0.0,0.0,0.0,0.0,0.0,0.0,0.0,0.0,0.0,0.0,0.0,0.0,0.0,0.0,0.0,0.0,0.0,0.0,0.0,0.0,0.0,0.0,0.0,0.0,0.0,0.0,0.0,0.0,0.0,0.0,0.0,0.0,0.0,0.0,0.0,0.0,0.0,0.0,0.0,0.0,0.0,0.0,0.0,0.0,0.0,0.0,0.0,0.0,0.0,-0.7767,-0.6919,-0.6669,-0.7106,-0.6524,-0.6115,-0.5911,-0.5084,0.0,0.0,0.0,0.0,0.0,0.0,0.0,0.0,0.0,0.0,0.0,0.0,0.0,0.0,0.0,0.0,0.0,0.0,0.0,0.0,0.0,0.0,0.0,0.0,0.0,0.0,0.0,0.0,0.0,0.0,0.0,0.0,0.0,0.0,0.0,0.0,0.0,0.0,0.0,0.0,0.0,0.0,0.0896,0.1299,0.0987,0.0699,0.0,0.0,0.0368,0.0271,0.0187,0.0122,0.0,0.0,0.0,0.0,0.0,0.0,0.0,0.0,0.0,0.0,0.0,0.0,0.0,0.0,0.0,0.0,0.0,0.0,0.0,0.0,0.0,0.0,0.0,0.0,0.0,0.0,0.0,0.0,0.0,0.0,0.0,0.0,0.0,0.0,0.0,0.0,0.0,0.0,0.0,0.0,0.0,0.0,0.0,0.0,0.0,0.0,0.0,0.0,0.0,0.0,0.0,0.0,0.0,0.0,0.0,-0.7547,-0.7114,-0.688,-0.6903,-0.6446,-0.6103,-0.5891,-0.4999,-0.4447,0.0,0.0,0.0,0.0,0.0,0.0,0.0,0.0,0.0,0.0,0.0,0.0,0.0,0.0,0.0,0.0,0.0,0.0,0.0,0.0,0.0,0.0,0.0,0.0,0.0,0.0,0.0,0.0,0.0,0.0,0.0,0.0,0.0,0.0,0.0,0.0,0.0,0.0,0.0,0.0,0.0,0.0887,0.0929,0.08,0.0551,0.0,0.0,0.0393,0.0381,0.0169,0.0062,0.017,0.0,0.0,0.0,0.0,0.0,0.0,0.0,0.0,0.0,0.0,0.0,0.0,0.0,0.0,0.0,0.0,0.0,0.0,0.0,0.0,0.0,0.0,0.0,0.0,0.0,0.0,0.0,0.0,0.0,0.0,0.0,0.0,0.0,0.0,0.0,0.0,0.0,0.0,0.0,0.0,0.0,0.0,0.0,0.0,0.0,0.0,0.0,0.0,0.0,0.0,0.0,0.0,0.0,-0.6131,-0.7561,-0.7131,-0.6894,-0.6894,-0.66,-0.6269,-0.59,-0.5383,-0.4866,0.0,0.0,0.0,0.0,0.0,0.0,0.0,0.0,0.0,0.0,0.0,0.0,0.0,0.0,0.0,0.0,0.0,0.0,0.0,0.0,0.0,0.0,0.0,0.0,0.0,0.0,0.0,0.0,0.0,0.0,0.0,0.0,0.0,0.0,0.0,0.0,0.0,0.0,0.0,0.0,0.0,0.0887,0.0886,0.0616,0.0,0.0,0.0084,0.0149,0.015,0.0076,0.008,0.0278,0.0366,0.0,0.0,0.0,0.0,0.0,0.0,0.0,0.0,0.0,0.0,0.0,0.0,0.0,0.0,0.0,0.0,0.0,0.0,0.0,0.0,0.0,0.0,0.0,0.0,0.0,0.0,0.0,0.0,0.0,0.0,0.0,0.0,0.0,0.0,0.0,0.0,0.0,0.0,0.0,0.0,0.0,0.0,0.0,0.0,0.0,0.0,0.0,0.0,0.0,0.0,0.0,0.0,-0.5982,-0.7356,-0.7001,-0.6816,-0.6807,-0.6664,-0.6366,-0.59,-0.5581,-0.5051,0.0,0.0,0.0,0.0,0.0,0.0,0.0,0.0,0.0,0.0,0.0,0.0,0.0,0.0,0.0,0.0,0.0,0.0,0.0,0.0,0.0,0.0,0.0,0.0,0.0,0.0,0.0,0.0,0.0,0.0,0.0,0.0,0.0,0.0,0.0,0.0,0.0,0.0,0.0,0.0,0.0,0.0728,0.0647,0.0334,0.0096,0.0009,0.0,0.0,0.0,0.0,0.0058,0.0257,0.0,0.0,0.0,0.0,0.0,0.0,0.0,0.0,0.0,0.0,0.0,0.0,0.0,0.0,0.0,0.0,0.0,0.0,0.0,0.0,0.0,0.0,0.0,0.0,0.0,0.0,0.0,0.0,0.0,0.0,0.0,0.0,0.0,0.0,0.0,0.0,0.0,0.0,0.0,0.0,0.0,0.0,0.0,0.0,0.0,0.0,0.0,0.0,0.0,0.0,0.0,0.0,0.0,0.0,-0.6906,-0.6727,-0.6608,-0.6608,-0.6599,-0.6378,-0.5918,-0.5464,-0.486,-0.4114,0.0,0.0,0.0,0.0,0.0,0.0,0.0,0.0,0.0,0.0,0.0,0.0,0.0,0.0,0.0,0.0,0.0,0.0,0.0,0.0,0.0,0.0,0.0,0.0,0.0,0.0,0.0,0.0,0.0,0.0,0.0,0.0,0.0,0.0,0.0,0.0,0.0,0.0,0.0,0.0527,0.0319,0.0074,0.0,0.0,0.0,0.0,0.0,0.0,0.0,0.0,0.0,0.0,0.0,0.0,0.0,0.0,0.0,0.0,0.0,0.0,0.0,0.0,0.0,0.0,0.0,0.0,0.0,0.0,0.0,0.0,0.0,0.0,0.0,0.0,0.0,0.0,0.0,-0.6484,-0.6121,0.0,0.0,0.0,0.0,0.0,0.0,0.0,0.0,0.0,0.0,0.0,-0.9117,-0.904,0.0,0.0,0.0,0.0,0.0,0.0,0.0,0.0,0.0,0.0,0.0,0.0,-0.5982,-0.683,-0.6706,-0.659,-0.659,-0.659,-0.6369,-0.5909,-0.5742,-0.5055,-0.3731,0.0,0.0,0.0,0.0,0.0,0.0,0.0,0.0,0.0,0.0,0.0,0.0,0.0,0.0,0.0,0.0,0.0,0.0,0.0,0.0,0.0,0.0,0.0,0.0,0.0,0.0138,0.0,0.0,0.0,0.0,0.0,0.0,0.0,0.0,0.0,0.0,0.0,0.0673,0.0405,0.0467,0.0418,0.0056,0.0,0.0,0.0,0.0,0.0,0.0,0.0,0.0,0.0,0.0,0.0,0.0,0.0,0.0,0.0,0.0,0.1033,0.1031,0.0926,0.0807,0.0711,0.0,0.0,0.0,0.0,0.0,0.0,0.0,0.0,0.0,0.0,0.0,0.0,0.0,0.0,0.0,0.0,-0.795,0.0,0.0,0.0,0.0,0.0,0.0,0.0,0.0,-0.9803,-1.0138,-1.0558,-1.048,-1.0206,0.0,-0.9928,-0.9081,0.0,0.0,0.0,0.0,0.0,0.0,0.0,0.0,-0.6397,-0.7044,-0.7161,-0.7197,-0.7175,-0.6978,-0.6657,-0.6187,-0.5676,-0.4901,-0.3821,-0.3256,-0.2701,0.0,0.0,0.0,0.0,0.0,0.0,0.0,0.0,0.0,0.0,0.0,0.0,0.0,0.0,0.0,0.0,0.0,0.0,0.0,0.0,0.0,0.0,0.0,0.0128,0.0,0.0,0.0,0.0,0.0,0.0,0.0,0.0,0.0,0.0686,0.0597,0.0467,0.0295,0.0333,0.0299,0.0029,0.0,0.0,0.0,0.0,0.0,0.0,0.0,0.0044,0.0236,0.0288,0.0411,0.0629,0.0733,0.0716,0.0588,0.0,0.0,0.0883,0.0793,0.0677,0.0588,0.0535,0.0579,0.084,0.0882,0.0968,0.0,0.0,0.0,0.0,0.0,0.0,0.0,0.0,-1.0628,-1.0727,0.0,-1.0521,0.0,0.0,0.0,0.0,0.0,0.0,0.0,0.0,-1.1506,-1.1824,-1.1854,-1.1674,-1.1339,-1.0907,-1.1036,-1.058,-0.9528,-0.7998,0.0,0.0,0.0,0.0,0.0,0.0,-0.6912,-0.7431,-0.7976,-0.8264,-0.8239,-0.7716,-0.72,-0.6679,-0.5305,-0.4489,-0.4287,-0.3684,-0.3058,-0.2458,-0.2164,0.0,0.0,0.0,0.0,0.0,0.0,0.0,0.0,0.0,0.0,0.0,0.0,0.0,0.0,0.0,0.0,0.0,0.0,0.0,0.0,0.0104,0.0,0.0,0.0,0.0,0.0,0.0,0.0,0.0,0.0,0.0,0.0564,0.037,0.0248,0.0363,0.0,0.0,0.0,0.0,0.0,0.0,0.0,0.0,0.0,0.0,0.0,0.0,0.0,0.0,0.0526,0.0737,0.0731,0.0355,0.0494,0.0725,0.0831,0.074,0.0706,0.0809,0.0726,0.0713,0.0832,0.0836,0.0924,-1.3102,0.0,0.0,0.0,0.0,-1.1672,-1.1958,-1.2658,-1.237,-1.2186,-1.2153,-1.2141,0.0,0.0,0.0,0.0,0.0,0.0,-1.1775,-1.2235,-1.243,-1.2762,-1.3214,-1.3165,-1.2937,-1.2597,-1.2863,-1.2417,-1.1284,-1.0325,-0.8922,-0.7107,0.0,0.0,0.0,0.0,-0.7886,-0.8037,-0.8223,-0.8167,-0.7889,-0.7972,-0.762,-0.6725,-0.5879,-0.5078,-0.4324,-0.4122,-0.3758,-0.3202,-0.2597,0.0,0.0,0.0,0.0,0.0,0.0,0.0,0.0,0.0,0.0,0.0,0.0,0.0,0.0,0.0,0.0,0.0,0.0,0.0,-0.0328,-0.0143,-0.0172,0.0,0.0,0.0,0.0,0.0,0.0,0.0,0.0,0.0,-0.0417,-0.0146,0.0064,0.0,0.0,0.0,0.0,0.0,0.0,0.0,0.0,0.0,0.0,0.0,0.0,0.0,0.0043,0.0096,0.0164,0.0225,0.0222,0.0,0.014,0.0207,0.0242,0.0316,0.0324,0.0283,0.0237,0.0276,0.0488,0.0533,0.0635,-1.5288,-1.4009,-1.317,-1.3092,-1.3536,-1.3431,-1.3706,-1.4168,-1.391,-1.3788,-1.3776,-1.3657,-1.3211,-1.2583,-1.2314,0.0,0.0,0.0,-1.2969,-1.361,-1.3595,-1.3957,-1.4558,-1.4588,-1.4344,-1.3905,-1.3918,-1.3502,-1.2708,-1.183,-1.0755,-0.9486,0.0,0.0,-0.7789,-0.8313,-0.8612,-0.8636,-0.8838,-0.875,-0.8382,-0.8134,-0.7531,-0.6551,-0.6052,-0.5438,-0.4658,-0.452,-0.4211,-0.368,-0.3017,-0.2587,0.0,0.0,0.0,0.0,0.0,0.0,0.0,0.0,0.0,0.0,0.0,-0.0806,0.0,0.0,0.0,0.0,-0.0604,-0.0502,-0.0704,-0.0588,0.0,0.0,0.0,0.0,0.0,0.0,0.0,-0.0875,-0.0736,-0.0667,-0.0862,-0.0587,-0.0362,-0.0362,-0.0152,-0.0056,-0.0224,0.0,0.0,0.0,0.0,0.0,0.0,0.0,0.0,0.0,0.0,0.0,0.0,0.0,0.0,0.0,0.0,0.0,0.0,0.0062,0.0095,0.0,0.0,0.0,0.0218,0.0248,0.0313,-1.7305,-1.6876,-1.5362,-1.4739,-1.4847,-1.5539,-1.5474,-1.4922,-1.5227,-1.5369,-1.5304,-1.5006,-1.4528,-1.3929,-1.3313,0.0,0.0,-1.3675,-1.4288,-1.4871,-1.4871,-1.52,-1.5784,-1.5799,-1.547,-1.4872,-1.4439,-1.4105,-1.3846,-1.2719,-1.2084,-1.1918,-0.9697,-0.8524,-0.8462,-0.8963,-0.9214,-0.9176,-0.9642,-0.9725,-0.9384,-0.8222,-0.7172,-0.6296,-0.5994,-0.5615,-0.5117,-0.4864,-0.4505,-0.398,-0.345,-0.2754,-0.1919,0.0,0.0,0.0,0.0,0.0,0.0,0.0,0.0,0.0,0.0,0.0,0.0,0.0,0.0,0.0,-0.0788,0.0,-0.0937,-0.1189,0.0,0.0,0.0,-0.1296,-0.0838,-0.0885,-0.0957,-0.0965,0.0,0.0,0.0,0.0,-0.0994,-0.1,-0.0489,-0.0238,-0.0558,-0.0377,-0.0127,0.0,0.0,0.0,0.0,0.0,0.0,0.0,0.0,0.0,0.0,0.0,0.0,0.0,0.0,0.0,0.0,0.0,0.0,0.0,0.0,0.0,0.0,0.0,0.0,-1.8927,-1.8831,-1.8447,-1.721,-1.5582,-1.6018,-1.5945,-1.5608,-1.5908,-1.5904,-1.5656,-1.5616,-1.5484,-1.532,-1.5169,-1.5094,-1.5094,-1.5245,-1.541,-1.5574,-1.5574,-1.5649,-1.5799,-1.5814,-1.5724,-1.5574,-1.5444,-1.5197,-1.4761,-1.3795,-1.3096,-1.27,-1.1447,-1.0383,-0.9567,-1.0043,-1.0106,-0.9705,-0.983,-0.9738,-0.9396,-0.8276,-0.74,-0.6826,-0.6446,-0.5887,-0.5137,-0.504,-0.4856,-0.4523,-0.3912,-0.3199,-0.2452,-0.2373,0.0,0.0,0.0,0.0,0.0,0.0,0.0,0.0,0.0,-0.2062,-0.2277,0.0,-0.1937,0.0,-0.1429,-0.1257,-0.155,-0.1652,0.0,0.0,-0.1436,-0.1394,-0.1522,-0.1482,-0.1478,-0.1567,-0.1497,-0.1505,-0.1709,-0.1736,-0.1775,-0.1871,-0.1445,-0.1068,-0.0886,-0.1171,-0.1025,-0.0256,-0.0306,-0.0392,0.0,0.0,0.0,0.0,0.0,0.0,0.0,0.0,0.0,0.0,0.0,0.0,0.0,0.0,0.0,0.0,0.0,0.0,0.0,0.0,0.0,-1.9628,-1.9491,-1.9491,-1.8515,-1.6967,-1.7151,-1.7038,-1.6693,-1.6411,-1.6191,-1.5996,-1.587,-1.5814,-1.5814,-1.5814,-1.5814,-1.5814,-1.5814,-1.5814,-1.5814,-1.5814,-1.5814,-1.5814,-1.5814,-1.5814,-1.5784,-1.5595,-1.5463,-1.5345,-1.4323,-1.3757,-1.3653,-1.2762,-1.1874,-1.1046,-1.1086,-1.096,-1.0659,-1.0232,-0.9743,-0.9141,-0.8354,-0.7666,-0.7072,-0.6833,-0.6287,-0.5449,-0.541,-0.5191,-0.4706,-0.4236,-0.3593,-0.2834,-0.2911,-0.3144,0.0,0.0,0.0,0.0,0.0,0.0,0.0,0.0,0.0,0.0,0.0,-0.2287,0.0,0.0,0.0,-0.2171,-0.196,-0.1829,-0.1881,-0.1673,-0.1558,-0.1696,-0.1755,-0.1809,-0.1872,-0.1884,-0.1918,-0.2076,-0.2083,-0.2154,-0.2313,-0.2116,-0.1832,-0.1547,-0.1679,-0.151,-0.0714,-0.0654,-0.054,-0.0053,0.0,0.0,0.0,0.0,0.0,0.0,0.0,0.0,0.0,0.0,0.0,0.0,0.0,0.0,0.0,0.0,0.0,0.0,0.0,0.0,-2.0112,-1.9856,-1.9856,-1.9455,-1.8808,-1.8664,-1.8281,-1.7729,-1.6895,-1.6521,-1.6451,-1.6169,-1.6039,-1.6024,-1.5963,-1.5904,-1.5918,-1.5844,-1.5814,-1.5814,-1.5814,-1.5814,-1.5814,-1.5814,-1.5814,-1.5784,-1.5374,-1.5374,-1.5683,-1.461,-1.4181,-1.4374,-1.3669,-1.3044,-1.2517,-1.2027,-1.1726,-1.1603,-1.0724,-0.9859,-0.9012,-0.8648,-0.8091,-0.7293,-0.7147,-0.6706,-0.5908,-0.5825,-0.551,-0.4876,-0.4567,-0.4067,-0.3329,-0.35,-0.4032,0.0,-0.4105,0.0,0.0,0.0,0.0,0.0,0.0,0.0,0.0,-0.244,-0.2525,-0.2496,-0.2493,-0.2555,-0.2649,-0.2177,-0.1899,-0.199,-0.1879,-0.1783,-0.1713,-0.1894,-0.2025,-0.2022,-0.213,-0.22,-0.2248,-0.2252,-0.2305,-0.2486,-0.2491,-0.2413,-0.2272,-0.2006,-0.1669,-0.1328,-0.0887,-0.0413,0.0,0.0,0.0,0.0,0.0,0.0,0.0,0.0,0.0,0.0,0.0,0.0,0.0,0.0,0.0,0.0,0.0,0.0,0.0,0.0,0.0,-2.1829,-2.1757,-2.1773,-2.1468,-2.0911,-2.0063,-1.8948,-1.7727,-1.7792,-1.7685,-1.7436,-1.7372,-1.7356,-1.7295,-1.6787,-1.6547,-1.6518,-1.6024,-1.5814,-1.5814,-1.5814,-1.5814,-1.5814,-1.5814,-1.5814,-1.5784,-1.5697,-1.5507,-1.5225,-1.4997,-1.458,-1.4003,-1.3852,-1.3529,0.0,0.0,0.0,0.0,-1.1104,-1.0564,-0.9952,-0.9553,-0.8926,-0.8019,-0.7364,0.0,-0.6223,-0.5934,-0.5731,-0.5591,-0.5195,0.0,0.0,0.0,0.0,0.0,0.0,0.0,0.0,0.0,0.0,0.0,-0.3671,-0.3467,-0.2993,-0.3164,-0.3208,-0.2991,-0.3059,-0.2951,-0.2508,-0.2254,-0.2106,-0.2085,-0.192,-0.1908,-0.2191,-0.216,-0.2099,-0.2171,-0.2197,-0.2272,-0.2409,-0.2456,-0.25,-0.2617,-0.2655,-0.2641,-0.2595,-0.2228,-0.1732,-0.1101,-0.0553,-0.0136,-0.0015,0.0,0.0,0.0,0.0,0.0,0.0,0.0,0.0,0.0,0.0,0.0,0.0,0.0,0.0,0.0,0.0,0.0,0.0,0.0,0.0,-2.2313,0.0,-2.2313,-2.2032,0.0,0.0,-2.0099,-1.8932,-1.823,-1.7862,-1.7699,-1.7699,-1.7699,-1.7682,-1.7339,-1.7204,-1.716,-1.6533,-1.6248,-1.6219,-1.5934,-1.5814,-1.5814,-1.5814,-1.5814,-1.5814,-1.5814,-1.5682,-1.5448,-1.521,-1.4799,-1.4198,-1.3986,-1.3665,-1.3228,-1.321,-1.2785,-1.2002,-1.1789,-1.1335,-1.0618,-1.0138,-0.958,-0.891,0.0,0.0,0.0,0.0,0.0,0.0,0.0,0.0,0.0,0.0,0.0,-0.5578,-0.5186,-0.4702,-0.415,-0.4192,-0.4156,-0.396,-0.4054,-0.3983,-0.3568,-0.3683,-0.3748,-0.3748,-0.381,-0.3722,-0.3417,-0.314,-0.3017,-0.3013,-0.2788,-0.274,-0.2853,-0.2528,-0.2346,-0.2586,-0.2527,-0.2486,-0.2585,-0.2596,-0.2627,-0.2682,-0.2679,-0.2679,-0.2663,-0.2497,-0.2045,-0.1224,-0.046,0.0,0.0,0.0,0.0,0.0,0.0,0.0,0.0,0.0,0.0,0.0,0.0,0.0,0.0,0.0,0.0,0.0,0.0,0.0,0.0,0.0,0.0,-2.2496,-2.2465,-2.2347,-2.2017,-2.1597,-2.1506,-2.1007,-2.0099,0.0,0.0,0.0,-1.8057,-1.8042,-1.8042,-1.7938,-1.7878,-1.7833,-1.7174,-1.6816,-1.6666,-1.6204,-1.5918,-1.5814,-1.5814,-1.5814,-1.5814,-1.5814,-1.5814,-1.5784,-1.5418,-1.4968,-1.4517,-1.4149,-1.3735,-1.3245,-1.321,-1.3002,-1.2563,-1.2538,-1.2118,-1.1282,-1.0831,-1.0392,-0.9963,-0.903,-0.8322,-0.7855,-0.7439,-0.6989,-0.6562,-0.6521,-0.6436,-0.6221,-0.6328,-0.6523,-0.6758,-0.6131,-0.5351,-0.4522,-0.4619,-0.4645,-0.4429,-0.4449,-0.4355,-0.408,-0.4072,-0.4154,-0.4389,-0.4436,-0.4422,-0.4388,-0.4193,-0.404,-0.4011,-0.3891,-0.3753,-0.3485,-0.2988,-0.2725,-0.2962,-0.2807,-0.2679,-0.2673,-0.2673,-0.2679,-0.2679,-0.2679,-0.2679,-0.2679,-0.258,-0.2195,-0.1388,-0.065,0.0,0.0,0.0,0.0,0.0,0.0,0.0,0.0,0.0,0.0,0.0,0.0,0.0,0.0,0.0,0.0,0.0,0.0,0.0,0.0,0.0,0.0,-2.3257,-2.319,-2.2567,-2.2032,-2.1567,-2.1228,-2.0582,-1.977,-1.9516,-1.9405,-1.942,-1.9405,-1.9423,-1.9375,-1.8822,-1.8536,-1.8523,-1.7863,-1.7249,0.0,-1.6622,-1.6293,-1.5814,-1.5814,-1.5814,-1.5814,-1.5814,-1.5814,-1.5799,-1.5741,-1.5285,-1.458,-1.4438,-1.3986,-1.3267,-1.321,-1.316,-1.3085,-1.3098,-1.2806,-1.2223,-1.2136,-1.183,-1.13,-1.0058,-0.9224,-0.8808,-0.7978,-0.7358,-0.7025,-0.7002,-0.6992,-0.6943,-0.6599,-0.6426,-0.6428,-0.5834,-0.5346,-0.5089,-0.4694,-0.4455,-0.4416,-0.4622,-0.4642,-0.4375,-0.4342,-0.4362,-0.4409,-0.4629,-0.4604,-0.4313,-0.4724,-0.4763,-0.4197,-0.4641,-0.461,-0.3553,-0.3347,-0.3187,-0.2879,-0.2732,-0.2679,-0.2679,-0.2679,-0.2679,-0.2679,-0.2696,-0.2686,-0.266,-0.2347,-0.1895,-0.139,-0.0923,-0.0639,-0.0522,-0.0252,0.0,0.0,0.0,0.0,0.0,0.0,0.0,0.0,0.0,0.0,0.0,0.0,0.0,0.0,0.0,0.0,0.0,0.0,0.0,-2.4,-2.3936,-2.3322,-2.2939,-2.2685,-2.2008,-2.1264,-2.0584,-2.0569,-2.0243,-1.9723,-1.9723,-1.9723,-1.9693,-1.9393,-1.9258,-1.9196,-1.8553,-1.8087,-1.7773,-1.7399,-1.6891,-1.6323,-1.6278,-1.6114,-1.5829,-1.5814,-1.5814,-1.5814,-1.5814,-1.5344,-1.4517,-1.4035,-1.3598,-1.3232,-1.321,-1.321,-1.321,-1.321,-1.3073,-1.2839,-1.2308,-1.2021,-1.2011,-1.0466,-0.9649,-0.9683,-0.8815,-0.8293,-0.8135,-0.792,-0.7808,-0.7798,-0.7363,-0.7011,-0.678,-0.6285,-0.59,-0.5715,-0.5195,-0.4965,-0.5104,-0.5199,-0.5331,-0.5367,-0.5063,-0.4883,-0.4898,-0.5003,-0.5001,-0.4817,-0.5094,-0.5135,-0.4752,-0.5087,-0.5033,-0.4446,-0.3805,-0.3483,-0.3352,-0.2994,-0.2696,-0.2679,-0.2679,-0.2679,-0.2703,-0.2757,-0.2798,-0.2798,-0.2625,-0.2304,-0.1739,-0.1141,-0.0757,-0.069,-0.0303,0.0,0.0,0.0,0.0,0.0,0.0,0.0,0.0,0.0,0.0,0.0,0.0,0.0,0.0,0.0,0.0,0.0,0.0,0.0,-2.4634,-2.4698,-2.3984,-2.357,-2.3316,-2.2616,-2.1935,-2.1418,-2.1494,-2.1075,-2.0328,-1.999,-1.9854,-1.9836,-1.9762,-1.9708,-1.9633,-1.9184,-1.8837,-1.864,-1.8162,-1.7563,-1.6935,-1.6786,-1.6458,-1.6024,-1.5859,-1.5814,-1.5784,-1.5697,-1.5195,-1.4374,-1.3598,-1.321,-1.321,-1.321,-1.321,-1.321,-1.321,-1.3146,-1.3017,-1.227,-1.2003,-1.213,-1.0726,-1.0019,-1.0256,-0.9557,-0.9079,-0.8994,-0.8691,-0.8541,-0.8522,-0.8188,-0.7862,-0.7537,-0.7049,-0.6538,-0.6087,-0.5827,-0.5701,-0.5731,-0.5906,-0.6064,-0.6133,-0.5739,-0.5447,-0.5487,-0.5517,-0.5507,-0.5484,-0.5461,-0.5463,-0.5504,-0.5367,-0.5303,-0.5248,-0.4482,-0.3862,-0.3912,-0.3299,-0.2808,-0.2729,-0.2679,-0.2679,-0.27,-0.2812,-0.2875,-0.2869,-0.2873,-0.2645,-0.2163,-0.1408,-0.0889,-0.0805,-0.0369,0.0,0.0,0.0,0.0,0.0,0.0,0.0,0.0,0.0,0.0,0.0,0.0,0.0,0.0,0.0,0.0,0.0,0.0,0.0,-2.5063,-2.5292,-2.4265,-2.3195,-2.2549,-2.2381,-2.2083,-2.1752,-2.2049,-2.221,-2.1948,-2.0819,-2.0275,-2.0193,-1.9887,-1.9738,-1.969,-1.9648,-1.9288,-1.8762,-1.8657,-1.8237,-1.7578,-1.7009,-1.6666,-1.6532,-1.6069,-1.5844,-1.5741,-1.5344,-1.4752,-1.4,-1.3442,-1.321,-1.321,-1.321,-1.321,-1.321,-1.321,-1.3007,-1.2597,-1.2478,-1.223,-1.187,-1.1161,-1.0647,-1.0403,-0.9835,-0.9365,-0.9028,-0.8984,-0.8928,-0.8945,-0.888,-0.886,-0.8757,-0.7965,-0.7031,-0.6093,-0.6509,-0.6548,-0.6019,-0.6489,-0.6648,-0.6265,-0.5994,-0.5927,-0.6062,-0.6109,-0.6093,-0.6102,-0.5941,-0.5894,-0.5994,-0.5668,-0.5346,-0.5441,-0.5289,-0.4798,-0.3896,-0.3475,-0.3097,-0.2779,-0.2679,-0.2706,-0.2744,-0.2829,-0.2855,-0.2791,-0.2768,-0.2734,-0.2493,-0.1842,-0.1323,-0.1138,-0.0536,0.0,0.0,0.0,0.0,0.0,0.0,0.0,0.0,0.0,0.0,0.0,0.0,0.0,0.0,0.0,0.0,0.0,0.0,0.0,-2.5812,-2.6168,-2.5394,-2.4466,-2.3568,-2.3219,-2.2777,-2.2339,-2.2699,-2.2686,-2.2307,-2.1716,-2.1303,-2.0982,-2.0512,-2.0079,-1.9723,-1.9723,-1.9573,-1.9301,-1.9303,-1.8942,-1.8311,-1.8027,-1.7504,-1.6726,-1.6458,-1.601,-1.5358,-1.4721,-1.4214,-1.3885,-1.3442,-1.321,-1.321,-1.321,-1.321,-1.321,-1.321,-1.299,-1.2526,-1.2228,-1.2004,-1.1744,-1.0978,-1.0625,-1.0688,-1.0276,-0.994,-0.9764,-0.9503,-0.9357,-0.9357,-0.9141,-0.8885,-0.8635,-0.8053,-0.7364,-0.6555,-0.6813,-0.6956,-0.6848,-0.679,-0.6718,-0.6686,-0.6593,-0.6587,-0.6627,-0.6479,-0.6342,-0.6216,-0.6115,-0.6109,-0.6196,-0.6244,-0.6197,-0.5923,-0.5496,-0.4876,-0.4239,-0.3644,-0.3147,-0.2812,-0.2679,-0.2757,-0.2873,-0.2922,-0.2855,-0.2832,-0.2815,-0.2774,-0.2653,-0.2128,-0.164,-0.1323,-0.0822,-0.037,0.0,0.0,0.0,0.0,0.0,0.0,0.0,0.0,0.0,0.0,0.0,0.0,0.0,0.0,0.0,0.0,0.0,0.0,-2.6085,-2.6419,-2.6138,-2.5373,-2.4389,-2.3991,-2.3489,-2.3014,-2.3249,-2.3181,-2.2887,-2.2735,-2.2424,-2.1938,-2.1118,-2.0423,-1.9974,-1.9798,-1.9723,-1.9723,-1.9723,-1.9453,-1.8986,-1.8762,-1.8207,-1.7354,-1.707,-1.6359,-1.5235,-1.449,-1.4006,-1.3708,-1.3357,-1.321,-1.321,-1.321,-1.321,-1.321,-1.321,-1.2908,-1.2347,-1.1963,-1.1737,-1.1516,-1.0755,-1.0467,-1.0783,-1.0486,-1.0322,-1.0312,-0.998,-0.9796,-0.9786,-0.9503,-0.9169,-0.8721,-0.8277,-0.7872,-0.7412,-0.73,-0.7273,-0.7328,-0.7058,-0.6977,-0.6988,-0.6993,-0.6993,-0.6966,-0.6767,-0.6586,-0.6452,-0.6412,-0.6404,-0.6364,-0.6734,-0.678,-0.6214,-0.5645,-0.5144,-0.4639,-0.3969,-0.3282,-0.2832,-0.272,-0.2818,-0.2924,-0.293,-0.2879,-0.2856,-0.2832,-0.2795,-0.27,-0.238,-0.1978,-0.1406,-0.0923,-0.0539,0.0,0.0,0.0,0.0,0.0,0.0,0.0,0.0,0.0,0.0,0.0,0.0,0.0,0.0,0.0,0.0,0.0,0.0,-2.5542,-2.5995,-2.6013,-2.5354,-2.441,-2.4343,-2.4038,-2.349,-2.3563,-2.3815,-2.4076,-2.3712,-2.3436,-2.3142,-2.1534,-2.0703,-2.0602,-2.0064,-1.9813,-1.9783,-1.9768,-1.9708,-1.9585,-1.9016,-1.8657,-1.8401,-1.7827,-1.6859,-1.5499,-1.4902,-1.4167,-1.3304,-1.324,-1.321,-1.321,-1.321,-1.321,-1.321,-1.321,-1.2773,-1.1993,-1.1847,-1.156,-1.1094,-1.0582,-1.0341,-1.0361,-1.0322,-1.0322,-1.0322,-1.0263,-1.0254,-1.0254,-1.0215,-0.9906,-0.9467,-0.8941,-0.8621,-0.85,-0.8076,-0.7603,-0.7183,-0.7438,-0.7571,-0.7049,-0.6993,-0.698,-0.6986,-0.6934,-0.6901,-0.6847,-0.6773,-0.674,-0.6553,-0.6787,-0.668,-0.6263,-0.5959,-0.5633,-0.5056,-0.4304,-0.3538,-0.2826,-0.2808,-0.2808,-0.2798,-0.2829,-0.2856,-0.2744,-0.272,-0.2713,-0.2706,-0.258,-0.2328,-0.149,-0.1057,-0.0602,0.0,0.0,0.0,0.0,0.0,0.0,0.0,0.0,0.0,0.0,0.0,0.0,0.0,0.0,0.0,0.0,0.0,0.0,-2.5008,-2.5449,-2.5125,-2.4736,-2.4389,-2.4032,-2.3773,-2.3595,-2.3595,-2.3702,-2.3837,-2.3681,-2.3567,-2.347,-2.2455,-2.1739,-2.1335,-2.1066,-2.0752,-2.0393,-2.0333,-2.0109,-1.9693,-1.9438,-1.9076,-1.8651,-1.8108,-1.7036,-1.5551,-1.4722,-1.4146,-1.3758,-1.3361,-1.321,-1.321,-1.321,-1.321,-1.321,-1.321,-1.289,-1.2276,-1.1957,-1.1523,-1.1019,-1.0534,-1.0322,-1.0322,-1.0322,-1.0322,-1.0322,-1.0322,-1.0322,-1.0283,-0.9981,-0.9883,-0.9922,-0.9179,-0.8695,-0.8635,-0.8201,-0.7635,-0.7105,-0.7189,-0.7273,-0.7048,-0.6993,-0.6947,-0.6787,-0.6707,-0.664,-0.6546,-0.66,-0.6579,-0.6385,-0.6305,-0.6298,-0.6182,-0.595,-0.559,-0.5055,-0.4226,-0.3357,-0.3014,-0.2791,-0.2781,-0.2832,-0.2791,-0.274,-0.272,-0.2679,-0.2679,-0.2679,-0.2663,-0.2377,-0.1438,-0.1221,0.0,0.0,0.0,0.0,0.0,0.0,0.0,0.0,0.0,0.0,0.0,0.0,0.0,0.0,0.0,0.0,0.0,0.0,0.0,-2.4732,-2.5105,-2.4796,-2.4536,-2.4369,-2.4012,-2.3767,-2.3616,-2.3595,-2.3595,-2.3595,-2.3595,-2.3595,-2.3535,-2.3167,-2.2778,-2.2278,-2.1904,-2.1455,-2.1036,-2.0793,-2.0449,-2.0049,-1.9798,-1.9468,-1.8971,-1.8281,-1.7218,-1.5887,-1.5018,-1.4525,-1.4324,-1.3772,-1.3478,-1.3483,-1.3298,-1.321,-1.321,-1.321,-1.2908,-1.233,-1.1975,-1.1479,-1.0848,-1.0448,-1.0322,-1.0322,-1.0322,-1.0322,-1.0322,-1.0322,-1.0322,-1.0283,-0.9961,-0.9932,-1.0137,-0.9459,-0.8886,-0.8655,-0.8201,-0.7635,-0.7063,-0.6993,-0.6993,-0.6993,-0.6941,-0.678,-0.6613,-0.6452,-0.6303,-0.6135,-0.6169,-0.6196,-0.605,-0.5936,-0.5894,-0.59,-0.5778,-0.546,-0.4942,-0.4157,-0.3487,-0.3088,-0.2839,-0.2757,-0.2829,-0.2737,-0.2686,-0.2679,-0.2679,-0.2679,-0.2679,-0.2679,-0.2361,-0.174,-0.1423,-0.0907,0.0,0.0,0.0,0.0,0.0,0.0,0.0,0.0,0.0,0.0,0.0,0.0,0.0,0.0,0.0,0.0,0.0,0.0,-2.4672,-2.5067,-2.5163,-2.4756,-2.4348,-2.4282,-2.4032,-2.3638,-2.3595,-2.3595,-2.3595,-2.3595,-2.3595,-2.358,-2.352,-2.352,-2.3251,-2.2368,-2.1829,-2.1665,-2.1126,-2.0778,-2.0602,-2.0049,-1.9647,-1.9405,-1.8564,-1.7526,-1.6428,-1.5803,-1.5324,-1.489,-1.4362,-1.4047,-1.4078,-1.3546,-1.3235,-1.321,-1.321,-1.275,-1.1938,-1.1811,-1.133,-1.0486,-1.0322,-1.0322,-1.0322,-1.0322,-1.0322,-1.0322,-1.0322,-1.0322,-1.0303,-1.0186,-1.0244,-1.0176,-0.9736,-0.9239,-0.8797,-0.8283,-0.7718,-0.7126,-0.7021,-0.7084,-0.6966,-0.6787,-0.6626,-0.6533,-0.6311,-0.6068,-0.5778,-0.5731,-0.5731,-0.5718,-0.5769,-0.5699,-0.5494,-0.5551,-0.543,-0.4759,-0.4215,-0.3821,-0.3368,-0.2977,-0.2793,-0.273,-0.2693,-0.2679,-0.2679,-0.2679,-0.2679,-0.2679,-0.2663,-0.2444,-0.2026,-0.1596,-0.0901,0.0,0.0,0.0,0.0,0.0,0.0,0.0,0.0,0.0,0.0,0.0,0.0,0.0,0.0,0.0,0.0,0.0,0.0,-2.3948,-2.4095,-2.4095,-2.4012,-2.3858,-2.3858,-2.3745,-2.3616,-2.3595,-2.3595,-2.3595,-2.3595,-2.3595,-2.3595,-2.3595,-2.3595,-2.3565,-2.3146,-2.2808,-2.2418,-2.2143,-2.1545,-2.0827,-2.0479,-1.974,-1.8741,-1.8283,-1.7545,-1.6592,-1.5964,-1.558,-1.5387,-1.4909,-1.4462,-1.4154,-1.3909,-1.3652,-1.3265,-1.321,-1.275,-1.1902,-1.1811,-1.133,-1.0438,-1.0322,-1.0322,-1.0322,-1.0322,-1.0322,-1.0322,-1.0322,-1.0322,-1.0244,-0.9961,-0.9942,-1.0166,-0.9439,-0.927,-0.9646,-0.8938,-0.8,-0.7314,-0.7363,-0.7363,-0.7036,-0.676,-0.6533,-0.6345,-0.6025,-0.5731,-0.5507,-0.5434,-0.5461,-0.5434,-0.5454,-0.5477,-0.5363,-0.538,-0.5148,-0.4722,-0.4468,-0.4092,-0.349,-0.3118,-0.2957,-0.2729,-0.2679,-0.2679,-0.2679,-0.2679,-0.2679,-0.2679,-0.2646,-0.258,-0.2195,-0.1842,-0.1347,-0.0712,0.0,0.0,0.0,0.0,0.0,0.0,0.0,0.0,0.0,0.0,0.0,0.0,0.0,0.0,0.0,0.0,0.0,-2.4343,-2.4343,-2.4343,-2.4343,-2.4358,-2.4343,-2.4208,-2.4044,-2.4238,-2.4208,-2.4007,-2.3962,-2.3984,-2.3902,-2.3714,-2.3595,-2.3595,-2.3595,-2.34,-2.2996,-2.2763,-2.2209,-2.1341,-2.0675,-1.964,-1.8323,-1.7896,-1.7353,-1.6518,-1.6162,-1.5994,-1.5919,-1.5462,-1.5047,-1.4689,-1.4488,-1.4123,-1.3604,-1.3546,-1.298,-1.2046,-1.1811,-1.133,-1.0467,-1.0322,-1.0322,-1.0322,-1.0322,-1.0322,-1.0322,-1.0322,-1.0322,-1.0283,-1.0,-0.9952,-1.0079,-0.9784,-0.9637,-1.0098,-0.925,-0.8451,-0.7814,-0.7614,-0.7405,-0.7016,-0.6754,-0.6512,-0.6338,-0.6084,-0.5822,-0.5675,-0.5628,-0.5541,-0.5322,-0.5322,-0.5309,-0.5309,-0.5309,-0.5205,-0.4874,-0.457,-0.4129,-0.3723,-0.3183,-0.3039,-0.2746,-0.2679,-0.2679,-0.2679,-0.2679,-0.2679,-0.2679,-0.2679,-0.2547,-0.2347,-0.2064,-0.1778,-0.1247,0.0,0.0,0.0,0.0,0.0,0.0,0.0,0.0,0.0,0.0,0.0,0.0,0.0,0.0,0.0,0.0,0.0,-2.5585,-2.56,-2.5585,-2.551,-2.5495,-2.5495,-2.5151,-2.4799,-2.5255,-2.5166,-2.4724,-2.4649,-2.4605,-2.444,-2.3977,-2.3729,-2.3595,-2.3595,-2.358,-2.3385,-2.3077,-2.2673,-2.2317,-2.0865,-1.9576,-1.8526,-1.78,-1.7159,-1.666,-1.6509,-1.6522,-1.6375,-1.5969,-1.5693,-1.55,-1.516,-1.4676,-1.4198,-1.4085,-1.3338,-1.2059,-1.1822,-1.1367,-1.0428,-1.0341,-1.0322,-1.0322,-1.0322,-1.0322,-1.0322,-1.0322,-1.0322,-1.0322,-1.0293,-1.0264,-1.0215,-1.0244,-1.0225,-1.0098,-0.9518,-0.8687,-0.8267,-0.762,-0.7021,-0.7008,-0.676,-0.6593,-0.6526,-0.6324,-0.6156,-0.6135,-0.6122,-0.5894,-0.5467,-0.5447,-0.545,-0.5347,-0.539,-0.5398,-0.5274,-0.466,-0.4088,-0.4073,-0.3399,-0.3041,-0.2754,-0.2734,-0.2717,-0.2679,-0.2679,-0.2679,-0.2683,-0.2699,-0.263,-0.2464,-0.2364,-0.2089,-0.1746,-0.1237,-0.0819,-0.0253,0.0,0.0,0.0,0.0,0.0,0.0,0.0,0.0,0.0,0.0,0.0,0.0,0.0,0.0,-2.56,-2.56,-2.56,-2.56,-2.56,-2.56,-2.554,-2.5352,-2.5525,-2.5585,-2.5337,-2.5322,-2.5083,-2.4605,-2.444,-2.4066,-2.3729,-2.361,-2.3595,-2.3565,-2.346,-2.3092,-2.2509,-2.1216,-2.0105,-1.9331,-1.8349,-1.7674,-1.7156,-1.6748,-1.6538,-1.6522,-1.6358,-1.607,-1.5718,-1.5588,-1.5223,-1.4702,-1.4274,-1.3785,-1.2955,-1.215,-1.1497,-1.0867,-1.0487,-1.0332,-1.0322,-1.0322,-1.0322,-1.0322,-1.0322,-1.0322,-1.0322,-1.0303,-1.0137,-0.9863,-1.0079,-1.0303,-1.0244,-0.9981,-0.9122,-0.7703,-0.7737,-0.7571,-0.7035,-0.6754,-0.6613,-0.654,-0.6352,-0.6216,-0.6209,-0.6223,-0.6102,-0.6014,-0.5961,-0.5894,-0.5786,-0.5856,-0.5961,-0.5925,-0.5686,-0.5174,-0.4531,-0.4139,-0.3703,-0.3144,-0.2896,-0.2808,-0.2751,-0.2733,-0.2751,-0.2716,-0.271,-0.2699,-0.2646,-0.2583,-0.242,-0.2176,-0.1809,-0.1453,-0.0792,0.0,0.0,0.0,0.0,0.0,0.0,0.0,0.0,0.0,0.0,0.0,0.0,0.0,0.0,-2.6437,-2.6437,-2.6437,-2.6437,-2.6462,-2.6437,-2.6288,-2.6108,-2.6318,-2.6258,-2.6078,-2.6019,-2.5809,-2.542,-2.4859,-2.441,-2.4022,-2.3729,-2.3595,-2.3595,-2.358,-2.3075,-2.2222,-2.1189,-2.0368,-1.9495,-1.863,-1.7929,-1.7418,-1.7036,-1.6751,-1.6538,-1.6513,-1.6325,-1.6107,-1.6032,-1.5768,-1.5266,-1.4896,-1.4428,-1.3636,-1.2827,-1.219,-1.1583,-1.0975,-1.0508,-1.0352,-1.0322,-1.0322,-1.0322,-1.0322,-1.0322,-1.0322,-1.0322,-1.0059,-0.9578,-0.9795,-1.003,-1.0157,-0.9913,-0.9062,-0.8088,-0.817,-0.7972,-0.7543,-0.7229,-0.7097,-0.6794,-0.662,-0.6553,-0.6539,-0.6539,-0.6539,-0.6539,-0.6539,-0.6385,-0.6093,-0.6109,-0.6182,-0.6152,-0.5986,-0.5609,-0.4692,-0.4494,-0.398,-0.3338,-0.2976,-0.2913,-0.2842,-0.2836,-0.2843,-0.2856,-0.286,-0.2862,-0.2873,-0.2819,-0.279,-0.256,-0.2243,-0.1926,-0.1253,-0.0505,0.0,0.0,0.0,0.0,0.0,0.0,0.0,0.0,0.0,0.0,0.0,0.0,0.0,-2.7585,-2.7585,-2.7585,-2.7585,-2.7525,-2.757,-2.718,-2.6896,-2.724,-2.7195,-2.6782,-2.6716,-2.6572,-2.6527,-2.5465,-2.4769,-2.456,-2.4044,-2.3729,-2.3596,-2.3406,-2.2855,-2.1839,-2.1342,-2.0489,-1.9484,-1.8639,-1.8114,-1.7777,-1.7576,-1.7149,-1.6823,-1.6672,-1.655,-1.6425,-1.6437,-1.6233,-1.5844,-1.5593,-1.5144,-1.4329,-1.3515,-1.2825,-1.2412,-1.1347,-1.0733,-1.0479,-1.0352,-1.0322,-1.0322,-1.0322,-1.0322,-1.0322,-1.0322,-1.0,-0.9597,-0.9498,-0.9677,-0.9746,-0.9102,-0.8938,-0.8817,-0.8788,-0.8533,-0.8082,-0.7839,-0.7584,-0.7176,-0.7035,-0.692,-0.6913,-0.6953,-0.692,-0.6893,-0.694,-0.6747,-0.6425,-0.6283,-0.6302,-0.6283,-0.5933,-0.5417,-0.4802,-0.4341,-0.3942,-0.3455,-0.3171,-0.3073,-0.3032,-0.3044,-0.3078,-0.3122,-0.31,-0.3086,-0.309,-0.3071,-0.3062,-0.2962,-0.262,-0.2221,-0.1618,-0.0924,-0.0341,0.0,0.0,0.0,0.0,0.0,0.0,0.0,0.0,0.0,0.0,0.0,0.0,-2.7585,-2.7585,-2.7585,-2.7585,-2.7585,-2.7585,-2.751,-2.739,-2.7525,-2.7495,-2.7375,-2.7375,-2.7091,-2.6626,-2.6198,-2.5644,-2.4769,-2.4425,-2.4126,-2.3566,-2.3076,-2.2506,-2.1815,-2.1517,-2.108,-2.0208,-1.9256,-1.8781,-1.8581,-1.8166,-1.7752,-1.7262,-1.7112,-1.6974,-1.6575,-1.6525,-1.6463,-1.6283,-1.5944,-1.5652,-1.5155,-1.4006,-1.3235,-1.2909,-1.1675,-1.0959,-1.0742,-1.0479,-1.0312,-1.0322,-1.0322,-1.0322,-1.0322,-1.0322,-1.0,-0.9549,-0.939,-0.903,-0.819,-0.8618,-0.933,-0.9637,-0.929,-0.8921,-0.8553,-0.8111,-0.7891,-0.7621,-0.7301,-0.7014,-0.6993,-0.6993,-0.6993,-0.6993,-0.6993,-0.6953,-0.686,-0.6814,-0.678,-0.6746,-0.6665,-0.6301,-0.5308,-0.5074,-0.4509,-0.3719,-0.3385,-0.3256,-0.3232,-0.3249,-0.3276,-0.3317,-0.3263,-0.3236,-0.3236,-0.3242,-0.3246,-0.3249,-0.2992,-0.255,-0.1946,-0.1457,-0.0903,0.0,0.0,0.0,0.0,0.0,0.0,0.0,0.0,0.0,0.0,0.0,0.0,-2.7585,-2.7585,-2.7585,-2.7585,-2.7585,-2.7585,-2.7585,-2.7585,-2.7585,-2.7585,-2.7585,-2.7585,-2.739,-2.7021,-2.6746,-2.6138,-2.5525,-2.4829,-2.4231,-2.3664,-2.3224,-2.262,-2.1828,-2.1602,-2.1256,-2.0395,-1.9737,-1.9296,-1.8983,-1.8707,-1.8317,-1.7765,-1.7561,-1.726,-1.6886,-1.6672,-1.6513,-1.6463,-1.6237,-1.6082,-1.5827,-1.4976,-1.3788,-1.3173,-1.2092,-1.1365,-1.0897,-1.0713,-1.0478,-1.0361,-1.0332,-1.0322,-1.0322,-1.0322,-1.0079,-0.9834,-0.9489,-0.8699,-0.782,-0.817,-0.9119,-0.9518,-0.937,-0.897,-0.8594,-0.8234,-0.7966,-0.7572,-0.7189,-0.6993,-0.6993,-0.6993,-0.6993,-0.6993,-0.6993,-0.6993,-0.6993,-0.6993,-0.6993,-0.6993,-0.6939,-0.6525,-0.6033,-0.5545,-0.4947,-0.4101,-0.3554,-0.3436,-0.345,-0.3443,-0.3433,-0.344,-0.3388,-0.3368,-0.3371,-0.3385,-0.3415,-0.3421,-0.3354,-0.2881,-0.2319,-0.191,-0.1521,0.0,0.0,0.0,0.0,0.0,0.0,0.0,0.0,0.0,0.0,0.0,0.0,-2.7585,-2.7585,-2.7585,-2.7585,-2.7585,-2.7585,-2.7585,-2.7585,-2.7585,-2.7585,-2.7585,-2.7585,-2.7555,-2.745,-2.7046,-2.6761,-2.6213,-2.5202,-2.4276,-2.388,-2.3415,-2.268,-2.1885,-2.1472,-2.0939,-1.9901,-1.9748,-1.9522,-1.9259,-1.9096,-1.8832,-1.8355,-1.7928,-1.7624,-1.7348,-1.6936,-1.6613,-1.65,-1.645,-1.6425,-1.6339,-1.5734,-1.4695,-1.3424,-1.2484,-1.1836,-1.1307,-1.1074,-1.0859,-1.0518,-1.043,-1.0361,-1.0312,-1.0322,-1.0322,-1.0244,-0.9657,-0.8728,-0.7889,-0.8082,-0.8561,-0.8533,-0.9039,-0.8938,-0.8398,-0.8255,-0.7979,-0.7523,-0.7133,-0.6993,-0.6993,-0.6993,-0.6993,-0.6993,-0.6993,-0.6993,-0.6993,-0.6993,-0.6993,-0.6993,-0.6958,-0.6662,-0.6167,-0.5653,-0.5065,-0.45,-0.3968,-0.36,-0.36,-0.3593,-0.3552,-0.3539,-0.3501,-0.3466,-0.347,-0.3466,-0.3503,-0.352,-0.3524,-0.323,-0.2733,-0.2403,-0.1936,-0.1163,0.0,0.0,0.0,0.0,0.0,0.0,0.0,0.0,0.0,0.0,0.0,-2.7585,-2.7585,-2.7585,-2.7585,-2.7585,-2.7585,-2.7585,-2.7585,-2.7585,-2.7585,-2.7585,-2.7585,-2.7585,-2.754,-2.7525,-2.7136,-2.6393,-2.5367,-2.4574,-2.4127,-2.3458,-2.2486,-2.1687,-2.121,-2.0559,-2.0016,-1.9798,-1.971,-1.966,-1.9622,-1.9309,-1.8933,-1.8707,-1.8317,-1.7664,-1.7237,-1.6948,-1.6647,-1.655,-1.6513,-1.6371,-1.5852,-1.505,-1.3722,-1.2855,-1.2217,-1.1921,-1.1621,-1.1438,-1.134,-1.0996,-1.0674,-1.042,-1.0351,-1.0391,-1.0147,-0.9538,-0.8829,-0.839,-0.8144,-0.7835,-0.7669,-0.8198,-0.8736,-0.8439,-0.8214,-0.7925,-0.7655,-0.721,-0.6993,-0.6993,-0.6993,-0.6993,-0.6993,-0.7026,-0.7013,-0.7006,-0.7026,-0.7013,-0.7006,-0.6943,-0.6859,-0.6386,-0.5867,-0.5303,-0.4679,-0.4012,-0.3689,-0.36,-0.36,-0.359,-0.3583,-0.3587,-0.358,-0.358,-0.3573,-0.358,-0.3573,-0.3575,-0.3575,-0.3167,-0.2874,-0.2343,-0.1796,-0.1241,0.0,0.0,-0.0368,0.0,0.0,0.0,0.0,0.0,0.0,0.0,-2.7585,-2.7585,-2.7585,-2.7585,-2.7585,-2.7585,-2.7585,-2.7585,-2.7585,-2.7585,-2.7585,-2.7585,-2.7585,-2.7585,-2.7585,-2.7225,-2.6512,-2.6033,-2.5093,-2.4229,-2.3467,-2.2428,-2.1434,-2.0932,-2.0421,-1.9978,-1.9798,-1.9798,-1.9798,-1.9786,-1.9648,-1.9421,-1.9171,-1.8719,-1.8191,-1.7662,-1.7325,-1.6961,-1.671,-1.6513,-1.6457,-1.5908,-1.5107,-1.4288,-1.3453,-1.2792,-1.2207,-1.2047,-1.18,-1.1606,-1.14,-1.0929,-1.0655,-1.0665,-1.0783,-1.036,-0.9802,-0.9217,-0.8866,-0.8504,-0.817,-0.721,-0.7593,-0.7786,-0.7876,-0.778,-0.7783,-0.7461,-0.7273,-0.6993,-0.6993,-0.702,-0.6993,-0.7026,-0.7148,-0.7174,-0.7121,-0.7166,-0.714,-0.7073,-0.7005,-0.6914,-0.6725,-0.6167,-0.5561,-0.4874,-0.4122,-0.3818,-0.3644,-0.36,-0.36,-0.36,-0.36,-0.36,-0.36,-0.36,-0.36,-0.36,-0.36,-0.36,-0.3534,-0.3214,-0.3056,-0.2761,-0.2184,-0.1542,-0.1203,-0.0968,-0.0712,-0.0404,0.0,0.0,0.0,0.0,0.0,-2.7585,-2.7585,-2.7585,-2.7585,-2.7585,-2.7585,-2.7585,-2.7585,-2.7585,-2.7585,-2.7585,-2.7585,-2.7585,-2.7585,-2.754,-2.73,-2.6782,-2.6686,-2.5603,-2.4428,-2.3764,-2.2698,-2.1397,-2.0761,-2.0459,-1.9901,-1.9798,-1.9798,-1.9798,-1.9798,-1.9798,-1.9673,-1.9321,-1.907,-1.877,-1.8204,-1.7765,-1.7388,-1.6999,-1.6663,-1.6383,-1.592,-1.5387,-1.4824,-1.4213,-1.3333,-1.2716,-1.2443,-1.224,-1.1995,-1.1751,-1.1467,-1.1056,-1.131,-1.133,-1.0899,-1.0594,-0.9875,-0.9272,-0.8923,-0.8491,-0.7528,-0.7261,-0.7249,-0.735,-0.7701,-0.7716,-0.7287,-0.7206,-0.7239,-0.7279,-0.7213,-0.718,-0.7193,-0.7395,-0.7544,-0.7462,-0.7435,-0.7381,-0.7266,-0.7126,-0.6996,-0.6868,-0.645,-0.5825,-0.5443,-0.4709,-0.3928,-0.3755,-0.3622,-0.36,-0.36,-0.36,-0.36,-0.36,-0.36,-0.36,-0.36,-0.36,-0.36,-0.36,-0.3534,-0.3404,-0.3255,-0.2926,-0.2322,-0.1943,-0.1497,-0.1118,-0.0761,-0.0426,0.0,0.0,0.0,0.0,-2.7585,-2.7585,-2.7585,-2.7585,-2.7585,-2.7585,-2.7585,-2.7585,-2.7585,-2.7585,-2.7585,-2.7585,-2.7585,-2.7585,-2.7585,-2.754,-2.7315,-2.6877,-2.6076,-2.493,-2.4114,-2.293,-2.1532,-2.0993,-2.0449,-1.9901,-1.9798,-1.9798,-1.9798,-1.9798,-1.9798,-1.9761,-1.9685,-1.951,-1.9096,-1.8744,-1.8569,-1.8091,-1.7564,-1.7049,-1.6539,-1.5969,-1.5613,-1.5141,-1.4423,-1.3643,-1.329,-1.2968,-1.269,-1.2651,-1.2305,-1.2305,-1.2393,-1.19,-1.2103,-1.1985,-1.151,-1.0438,-0.977,-0.9258,-0.8769,-0.8044,-0.7826,-0.7806,-0.7752,-0.7762,-0.7861,-0.7852,-0.7766,-0.7712,-0.7679,-0.7716,-0.7679,-0.7619,-0.7632,-0.7882,-0.7919,-0.7903,-0.7816,-0.7548,-0.7428,-0.7246,-0.7095,-0.6603,-0.6136,-0.575,-0.5275,-0.4517,-0.3821,-0.3667,-0.36,-0.36,-0.36,-0.36,-0.36,-0.36,-0.3626,-0.3604,-0.3634,-0.3634,-0.3665,-0.3679,-0.3638,-0.3459,-0.3216,-0.3018,-0.2632,-0.2119,-0.1585,-0.1163,-0.0895,-0.0471,0.0,0.0,0.0,-2.7585,-2.7585,-2.7585,-2.7585,-2.7585,-2.7585,-2.7585,-2.7585,-2.7585,-2.7585,-2.7585,-2.7585,-2.7585,-2.7585,-2.7585,-2.7585,-2.754,-2.727,-2.6283,-2.5185,-2.4303,-2.3069,-2.142,-2.0823,-2.0397,-2.0003,-1.9798,-1.9798,-1.9798,-1.9798,-1.9798,-1.9798,-1.9798,-1.9723,-1.9371,-1.9133,-1.8895,-1.8544,-1.8129,-1.7576,-1.7003,-1.639,-1.5737,-1.513,-1.4271,-1.3742,-1.3334,-1.3104,-1.2905,-1.2876,-1.2646,-1.2676,-1.2798,-1.2573,-1.2553,-1.2715,-1.2373,-1.1473,-1.04,-0.9596,-0.8928,-0.8379,-0.8143,-0.8005,-0.7945,-0.7925,-0.7925,-0.7899,-0.7899,-0.7919,-0.7899,-0.7792,-0.7699,-0.7686,-0.7885,-0.8025,-0.8225,-0.841,-0.833,-0.8009,-0.7715,-0.7569,-0.7379,-0.7024,-0.661,-0.622,-0.5852,-0.5308,-0.4381,-0.3644,-0.36,-0.36,-0.36,-0.36,-0.36,-0.36,-0.3655,-0.3676,-0.3779,-0.377,-0.3781,-0.3761,-0.3744,-0.3696,-0.3514,-0.3327,-0.3166,-0.2776,-0.2223,-0.1792,-0.1362,-0.095,-0.0503,0.0,0.0,-2.7585,-2.7585,-2.7585,-2.7585,-2.7585,-2.7585,-2.7585,-2.7585,-2.7585,-2.7585,-2.7585,-2.7585,-2.7585,-2.7585,-2.7585,-2.7585,-2.7585,-2.7585,-2.6546,-2.5431,-2.4431,-2.3326,-2.203,-2.125,-2.0618,-2.0012,-2.0138,-1.9987,-1.9823,-1.9798,-1.9798,-1.9798,-1.9798,-1.9786,-1.9698,-1.9472,-1.9171,-1.8895,-1.8593,-1.8129,-1.7572,-1.6768,-1.6008,-1.5176,-1.4323,-1.3576,-1.32,-1.2954,-1.2915,-1.2895,-1.2886,-1.2842,-1.2876,-1.2837,-1.2798,-1.2905,-1.2706,-1.2143,-1.105,-1.0165,-0.936,-0.8831,-0.8389,-0.8318,-0.8205,-0.8119,-0.8132,-0.8199,-0.8185,-0.8172,-0.8123,-0.8043,-0.8032,-0.8065,-0.8112,-0.8205,-0.8312,-0.8498,-0.855,-0.825,-0.8009,-0.7949,-0.7726,-0.7453,-0.7104,-0.6715,-0.6339,-0.5992,-0.5203,-0.4228,-0.4172,-0.4308,-0.4252,-0.4186,-0.3965,-0.3924,-0.3865,-0.3915,-0.4024,-0.3957,-0.3965,-0.3924,-0.3853,-0.3802,-0.3751,-0.3705,-0.3558,-0.3233,-0.29,-0.2452,-0.1991,-0.1489,-0.1002,-0.0461,0.0,-2.7585,-2.7585,-2.7585,-2.7585,-2.7585,-2.7585,-2.7585,-2.7585,-2.7585,-2.7585,-2.7585,-2.7585,-2.7585,-2.7585,-2.7585,-2.7585,-2.7585,-2.7585,-2.6946,-2.6074,-2.5111,-2.3987,-2.2822,-2.1907,-2.1154,-2.0704,-2.0616,-2.0339,-1.9962,-1.9949,-1.9874,-1.9798,-1.9798,-1.9798,-1.9773,-1.9673,-1.9434,-1.9196,-1.897,-1.8608,-1.7893,-1.7085,-1.6268,-1.5788,-1.4687,-1.3755,-1.3695,-1.3176,-1.2915,-1.2915,-1.2915,-1.2915,-1.2915,-1.2915,-1.2915,-1.2915,-1.2915,-1.2385,-1.1605,-1.0979,-1.0378,-0.9728,-0.9127,-0.8671,-0.8565,-0.8658,-0.8724,-0.8644,-0.8571,-0.8598,-0.8664,-0.8711,-0.853,-0.8478,-0.8445,-0.8498,-0.8571,-0.8625,-0.8644,-0.843,-0.831,-0.8263,-0.8125,-0.7889,-0.7599,-0.7234,-0.6962,-0.6615,-0.6228,-0.5467,-0.5301,-0.5277,-0.5186,-0.4979,-0.4604,-0.4585,-0.4796,-0.4779,-0.4794,-0.4494,-0.4204,-0.4139,-0.4037,-0.4006,-0.3996,-0.3986,-0.3938,-0.3664,-0.3384,-0.3063,-0.2613,-0.2023,-0.131,-0.0679,-0.0266,-2.7585,-2.7585,-2.7585,-2.7585,-2.7585,-2.7585,-2.7585,-2.7585,-2.7585,-2.7585,-2.7585,-2.7585,-2.7585,-2.7585,-2.7585,-2.7585,-2.7585,-2.7585,-2.7111,-2.6426,-2.5489,-2.4463,-2.3448,-2.2557,-2.1707,-2.128,-2.1169,-2.0905,-2.0427,-2.0352,-2.0075,-1.9936,-1.9911,-1.9798,-1.9798,-1.9798,-1.9648,-1.9572,-1.9396,-1.9058,-1.7979,-1.7205,-1.6266,-1.5079,-1.4342,-1.3504,-1.326,-1.3051,-1.2929,-1.2915,-1.2925,-1.2915,-1.2915,-1.2915,-1.2915,-1.2915,-1.2915,-1.2676,-1.2338,-1.1683,-1.0965,-0.9891,-0.9204,-0.8804,-0.8804,-0.8778,-0.8778,-0.8771,-0.8778,-0.8778,-0.8798,-0.8791,-0.8725,-0.8771,-0.8778,-0.8778,-0.8778,-0.8778,-0.8751,-0.8577,-0.8591,-0.8604,-0.847,-0.8317,-0.8025,-0.7756,-0.7507,-0.7224,-0.6842,-0.6573,-0.635,-0.6157,-0.6028,-0.589,-0.5512,-0.5629,-0.5834,-0.5683,-0.5529,-0.5255,-0.4881,-0.4402,-0.4337,-0.4292,-0.4204,-0.4177,-0.4117,-0.408,-0.3861,-0.3538,-0.3054,-0.2463,-0.1705,-0.0913,-0.0483,-2.7585,-2.7585,-2.7585,-2.7585,-2.7585,-2.7585,-2.7585,-2.7585,-2.7585,-2.7585,-2.7585,-2.7585,-2.7585,-2.7585,-2.7585,-2.7585,-2.7585,-2.756,-2.728,-2.664,-2.5834,-2.4888,-2.3975,-2.3041,-2.2284,-2.1857,-2.1681,-2.1471,-2.0955,-2.0943,-2.0767,-2.0501,-2.0288,-2.0238,-1.9798,-1.9798,-1.9798,-1.9798,-1.9709,-1.9288,-1.8205,-1.735,-1.6446,-1.505,-1.4219,-1.3706,-1.3425,-1.3277,-1.314,-1.3057,-1.2978,-1.2925,-1.2915,-1.2915,-1.2915,-1.2915,-1.2915,-1.2915,-1.2725,-1.2172,-1.1191,-0.9969,-0.9465,-0.908,-0.885,-0.8778,-0.8778,-0.8778,-0.8778,-0.8778,-0.8778,-0.8778,-0.8778,-0.8778,-0.8778,-0.8778,-0.8778,-0.8778,-0.8778,-0.8751,-0.8778,-0.8758,-0.8704,-0.8512,-0.8245,-0.7992,-0.7749,-0.7583,-0.7421,-0.7214,-0.7145,-0.6972,-0.683,-0.6681,-0.651,-0.6777,-0.6888,-0.6251,-0.6121,-0.6092,-0.5729,-0.5155,-0.4594,-0.4406,-0.4358,-0.4351,-0.43,-0.4263,-0.4163,-0.4034,-0.3485,-0.2892,-0.2052,-0.1277,-0.0638,-2.7509,-2.7585,-2.7549,-2.7509,-2.7458,-2.7585,-2.7585,-2.7585,-2.7585,-2.7534,-2.7484,-2.7484,-2.7433,-2.7408,-2.724,-2.7214,-2.724,-2.7316,-2.724,-2.6811,-2.5755,-2.5287,-2.4672,-2.3722,-2.2694,-2.2397,-2.2246,-2.2008,-2.1481,-2.1496,-2.1405,-2.1292,-2.1079,-2.0778,-1.9911,-1.9773,-1.9798,-1.9773,-1.9721,-1.9075,-1.8283,-1.7334,-1.6465,-1.5466,-1.4607,-1.4062,-1.3812,-1.3623,-1.3506,-1.3457,-1.3145,-1.3052,-1.2988,-1.2935,-1.2915,-1.2915,-1.2915,-1.2915,-1.2856,-1.2187,-1.1266,-1.0167,-0.9744,-0.9387,-0.8956,-0.8778,-0.8778,-0.8778,-0.8778,-0.8778,-0.8778,-0.8778,-0.8778,-0.8778,-0.8778,-0.8778,-0.8778,-0.8778,-0.8778,-0.8778,-0.8778,-0.8778,-0.8778,-0.8691,-0.8425,-0.8192,-0.7985,-0.7867,-0.7867,-0.7866,-0.7821,-0.7753,-0.7629,-0.7548,-0.7498,-0.7948,-0.7911,-0.7189,-0.6769,-0.6797,-0.6345,-0.5571,-0.5085,-0.4653,-0.4467,-0.4423,-0.4447,-0.447,-0.4345,-0.421,-0.3854,-0.3264,-0.2404,-0.1684,-0.1096,-2.612,-2.6135,-2.6135,-2.6135,-2.6269,-2.7214,-2.7585,-2.7585,-2.7575,-2.7331,-2.693,-2.6878,-2.6549,-2.6295,-2.6215,-2.6228,-2.6201,-2.612,-2.612,-2.604,-2.5147,-2.4794,-2.4337,-2.3741,-2.3012,-2.2882,-2.2769,-2.2506,-2.2004,-2.2033,-2.1769,-2.1594,-2.1543,-2.1106,-2.0305,-1.9721,-1.9071,-1.8965,-1.8581,-1.7977,-1.7319,-1.6851,-1.6244,-1.5305,-1.4777,-1.4463,-1.4211,-1.3987,-1.3909,-1.3851,-1.3525,-1.332,-1.3232,-1.3145,-1.2964,-1.2935,-1.2915,-1.2915,-1.2881,-1.251,-1.1891,-1.0889,-1.0038,-0.9588,-0.8903,-0.8804,-0.8778,-0.8778,-0.8778,-0.8778,-0.8778,-0.8778,-0.8778,-0.8778,-0.8778,-0.8778,-0.8778,-0.8778,-0.8778,-0.8778,-0.8778,-0.8778,-0.8778,-0.8778,-0.8578,-0.8518,-0.8358,-0.8378,-0.8401,-0.8454,-0.8442,-0.8468,-0.8404,-0.8364,-0.8422,-0.8499,-0.8262,-0.7501,-0.741,-0.7653,-0.6999,-0.5923,-0.5273,-0.4677,-0.457,-0.4491,-0.4491,-0.4487,-0.447,-0.4292,-0.4061,-0.3705,-0.3,-0.2306,-0.1695,-2.5398,-2.5398,-2.5398,-2.5398,-2.5591,-2.6707,-2.7346,-2.7534,-2.756,-2.7188,-2.6642,-2.6496,-2.6108,-2.5618,-2.5398,-2.5398,-2.5398,-2.5398,-2.5425,-2.5287,-2.4652,-2.4436,-2.4089,-2.3543,-2.313,-2.3095,-2.307,-2.2869,-2.2581,-2.2569,-2.2418,-2.2184,-2.1845,-2.1656,-2.0986,-2.0177,-1.928,-1.9057,-1.8513,-1.7573,-1.6952,-1.6401,-1.6064,-1.5382,-1.498,-1.4855,-1.4601,-1.4436,-1.4355,-1.4211,-1.3987,-1.374,-1.3597,-1.3496,-1.3242,-1.3154,-1.2964,-1.2944,-1.2881,-1.3086,-1.2447,-1.1575,-1.0639,-0.9744,-0.9028,-0.8804,-0.8778,-0.8778,-0.8798,-0.8805,-0.8818,-0.8811,-0.8785,-0.8785,-0.8785,-0.8785,-0.8778,-0.8778,-0.8778,-0.8778,-0.8778,-0.8778,-0.8778,-0.8778,-0.8718,-0.8738,-0.8751,-0.8778,-0.8778,-0.8778,-0.8778,-0.8765,-0.8758,-0.8659,-0.8613,-0.8698,-0.835,-0.7797,-0.775,-0.7803,-0.7009,-0.5864,-0.5273,-0.4759,-0.4598,-0.4491,-0.4491,-0.4484,-0.4477,-0.4477,-0.4401,-0.3984,-0.3511,-0.2899,-0.2259,-2.5315,-2.5356,-2.5328,-2.5273,-2.5425,-2.6014,-2.6774,-2.7458,-2.7458,-2.7008,-2.6377,-2.6229,-2.5728,-2.5287,-2.5231,-2.5134,-2.505,-2.5078,-2.505,-2.4951,-2.4321,-2.4205,-2.3914,-2.3454,-2.3155,-2.3095,-2.3095,-2.307,-2.3058,-2.2957,-2.2945,-2.2882,-2.2498,-2.2309,-2.1774,-2.0861,-1.9903,-1.9222,-1.8153,-1.7255,-1.6578,-1.6324,-1.592,-1.5437,-1.5283,-1.5273,-1.5117,-1.4971,-1.4834,-1.4658,-1.4394,-1.4211,-1.4114,-1.4104,-1.3841,-1.3564,-1.3164,-1.3096,-1.3076,-1.335,-1.3314,-1.2569,-1.1481,-1.0265,-0.9434,-0.9099,-0.8985,-0.8978,-0.8991,-0.8938,-0.8905,-0.8864,-0.8824,-0.8824,-0.8824,-0.8818,-0.8785,-0.8778,-0.8778,-0.8778,-0.8778,-0.8778,-0.8778,-0.8778,-0.8778,-0.8778,-0.8778,-0.8778,-0.8778,-0.8778,-0.8778,-0.8778,-0.8771,-0.8778,-0.8778,-0.8778,-0.8156,-0.7509,-0.7343,-0.7262,-0.6465,-0.5756,-0.5164,-0.4704,-0.457,-0.4491,-0.4491,-0.4491,-0.4487,-0.4491,-0.4491,-0.4322,-0.3846,-0.3425,-0.2788,-2.3754,-2.3754,-2.3754,-2.3767,-2.3884,-2.461,-2.537,-2.6,-2.6027,-2.5618,-2.4922,-2.4936,-2.4639,-2.3783,-2.3754,-2.3826,-2.3813,-2.3754,-2.3725,-2.3679,-2.3738,-2.3543,-2.3378,-2.3245,-2.3095,-2.3095,-2.3095,-2.3095,-2.3083,-2.3095,-2.3095,-2.302,-2.2792,-2.276,-2.2224,-2.1266,-2.0181,-1.9097,-1.7814,-1.6925,-1.6325,-1.5996,-1.5673,-1.5478,-1.542,-1.542,-1.5342,-1.5283,-1.5186,-1.5127,-1.4805,-1.4609,-1.46,-1.4299,-1.3987,-1.3968,-1.3792,-1.3704,-1.3568,-1.3753,-1.3871,-1.352,-1.2456,-1.1357,-1.0424,-0.9743,-0.9355,-0.9245,-0.9252,-0.9252,-0.9178,-0.9112,-0.9078,-0.9072,-0.9078,-0.9085,-0.9045,-0.8931,-0.8918,-0.8778,-0.8778,-0.8778,-0.8778,-0.8778,-0.8778,-0.8778,-0.8778,-0.8778,-0.8778,-0.8778,-0.8778,-0.8778,-0.8778,-0.8778,-0.8778,-0.8778,-0.7969,-0.7268,-0.7208,-0.6745,-0.571,-0.5085,-0.4814,-0.4625,-0.4515,-0.4491,-0.4491,-0.4491,-0.4491,-0.4491,-0.4491,-0.4349,-0.4184,-0.379,-0.3176,-2.3095,-2.3095,-2.3095,-2.3095,-2.3185,-2.3632,-2.4105,-2.4553,-2.5119,-2.4979,-2.4337,-2.4337,-2.3855,-2.3245,-2.3185,-2.3185,-2.3185,-2.3275,-2.3245,-2.3245,-2.3095,-2.3155,-2.3125,-2.3095,-2.3095,-2.3095,-2.3095,-2.3095,-2.3095,-2.3095,-2.3095,-2.3078,-2.2896,-2.2671,-2.2077,-2.0911,-1.9853,-1.8817,-1.7729,-1.6643,-1.6124,-1.5811,-1.5644,-1.5449,-1.5439,-1.543,-1.542,-1.542,-1.542,-1.541,-1.5098,-1.5049,-1.4961,-1.4648,-1.4387,-1.4328,-1.4124,-1.3919,-1.3773,-1.415,-1.4394,-1.4173,-1.3221,-1.2386,-1.1303,-1.0415,-0.993,-0.9574,-0.9621,-0.9635,-0.9506,-0.9426,-0.9412,-0.9371,-0.9412,-0.9454,-0.9285,-0.9118,-0.8985,-0.8818,-0.8778,-0.8778,-0.8778,-0.8778,-0.8778,-0.8778,-0.8778,-0.8778,-0.8778,-0.8778,-0.8778,-0.8778,-0.8778,-0.8778,-0.8778,-0.8725,-0.8129,-0.7589,-0.7396,-0.6745,-0.5332,-0.468,-0.4598,-0.457,-0.4487,-0.4491,-0.4491,-0.4491,-0.4491,-0.4491,-0.4491,-0.4432,-0.4349,-0.4208,-0.3483,-2.3095,-2.3095,-2.3095,-2.3095,-2.3095,-2.3155,-2.3185,-2.3245,-2.4553,-2.4809,-2.4221,-2.4189,-2.3738,-2.3155,-2.3095,-2.3095,-2.3095,-2.3095,-2.3095,-2.3095,-2.3095,-2.3095,-2.3095,-2.3095,-2.3095,-2.3095,-2.3095,-2.3095,-2.3047,-2.2944,-2.2823,-2.3017,-2.2353,-2.2063,-2.1846,-2.0623,-1.9695,-1.9069,-1.8078,-1.7051,-1.6486,-1.6163,-1.5948,-1.5576,-1.5498,-1.5478,-1.543,-1.542,-1.542,-1.5381,-1.5371,-1.5371,-1.5234,-1.5059,-1.4883,-1.4766,-1.4543,-1.4358,-1.4289,-1.4562,-1.4725,-1.4421,-1.3673,-1.3012,-1.2039,-1.0783,-1.0091,-0.9963,-1.0017,-1.0023,-0.995,-0.9866,-0.9846,-0.986,-0.988,-0.9775,-0.9519,-0.9359,-0.9218,-0.9078,-0.8931,-0.8911,-0.8778,-0.8778,-0.8778,-0.8778,-0.8778,-0.8778,-0.8778,-0.8778,-0.8778,-0.8778,-0.8778,-0.8778,-0.8778,-0.8672,-0.8368,-0.799,-0.7696,-0.6848,-0.5546,-0.4921,-0.4491,-0.4491,-0.4491,-0.4491,-0.4491,-0.4491,-0.4491,-0.4491,-0.4491,-0.4491,-0.4463,-0.4421,-0.3622,-2.3095,-2.3095,-2.3095,-2.3095,-2.3095,-2.3095,-2.3095,-2.3125,-2.3454,-2.3607,-2.3424,-2.3395,-2.3335,-2.3155,-2.3095,-2.3095,-2.3095,-2.3095,-2.3095,-2.3095,-2.3095,-2.3095,-2.3095,-2.3095,-2.3095,-2.3095,-2.3095,-2.3095,-2.2975,-2.2702,-2.2506,-2.2914,-2.2156,-2.1616,-2.1565,-2.0365,-1.9683,-1.91,-1.8335,-1.7582,-1.7122,-1.666,-1.6346,-1.6045,-1.5909,-1.5684,-1.5586,-1.543,-1.542,-1.541,-1.541,-1.541,-1.5391,-1.5293,-1.5254,-1.5225,-1.5078,-1.4932,-1.4932,-1.4972,-1.5022,-1.4638,-1.3936,-1.333,-1.2425,-1.1097,-1.038,-1.0389,-1.0372,-1.0365,-1.0352,-1.0311,-1.0291,-1.0318,-1.0332,-1.0064,-0.976,-0.9613,-0.9472,-0.9319,-0.9144,-0.9024,-0.8884,-0.8818,-0.8785,-0.8778,-0.8778,-0.8778,-0.8778,-0.8778,-0.8778,-0.8778,-0.8778,-0.8778,-0.8778,-0.8725,-0.848,-0.8103,-0.7777,-0.6821,-0.5728,-0.5058,-0.4491,-0.4491,-0.4491,-0.4491,-0.4491,-0.4491,-0.4491,-0.4515,-0.4535,-0.4552,-0.4556,-0.4535,-0.3593,-2.3095,-2.3095,-2.3095,-2.3095,-2.3095,-2.3095,-2.3095,-2.3095,-2.3095,-2.3095,-2.3095,-2.3095,-2.3095,-2.3095,-2.3095,-2.3095,-2.3095,-2.3095,-2.3095,-2.3095,-2.3095,-2.3095,-2.3095,-2.3095,-2.3095,-2.3095,-2.3095,-2.3065,-2.2987,-2.2414,-2.223,-2.2353,-2.1616,-2.0846,-2.0687,-1.9944,-1.9332,-1.8721,-1.8202,-1.7929,-1.7598,-1.7227,-1.6775,-1.6484,-1.6173,-1.5947,-1.5752,-1.5557,-1.542,-1.542,-1.542,-1.542,-1.542,-1.5391,-1.54,-1.5391,-1.5371,-1.542,-1.542,-1.5352,-1.5079,-1.4332,-1.3816,-1.3009,-1.2235,-1.1036,-1.0528,-1.0499,-1.0499,-1.0492,-1.0492,-1.0466,-1.0452,-1.0466,-1.0445,-1.0298,-1.0053,-0.9886,-0.9713,-0.9526,-0.9439,-0.9412,-0.9319,-0.9312,-0.9239,-0.9018,-0.8984,-0.8871,-0.8851,-0.8825,-0.8811,-0.8778,-0.8778,-0.8778,-0.8778,-0.8752,-0.8646,-0.8268,-0.7889,-0.6929,-0.5977,-0.5085,-0.4491,-0.4491,-0.4491,-0.4491,-0.4491,-0.4522,-0.4569,-0.461,-0.4624,-0.4634,-0.4634,-0.4626,-0.4001,-2.3095,-2.3095,-2.3095,-2.3095,-2.3095,-2.3095,-2.3095,-2.3095,-2.3095,-2.3095,-2.3095,-2.3095,-2.3095,-2.3095,-2.3095,-2.3095,-2.3095,-2.3095,-2.3095,-2.3095,-2.3095,-2.3095,-2.3095,-2.3095,-2.3095,-2.3095,-2.3095,-2.3108,-2.3078,-2.2384,-2.1815,-2.1522,-2.059,-1.9464,-1.911,-1.8731,-1.8371,-1.8236,-1.8042,-1.8008,-1.7842,-1.7656,-1.7246,-1.6826,-1.6465,-1.6251,-1.6075,-1.5869,-1.5625,-1.5586,-1.5615,-1.5488,-1.543,-1.542,-1.542,-1.542,-1.542,-1.542,-1.542,-1.542,-1.4481,-1.3584,-1.3161,-1.2604,-1.1865,-1.1257,-1.0744,-1.0586,-1.0586,-1.0586,-1.0586,-1.0586,-1.0573,-1.0566,-1.0533,-1.0512,-1.0307,-1.0147,-0.9973,-0.9802,-0.9733,-0.9726,-0.9679,-0.9708,-0.9573,-0.9344,-0.9211,-0.9071,-0.8978,-0.8944,-0.8918,-0.8838,-0.8778,-0.8778,-0.8778,-0.8752,-0.8725,-0.8487,-0.8023,-0.709,-0.6167,-0.5167,-0.4574,-0.4498,-0.4498,-0.4549,-0.4576,-0.4585,-0.4629,-0.4701,-0.4718,-0.4741,-0.4775,-0.474,-0.4546,-2.3095,-2.3095,-2.3095,-2.3095,-2.3095,-2.3095,-2.3095,-2.3095,-2.3095,-2.3095,-2.3095,-2.3095,-2.3095,-2.3095,-2.3095,-2.3095,-2.3095,-2.3095,-2.3095,-2.3095,-2.3095,-2.3095,-2.3095,-2.3095,-2.3095,-2.3065,-2.3035,-2.3108,-2.2914,-2.2292,-2.1846,-2.169,-2.0846,-1.9911,-1.9233,-1.8854,-1.8529,-1.8236,-1.8008,-1.8008,-1.8008,-1.7832,-1.7656,-1.7373,-1.721,-1.6904,-1.6689,-1.6521,-1.6463,-1.6356,-1.6094,-1.5771,-1.5566,-1.5449,-1.542,-1.542,-1.542,-1.542,-1.542,-1.542,-1.454,-1.3243,-1.2879,-1.2512,-1.1779,-1.1052,-1.0713,-1.0586,-1.0586,-1.0586,-1.0586,-1.0586,-1.0579,-1.0579,-1.0566,-1.0559,-1.0479,-1.0388,-1.0318,-1.0134,-1.0033,-0.9933,-0.9822,-0.9816,-0.9796,-0.9626,-0.9599,-0.9459,-0.9232,-0.9124,-0.9064,-0.8964,-0.8871,-0.8778,-0.8778,-0.8778,-0.8725,-0.854,-0.802,-0.6861,-0.5876,-0.5148,-0.4691,-0.4643,-0.4634,-0.4653,-0.4677,-0.4697,-0.4785,-0.4857,-0.4837,-0.486,-0.4931,-0.4938,-0.4827]},{"header":{"parameterUnit":"m.s-1","parameterCategory":1,"la1":31.0,"la2":29.5877,"lo1":-88.7671,"lo2":-86.6584,"dy":0.0162,"dx":0.0185,"nx":115,"ny":88,"refTime":"2026-03-25T00:00:00:Z","depth":0,"parameterNumber":3,"parameterNumberName":"V-component_of_WINDS"},"data":[0.0,0.0,0.0,0.0,0.0,0.0,0.0,0.0,0.0,0.0,0.0,0.0,0.0,0.0,0.0,0.0,0.0,0.0,0.0,0.0,0.0,0.0,0.0,0.0,0.0,0.0,0.0,0.0,0.0,0.0,0.0,0.0,0.0,0.0,0.0,0.0,0.0,0.0,0.0,0.0,0.0,0.0,0.0,0.0,0.0,0.0,0.0,0.0,0.0,0.0,0.0,0.0,0.0,0.0,0.0,0.0,0.0,0.0,0.0,0.0,0.0,0.0,0.0,0.0,0.0,0.0,0.0,0.0,0.0,0.0,0.0,0.0,0.0,0.0,0.0,0.0,0.0,0.0,0.0,0.0,0.0,0.0,0.0,0.0,0.0,0.0,0.0,0.0,0.0,0.0,0.0,0.0,0.0,0.0,0.0,0.0,0.0,0.0,0.0,0.0,0.0,0.0,0.0,0.0,0.0,0.0,0.0,0.0,0.0,0.0,0.0,0.0,0.0,0.0,0.0,0.0,0.0,0.0,0.0,0.0,0.0,0.0,0.0,0.0,0.0,0.0,0.0,0.0,0.0,0.0,0.0,0.0,0.0,0.0,0.0,0.0,0.0,0.0,0.0,0.0,0.0,0.0,0.0,0.0,0.0,0.0,0.0,0.0,0.0,0.0,0.0,0.0,0.0,0.0,0.0,0.0,0.0,0.0,0.0,0.0,0.0,0.0,0.0,0.0,0.0,0.0,0.0,0.0,0.0,0.0,0.0,0.0,0.0,0.0,0.0,0.0,0.0,0.0,0.0,0.0,0.0,0.0,0.0,0.0,0.0,0.0,0.0,0.0,0.0,0.0,0.0,0.0,0.0,0.0,0.0,0.0,0.0,0.0,0.0,0.0,0.0,0.0,0.0,0.0,0.0,0.0,0.0,0.0,0.0,0.0,0.0,0.0,0.0,0.0,0.0,0.0,0.0,0.0,0.0,0.0,0.0,0.0,0.0,0.0,0.0,0.0,0.0,0.0,0.0,0.0,0.0,0.0,0.0,0.0,0.0,0.0,0.0,0.0,0.0,0.0,0.0,0.0,0.0,0.0,0.0,0.0,0.0,0.0,0.0,0.0,0.0,0.0,0.0,0.0,0.0,0.0,0.0,0.0,0.0,0.0,0.0,0.0,0.0,0.0,0.0,0.0,0.0,0.0,0.0,0.0,0.0,0.0,0.0,0.0,0.0,0.0,0.0,0.0,0.0,0.0,0.0,0.0,0.0,0.0,0.0,0.0,0.0,0.0,0.0,0.0,0.0,0.0,0.0,0.0,0.0,0.0,0.0,0.0,0.0,0.0,0.0,0.0,0.0,0.0,0.0,0.0,0.0,0.0,0.0,0.0,0.0,0.0,0.0,0.0,0.0,0.0,0.0,0.0,0.0,0.0,0.0,0.0,0.0,0.0,0.0,0.0,0.0,0.0,0.0,0.0,0.0,0.0,0.0,0.0,0.0,0.0,0.0,0.0,0.0,0.0,0.0,0.0,0.0,0.0,0.0,0.0,0.0,0.0,0.0,0.0,0.0,0.0,0.0,0.0,0.0,0.0,0.0,0.0,0.0,0.0,0.0,0.0,0.0,0.0,0.0,0.0,0.0,0.0,0.0,0.0,0.0,0.0,0.0,0.0,0.0,0.0,0.0,0.0,0.0,0.0,0.0,0.0,0.0,0.0,0.0,0.0,0.0,0.0,0.0,0.0,0.0,0.0,0.0,0.0,0.0,0.0,0.0,0.0,0.0,0.0,0.0,0.0,0.0,0.0,0.0,0.0,0.0,0.0,0.0,0.0,0.0,0.0,0.0,0.0,0.0,0.0,0.0,0.0,0.0,0.0,0.0,0.0,0.0,0.0,0.0,0.0,0.0,0.0,0.0,0.0,0.0,0.0,0.0,0.0,0.0,0.0,0.0,0.0,0.0,0.0,0.0,0.0,0.0,0.0,0.0,0.0,0.0,0.0,0.0,0.0,0.0,0.0,0.0,0.0,0.0,0.0,0.0,0.0,0.0,0.0,0.0,0.0,0.0,0.0,0.0,0.0,0.0,0.0,0.0,0.0,0.0,0.0,0.0,0.0,0.0,0.0,0.0,0.0,0.0,0.0,0.0,0.0,0.0,0.0,0.0,0.0,0.0,0.0,0.0,0.0,0.0,0.0,0.0,0.0,0.0,0.0,0.0,0.0,0.0,0.0,0.0,0.0,0.0,0.0,0.0,0.0,0.0,0.0,0.0,0.0,0.0,0.0,0.0,0.0,0.0,0.0,0.0,0.0,0.0,0.0,0.0,0.0,0.0,0.0,0.0,0.0,0.0,0.0,0.0,0.0,0.0,0.0,0.0,0.0,0.0,0.0,0.0,0.0,0.0,0.0,0.0,0.0,0.0,0.0,0.0,0.0,0.0,0.0,0.0,0.0,0.0,0.0,0.0,0.0,0.0,0.0,0.0,0.0,0.0,0.0,0.0,0.0,0.0,0.0,0.0,0.0,0.0,0.0,0.0,0.0,0.0,0.0,0.0,0.0,0.0,0.0,0.0,0.0,0.0,0.0,0.0,0.0,0.0,0.0,0.0,0.0,0.0,0.0,0.0,0.0,0.0,0.0,0.0,0.0,0.0,0.0,0.0,0.0,0.0,0.0,0.0,0.0,0.0,0.0,0.0,0.0,0.0,0.0,0.0,0.0,0.0,0.0,0.0,0.0,0.0,0.0,0.0,0.0,0.0,0.0,0.0,0.0,0.0,0.0,0.0,0.0,0.0,0.0,0.0,0.0,0.0,0.0,0.0,0.0,0.0,0.0,0.0,0.0,0.0,0.0,0.0,0.0,0.0,0.0,0.0,0.0,0.0,0.0,0.0,0.0,0.0,0.0,0.0,0.0,0.0,0.0,0.0,0.0,0.0,0.0,0.0,0.0,0.0,0.0,0.0,0.0,0.0,0.0,0.0,0.0,0.0,0.0,0.0,0.0,0.0,0.0,0.0,0.0,0.0,0.0,0.0,0.0,0.0,0.0,0.0,0.0,0.0,0.0,0.0,0.0,0.0,0.0,0.0,0.0,0.0,0.0,0.0,0.0,0.0,0.0,0.0,0.0,0.0,0.0,0.0,0.0,0.0,0.0,0.0,0.0,0.0,0.0,0.0,0.0,0.0,0.0,0.0,0.0,0.0,0.0,0.0,0.0,0.0,0.0,0.0,0.0,0.0,0.0,0.0,0.0,0.0,0.0,0.0,0.0,0.0,0.0,0.0,0.0,0.0,0.0,0.0,0.0,0.0,0.0,0.0,0.0,0.0,0.0,0.0,0.0,0.0,0.0,0.0,0.0,0.0,0.0,0.0,0.0,0.0,0.0,0.0,0.0,0.0,0.0,0.0,0.0,0.0,0.0,0.0,0.0,0.0,0.0,0.0,0.0,0.0,0.0,0.0,0.0,0.0,0.0,0.0,0.0,0.0,0.0,0.0,0.0,0.0,0.0,0.0,0.0,0.0,0.0,0.0,0.0,0.0,0.0,0.0,0.0,0.0,0.0,0.0,0.0,0.0,0.0,0.0,0.0,0.0,0.0,0.0,0.0,0.0,0.0,0.0,0.0,0.0,0.0,0.0,0.0,0.0,0.0,0.0,0.0,0.0,0.0,0.0,0.0,0.0,0.0,0.0,0.0,0.0,0.0,0.0,0.0,0.0,0.0,0.0,0.0,0.0,0.0,0.0,0.0,0.0,0.0,0.0,0.0,0.0,0.0,0.0,0.0,0.0,0.0,0.0,0.0,0.0,0.0,0.0,0.0,0.0,0.0,0.0,0.0,0.0,0.0,0.0,0.0,0.0,0.0,0.0,0.0,0.0,0.0,0.0,0.0,0.0,0.0,0.0,0.0,0.0,0.0,0.0,0.0,0.0,0.0,0.0,0.0,0.0,0.0,0.0,0.0,0.0,0.0,0.0,0.0,0.0,0.0,0.0,0.0,0.0,0.0,0.0,0.0,0.0,0.0,0.0,0.0,0.0,0.0,0.0,0.0,0.0,0.0,0.0,0.0,0.0,0.0,0.0,0.0,0.0,0.0,0.0,0.0,0.0,0.0,0.0,0.0,0.0,0.0,0.0,0.0,0.0,0.0,0.0,0.0,0.0,0.0,0.0,0.0,0.0,0.0,0.0,0.0,0.0,0.0,0.0,0.0,0.0,0.0,0.0,0.0,0.0,0.0,0.0,0.0,0.0,0.0,0.0,0.0,0.0,0.0,0.0,0.0,0.0,0.0,0.0,0.0,0.3276,0.0,0.0,0.0,0.0,0.0,0.0,0.0,0.0,0.0,0.0,0.0,0.0,0.0,0.0,0.0,0.0,0.0,0.0,0.0,0.0,0.0,0.0,0.0,0.0,0.0,0.0,0.0,0.0,0.0,0.0,0.0,0.0,0.0,0.0,0.0,0.0,0.0,0.0,0.0,0.0,0.0,0.0,0.0,0.0,0.0,0.0,0.0,0.0,0.0,0.0,0.0,0.0,0.0,0.0,0.0,0.0,0.0,0.0,0.0,0.0,0.0,0.0,0.0,0.0,0.0,0.0,0.0,0.0,0.0,0.0,0.0,0.0,0.0,0.0,0.0,0.0,0.0,0.0,0.0,0.0,0.0,0.0,0.0,0.0,0.0,0.0,0.0,0.0,0.0,0.0,0.0,0.0,0.0,0.0,0.0,0.0,0.0,0.0,0.0,0.0,0.0,0.0,0.0,0.0,0.0,0.0,0.0,0.0,0.0,0.0,0.3078,0.3207,0.328,0.334,0.3421,0.0,0.0,0.0,0.0,0.0,0.0,0.0,0.0,0.0,0.0,0.0,0.0,0.0,0.0,0.0,0.0,0.0,0.0,0.0,0.0,0.0,0.0,0.0,0.0,0.0,0.0,0.0,0.0,0.0,0.0,0.0,0.0,0.0,0.0,0.0,0.0,0.0,0.0,0.0,0.0,0.0,0.0,0.0,0.0,0.0,0.0,0.0,0.0,0.0,0.0,0.0,0.0,0.0,0.0,0.0,0.0,0.0,0.0,0.0,0.0,0.0,0.0,0.0,0.0,0.0,0.0,0.0,0.0,0.0,0.0,0.0,0.0,0.0,0.0,0.0,0.0,0.0,0.0,0.0,0.0,0.0,0.0,0.0,0.0,0.0,0.0,0.0,0.0,0.0,0.0,0.0,0.0,0.0,0.0,0.0,0.0,0.0,0.0,0.0,0.0,0.0,0.0,0.0,0.0,0.0,0.0,0.0,0.0,0.0,0.0,0.0,0.0,0.3694,0.3742,0.3799,0.0,0.0,0.0,0.0,0.0,0.0,0.0,0.0,0.0,0.0,0.0,0.0,0.0,0.0,0.0,0.0,0.0,0.0,0.0,0.0,0.0,0.0,0.0,0.0,0.0,0.0,0.0,0.0,0.0,0.0,0.0,0.0,0.0,0.0,0.0,0.0,0.0,0.0,0.0,0.0,0.0,0.0,0.0,0.0,0.0,0.0,0.0,0.0,0.0,0.0,0.0,0.0,0.0,0.0,0.0,0.0,0.0,0.0,0.0,0.0,0.0,0.0,0.0,0.0,0.0,0.0,0.0,0.0,0.0,0.0,0.0,0.0,0.0,0.0,0.0,0.0,0.0,0.0,0.0,0.0,0.0,0.0,0.0,0.0,0.0,0.0,0.0,0.0,0.0,0.0,0.0,0.0,0.0,0.0,0.0,0.0,0.0,0.0,0.0,0.0,0.0,0.0,0.0,0.0,0.0,0.0,0.0,0.0,0.0,0.0,0.386,0.4457,0.45,0.0,0.4628,0.0,0.0,0.0,0.0,0.0,0.0,0.0,0.0,0.0,0.0,0.0,0.0,0.0,0.0,0.0,0.0,0.0,0.0,0.0,0.0,0.0,0.0,0.0,0.0,0.0,0.0,0.0,0.0,0.0,0.0,0.0,0.0,0.0,0.0,0.0,0.0,0.0,0.0,0.0,0.0,0.0,0.0,0.0,0.0,0.0,0.0,0.0,0.0,0.0,0.0,0.0,0.0,0.0,0.0,0.0,0.0,0.0,0.0,0.0,0.0,0.0,0.0,0.0,0.0,0.0,0.0,0.0,0.0,0.0,0.0,0.0,0.0,0.0,0.0,0.0,0.0,0.0,0.0,0.0,0.0,0.0,0.0,0.0,0.0,0.0,0.0,0.0,0.0,0.0,0.0,0.0,0.0,0.0,0.0,0.0,0.0,0.0,0.0,0.0,0.0,0.0,0.0,0.0,0.0,0.0,0.0,0.0,0.0,0.0,0.0,0.0,0.4603,0.4704,0.4836,0.0,0.0,0.0,0.0,0.0,0.0,0.0,0.0,0.0,0.0,0.0,0.0,0.0,0.0,0.0,0.0,0.0,0.0,0.0,0.0,0.0,0.0,0.0,0.0,0.0,0.0,0.0,0.0,0.0,0.0,0.0,0.0,0.0,0.0,0.0,0.0,0.0,0.0,0.0,0.0,0.0,0.0,0.0,0.0,0.0,0.0,0.0,0.0,0.0,0.0,0.0,0.0,0.0,0.0,0.0,0.0,0.0,0.0,0.0,0.0,0.0,0.0,0.0,0.0,0.0,0.0,0.0,0.0,0.0,0.0,0.0,0.0,0.0,0.0,0.0,0.0,0.0,0.0,0.0,0.0,0.0,0.0,0.0,0.0,0.0,0.0,0.0,0.0,0.0,0.0,0.0,0.0,0.0,0.0,0.0,0.0,0.0,0.0,0.0,0.0,0.0,0.0,0.0,0.0,0.0,0.0,0.0,0.0,0.0,0.0,0.457,0.0,0.4987,0.5204,0.526,0.5155,0.0,0.0,0.0,0.0,0.0,0.0,0.0,0.0,0.0,0.0,0.0,0.0,0.0,0.0,0.0,0.0,0.0,0.0,0.0,0.0,0.0,0.0,0.0,0.0,0.0,0.0,0.0,0.0,0.0,0.0,0.0,0.0,0.0,0.0,0.0,0.0,0.0,0.0,0.0,0.0,0.0,0.0,0.0,0.0,0.0,0.0,0.0,0.0,0.0,0.0,0.0,0.0,0.0,0.0,0.0,0.0,0.0,0.0,0.0,0.0,0.0,0.0,0.0,0.0,0.0,0.0,0.0,0.0,0.0,0.0,0.0,0.0,0.0,0.0,0.0,0.0,0.0,0.0,0.0,0.0,0.0,0.0,0.0,0.0,0.0,0.0,0.0,0.0,0.0,0.0,0.0,0.0,0.0,0.0,0.0,0.0,0.0,0.0,0.0,0.0,0.0,0.0,0.0,0.0,0.0,0.0,0.0,0.0,0.0,0.5276,0.523,0.5915,0.6195,0.6004,0.0,0.0,0.0,0.0,0.0,0.0,0.0,0.0,0.0,0.0,0.0,0.0,0.0,0.0,0.0,0.0,0.0,0.0,0.0,0.0,0.0,0.0,0.0,0.0,0.0,0.0,0.0,0.0,0.0,0.0,0.0,0.0,0.0,0.0,0.0,0.0,0.0,0.0,0.0,0.0,0.0,0.0,0.0,0.0,0.0,0.0,0.0,0.0,0.0,0.0,0.0,0.0,0.0,0.0,0.0,0.0,0.0,0.0,0.0,0.0,0.0,0.0,0.0,0.0,0.0,0.0,0.0,0.0,0.0,0.0,0.0,0.0,0.0,0.0,0.0,0.0,0.0,0.0,0.0,0.0,0.0,0.0,0.0,0.0,0.0,0.0,0.0,0.0,0.0,0.0,0.0,0.0,0.0,0.0,0.0,0.0,0.0,0.0,0.0,0.0,0.0,0.0,0.0,0.0,0.0,0.0,0.0,0.0,0.0,0.487,0.5027,0.5653,0.6751,0.6096,0.5802,0.0,0.0,0.0,0.0,0.0,0.0,0.0,0.0,0.0,0.0,0.0,0.0,0.0,0.0,0.0,0.0,0.0,0.0,0.0,0.0,0.0,0.0,0.0,0.0,0.0,0.0,0.0,0.0,0.0,0.0,0.0,0.0,0.0,0.0,0.0,0.0,0.0,0.0,0.0,0.0,0.0,0.0,0.0,0.0,0.0,0.0,0.0,0.0,0.0,0.0,0.0,0.0,0.0,0.0,0.0,0.0,0.0,0.0,0.0,0.0,0.0,0.0,0.0,0.0,0.0,0.0,0.0,0.0,0.0,0.0,0.0,0.0,0.0,0.0,0.0,0.0,0.0,0.0,0.0,0.0,0.0,0.0,0.0,0.0,0.0,0.0,0.0,0.0,0.0,0.0,0.0,0.0,0.0,0.0,0.0,0.0,0.0,0.0,0.0,0.0,0.0,0.0,0.0,0.0,0.0,0.0,0.0,0.0,0.0,0.4765,0.0,0.6323,0.0,0.616,0.5733,0.0,0.0,0.0,0.0,0.0,0.0,0.0,0.0,0.0,0.0,0.0,0.0,0.0,0.0,0.0,0.0,0.0,0.0,0.0,0.0,0.0,0.0,0.0,0.0,0.0,0.0,0.0,0.0,0.0,0.0,0.0,0.0,0.0,0.0,0.0,0.0,0.0,0.0,0.0,0.0,0.0,0.0,0.0,0.0,0.0,0.0,0.0,0.0,0.0,0.0,0.0,0.0,0.0,0.0,0.0,0.0,0.0,0.0,0.0,0.0,0.0,0.0,0.0,0.0,0.0,0.0,0.0,0.0,0.0,0.0,0.0,0.0,0.0,0.0,0.0,0.0,0.0,0.0,0.0,0.0,0.0,0.0,0.0,0.0,0.0,0.0,0.0,0.0,0.0,0.0,0.0,0.0,0.0,0.0,0.0,0.0,0.0,0.0,0.0,0.0,0.0,0.0,0.0,0.0,0.0,0.0,0.0,0.0,0.4701,0.5846,0.7001,0.7147,0.6285,0.6437,0.593,0.0,0.0,0.0,0.0,0.0,0.0,0.0,0.0,0.0,0.0,0.0,0.0,0.0,0.0,0.0,0.0,0.0,0.0,0.0,0.0,0.0,0.0,0.0,0.0,0.0,0.0,0.0,0.0,0.0,0.0,0.0,0.0,0.0,0.0,0.0,0.0,0.0,0.0,0.0,0.0,0.0,0.0,0.0,0.0,0.0,0.0,0.0,0.0,0.0,0.0,0.0,0.0,0.0,0.0,0.0,0.0,0.0,0.0,0.0,0.0,0.0,0.0,0.0,0.0,0.0,0.0,0.0,0.0,0.0,0.0,0.0,0.0,0.0,0.0,0.0,0.0,0.0,0.0,0.0,0.0,0.0,0.0,0.0,0.0,0.0,0.0,0.0,0.0,0.0,0.0,0.0,0.0,0.0,0.0,0.0,0.0,0.0,0.0,0.0,0.0,0.0,0.0,0.0,0.0,0.0,0.0,0.0,0.0,0.0,0.5443,0.6317,0.6903,0.7055,0.6328,0.5952,0.0,0.0,0.0,0.0,0.0,0.0,0.0,0.0,0.0,0.0,0.0,0.0,0.0,0.0,0.0,0.0,0.0,0.0,0.0,0.0,0.0,0.0,0.0,0.0,0.0,0.0,0.0,0.0,0.0,0.0,0.0,0.0,0.0,0.0,0.0,0.0,0.0,0.0,0.0,0.0,0.0,0.0,0.0,0.0,0.0,0.0,0.0,0.0,0.0,0.0,0.0,0.0,0.0,0.0,0.0,0.0,0.0,0.0,0.0,0.0,0.0,0.0,0.0,0.0,0.0,0.0,0.0,0.0,0.0,0.0,0.0,0.0,0.0,0.0,0.0,0.0,0.0,0.0,0.0,0.0,0.0,0.0,0.0,0.0,0.0,0.0,0.0,0.0,0.0,0.0,0.0,0.0,0.0,0.0,0.0,0.0,0.0,0.0,0.0,0.0,0.0,0.0,0.0,0.0,0.0,0.0,0.0,0.0,0.0,0.5748,0.6332,0.6911,0.7416,0.6464,0.6074,0.6258,0.0,0.0,0.0,0.0,0.0,0.0,0.0,0.0,0.0,0.0,0.0,0.0,0.0,0.0,0.0,0.0,0.0,0.0,0.0,0.0,0.0,0.0,0.0,0.0,0.0,0.0,0.0,0.0,0.0,0.0,0.0,0.0,0.0,0.0,0.0,0.0,0.0,0.0,0.0,0.0,0.0,0.0,0.0,0.0,0.0,0.0,0.0,0.0,0.0,0.0,0.0,0.0,0.0,0.0,0.0,0.0,0.0,0.0,0.0,0.0,0.0,0.0,0.0,0.0,0.0,0.0,0.0,0.0,0.0,0.0,0.0,0.0,0.0,0.0,0.0,0.0,0.0,0.0,0.0,0.0,0.0,0.0,0.0,0.0,0.0,0.0,0.0,0.0,0.0,0.0,0.0,0.0,0.0,0.0,0.0,0.0,0.0,0.0,0.0,0.0,0.0,0.0,0.0,0.0,0.0,0.0,0.0,0.0,0.657,0.6894,0.714,0.7293,0.6885,0.6299,0.0,0.0,0.0,0.0,0.0,0.0,0.0,0.0,0.0,0.0,0.0,0.0,0.0,0.0,0.0,0.0,0.0,0.0,0.0,0.0,0.0,0.0,0.0,0.0,0.0,0.0,0.0,0.0,0.0,0.0,0.0,0.0,0.0,0.0,0.0,0.0,0.0,0.0,0.0,0.0,0.0,0.0,0.0,0.0,0.0,0.0,0.0,0.0,0.0,0.0,0.0,0.0,0.0,0.0,0.0,0.0,0.0,0.0,0.0,0.0,0.0,0.0,0.0,0.0,0.0,0.0,0.0,0.0,0.0,0.0,0.0,0.0,0.0,0.0,0.0,0.0,0.0,0.0,0.0,0.0,0.0,0.0,0.0,0.0,0.0,0.0,0.0,0.0,0.0,0.0,0.0,0.0,0.0,0.0,0.0,0.0,0.0,0.0,0.0,0.0,0.0,0.0,0.0,0.0,0.0,0.0,0.0,0.0,0.0,0.6442,0.6636,0.6878,0.7216,0.7254,0.6697,0.0,0.0,0.0,0.0,0.0,0.0,0.0,0.0,0.0,0.0,0.0,0.0,0.0,0.0,0.0,0.0,0.0,0.0,0.0,0.0,0.0,0.0,0.0,0.0,0.0,0.0,0.0,0.0,0.0,0.0,0.0,0.0,0.0,0.0,0.0,0.0,0.0,0.0,0.0,0.0,0.0,0.0,0.0,0.0,0.0,0.0,0.0,0.0,0.0,0.0,0.0,0.0,0.0,0.0,0.0,0.0,0.0,0.0,0.0,0.0,0.0,0.0,0.0,0.0,0.0,0.0,0.0,0.0,0.0,0.0,0.0,0.0,0.0,0.0,0.0,0.0,0.0,0.0,0.0,0.0,0.0,0.0,0.0,0.0,0.0,0.0,0.0,0.0,0.0,0.0,0.0,0.0,0.0,0.0,0.0,0.0,0.0,0.0,0.0,0.0,0.0,0.0,0.0,0.0,0.0,0.0,0.0,0.0,0.6399,0.6741,0.6928,0.7081,0.7197,0.7376,0.6979,0.0,0.0,0.0,0.0,0.0,0.0,0.0,0.0,0.0,0.0,0.0,0.0,0.0,0.0,0.0,0.0,0.0,0.0,0.0,0.0,0.0,0.0,0.0,0.0,0.0,0.0,0.0,0.0,0.0,0.0,0.0,0.0,0.0,0.0,0.0,0.0,0.0,0.0,0.0,0.0,0.0,0.0,0.0,0.0,0.0,0.0,0.0,0.0,0.0,0.0,0.0,0.0,0.0,0.0,0.0,0.0,0.0,0.0,0.0,0.0,0.0,0.0,0.0,0.0,0.0,0.0,0.0,0.0,0.0,0.0,0.0,0.0,0.0,0.0,0.0,0.0,0.0,0.0,0.0,0.0,0.0,0.0,0.0,0.0,0.0,0.0,0.0,0.0,0.0,0.0,0.0,0.0,0.0,0.0,0.0,0.0,0.0,0.0,0.0,0.0,0.0,0.0,0.0,0.0,0.0,0.0,0.0,0.0,0.651,0.7099,0.7456,0.7493,0.7228,0.74,0.7216,0.0,0.0,0.0,0.0,0.0,0.0,0.0,0.0,0.0,0.0,0.0,0.0,0.0,0.0,0.0,0.0,0.0,0.0,0.0,0.0,0.0,0.0,0.0,0.0,0.0,0.0,0.0,0.0,0.0,0.0,0.0,0.0,0.0,0.0,0.0,0.0,0.0,0.0,0.0,0.0,0.0,0.0,0.0,0.0,0.0,0.0,0.0,0.0,0.0,0.0,0.0,0.0,0.0,0.0,0.0,0.0,0.0,0.0,0.0,0.0,0.0,0.0,0.0,0.0,0.0,0.0,0.0,0.0,0.0,0.0,0.0,0.0,0.0,0.0,0.0,0.0,0.0,0.0,0.0,0.0,0.0,0.0,0.0,0.0,0.0,0.0,0.0,0.0,0.0,0.0,0.0,0.0,0.0,0.0,0.0,0.0,0.0,0.0,0.0,0.0,0.0,0.0,0.0,0.0,0.0,0.0,0.0,0.0,0.6841,0.6589,0.7388,0.7646,0.7212,0.7849,0.768,0.0,0.0,0.0,0.0,0.0,0.0,0.0,0.0,0.0,0.0,0.0,0.0,0.0,0.0,0.0,0.0,0.0,0.0,0.0,0.0,0.0,0.0,0.0,0.0,0.0,0.0,0.0,0.0,0.0,0.0,0.0,0.0,0.0,0.0,0.0,0.0,0.0,0.0,0.0,0.0,0.0,0.0,0.0,0.0,0.0,0.0,0.0,0.0,0.5029,0.0,0.0,0.0,0.0,0.0,0.0,0.0,0.0,0.0,0.0,0.0,0.0,0.0,0.0,0.0,0.0,0.0,0.0,0.0,0.0,0.0,0.0,0.0,0.0,0.0,0.0,0.0,0.0,0.0,0.0,0.0,0.0,0.0,0.0,0.0,0.0,0.0,0.0,0.0,0.0,0.0,0.0,0.0,0.0,0.0,0.0,0.0,0.0,0.0,0.0,0.0,0.0,0.0,0.0,0.0,0.0,0.0,0.0,0.0,0.7073,0.6825,0.7561,0.7918,0.7778,0.789,0.7748,0.0,0.0,0.0,0.0,0.0,0.0,0.0,0.0,0.0,0.0,0.0,0.0,0.0,0.0,0.0,0.0,0.0,0.0,0.0,0.0,0.0,0.0,0.0,0.0,0.0,0.0,0.0,0.0,0.0,0.0,0.0,0.0,0.0,0.0,0.0,0.0,0.0,0.0,0.0,0.0,0.0,0.0,0.0,0.0,0.0,0.0,0.0,0.0,0.0,0.0,0.0,0.0,0.0,0.0,0.0,0.0,0.0,0.0,0.0,0.0,0.0,0.0,0.0,0.0,0.0,0.0,0.0,0.0,0.0,0.0,0.0,0.0,0.0,0.0,0.0,0.0,0.0,0.0,0.0,0.0,0.0,0.0,0.0,0.0,0.0,0.0,0.0,0.0,0.0,0.0,0.0,0.0,0.0,0.0,0.0,0.0,0.0,0.0,0.0,0.0,0.0,0.0,0.0,0.0,0.0,0.0,0.0,0.6536,0.7209,0.7233,0.7788,0.8207,0.8371,0.7839,0.7724,0.8071,0.0,0.0,0.0,0.0,0.0,0.0,0.0,0.0,0.0,0.0,0.0,0.0,0.0,0.0,0.0,0.0,0.0,0.0,0.0,0.0,0.0,0.0,0.0,0.0,0.0,0.0,0.0,0.0,0.0,0.0,0.0,0.0,0.0,0.0,0.0,0.0,0.0,0.0,0.4895,0.5316,0.0,0.0,0.0,0.0,0.0,0.0,0.0,0.0,0.4928,0.0,0.0,0.0,0.0,0.0,0.0,0.0,0.0,0.0,0.0,0.0,0.0,0.0,0.0,0.0,0.0,0.0,0.0,0.0,0.0,0.0,0.0,0.0,0.0,0.0,0.0,0.0,0.0,0.0,0.0,0.0,0.0,0.0,0.0,0.0,0.0,0.0,0.0,0.0,0.0,0.0,0.0,0.0,0.0,0.0,0.0,0.0,0.0,0.0,0.0,0.0,0.0,0.0,0.0,0.0,0.0,0.634,0.69,0.7209,0.7225,0.7788,0.8207,0.8377,0.7923,0.8107,0.8928,0.0,0.0,0.0,0.0,0.0,0.0,0.0,0.0,0.0,0.0,0.0,0.0,0.0,0.0,0.0,0.0,0.0,0.0,0.0,0.0,0.0,0.0,0.0,0.0,0.0,0.0,0.0,0.0,0.0,0.0,0.0,0.0,0.0,0.0,0.0,0.0,0.0,0.0,0.0,0.6308,0.6656,0.0,0.0,0.0,0.0,0.0,0.0,0.0,0.0,0.4006,0.0,0.0,0.0,0.0,0.0,0.0,0.0,0.0,0.0,0.0,0.0,0.0,0.0,0.0,0.0,0.0,0.0,0.0,0.0,0.0,0.0,0.0,0.0,0.0,0.0,0.0,0.0,0.0,0.0,0.0,0.0,0.0,0.0,0.0,0.0,0.0,0.0,0.0,0.0,0.0,0.0,0.0,0.0,0.0,0.0,0.0,0.0,0.0,0.0,0.0,0.0,0.0,0.0,0.0,0.0,0.6135,0.6573,0.6907,0.7213,0.7887,0.8315,0.8383,0.8047,0.8308,0.0,0.0,0.0,0.0,0.0,0.0,0.0,0.0,0.0,0.0,0.0,0.0,0.0,0.0,0.0,0.0,0.0,0.0,0.0,0.0,0.0,0.0,0.0,0.0,0.0,0.0,0.0,0.0,0.0,0.0,0.0,0.0,0.0,0.0,0.0,0.0,0.0,0.0,0.0,0.0,0.604,0.5539,0.588,0.0,0.0,0.0,0.0,0.0,0.0,0.4651,0.4677,0.0,0.0,0.0,0.0,0.0,0.0,0.0,0.0,0.0,0.0,0.0,0.0,0.0,0.0,0.0,0.0,0.0,0.0,0.0,0.0,0.0,0.0,0.0,0.0,0.0,0.0,0.0,0.0,0.0,0.0,0.0,0.0,0.0,0.0,0.0,0.0,0.0,0.0,0.0,0.0,0.0,0.0,0.0,0.0,0.0,0.0,0.0,0.0,0.0,0.0,0.0,0.0,0.0,0.0,0.0,0.5928,0.6367,0.6748,0.7213,0.7979,0.8393,0.839,0.8304,0.8584,0.0,0.0,0.0,0.0,0.0,0.0,0.0,0.0,0.0,0.0,0.0,0.0,0.0,0.0,0.0,0.0,0.0,0.0,0.0,0.0,0.0,0.0,0.0,0.0,0.0,0.0,0.0,0.0,0.0,0.0,0.0,0.0,0.0,0.0,0.0,0.0,0.0,0.0,0.0,0.0,0.0,0.4772,0.6172,0.5919,0.0,0.0,0.0,0.0,0.5333,0.5203,0.0,0.0,0.0,0.0,0.0,0.0,0.0,0.0,0.0,0.0,0.0,0.0,0.0,0.0,0.0,0.0,0.0,0.0,0.0,0.0,0.0,0.0,0.0,0.0,0.0,0.0,0.0,0.0,0.0,0.0,0.0,0.0,0.0,0.0,0.0,0.0,0.0,0.0,0.0,0.0,0.0,0.0,0.0,0.0,0.0,0.0,0.0,0.0,0.0,0.0,0.0,0.0,0.0,0.0,0.0,0.0,0.6466,0.6892,0.7142,0.7234,0.8001,0.8393,0.8399,0.8886,0.9209,0.0,0.0,0.0,0.0,0.0,0.0,0.0,0.0,0.0,0.0,0.0,0.0,0.0,0.0,0.0,0.0,0.0,0.0,0.0,0.0,0.0,0.0,0.0,0.0,0.0,0.0,0.0,0.0,0.0,0.0,0.0,0.0,0.0,0.0,0.0,0.0,0.0,0.0,0.0,0.0,0.0,0.666,0.5463,0.6398,0.7064,0.0,0.0,0.0,0.6116,0.5617,0.0,0.0,0.0,0.0,0.0,0.0,0.0,0.0,0.0,0.0,0.0,0.0,0.0,0.0,0.0,0.0,0.0,0.0,0.0,0.0,0.0,0.0,0.0,0.0,0.0,0.0,0.0,0.0,0.0,0.0,0.0,0.0,0.0,0.0,0.0,0.0,0.0,0.0,0.0,0.0,0.0,0.0,0.0,0.0,0.0,0.0,0.0,0.0,0.0,0.0,0.0,0.0,0.0,0.0,0.0,0.5185,0.6541,0.6699,0.6908,0.7205,0.7881,0.8286,0.8393,0.8874,0.9196,0.0,0.0,0.0,0.0,0.0,0.0,0.0,0.0,0.0,0.0,0.0,0.0,0.0,0.0,0.0,0.0,0.0,0.0,0.0,0.0,0.0,0.0,0.0,0.0,0.0,0.0,0.0,0.0,0.0,0.0,0.0,0.0,0.0,0.0,0.0,0.0,0.0,0.0,0.0,0.0,0.0,0.0,0.689,0.6916,0.0,0.0,0.0,0.6105,0.6998,0.0,0.0,0.0,0.0,0.0,0.0,0.0,0.0,0.0,0.0,0.0,0.0,0.0,0.0,0.0,0.0,0.0,0.0,0.0,0.0,0.0,0.0,0.0,0.0,0.0,0.0,0.0,0.0,0.0,0.0,0.0,0.0,0.0,0.0,0.0,0.0,0.0,0.0,0.0,0.0,0.0,0.0,0.0,0.0,0.0,0.0,0.0,0.0,0.0,0.0,0.0,0.0,0.0,0.0,0.0,0.0,0.0,0.6634,0.6696,0.6891,0.7311,0.7809,0.8207,0.8403,0.8588,0.0,0.0,0.0,0.0,0.0,0.0,0.0,0.0,0.0,0.0,0.0,0.0,0.0,0.0,0.0,0.0,0.0,0.0,0.0,0.0,0.0,0.0,0.0,0.0,0.0,0.0,0.0,0.0,0.0,0.0,0.0,0.0,0.0,0.0,0.0,0.0,0.0,0.0,0.0,0.0,0.0,0.0,0.5949,0.7367,0.708,0.7095,0.0,0.0,0.6885,0.73,0.611,0.5311,0.0,0.0,0.0,0.0,0.0,0.0,0.0,0.0,0.0,0.0,0.0,0.0,0.0,0.0,0.0,0.0,0.0,0.0,0.0,0.0,0.0,0.0,0.0,0.0,0.0,0.0,0.0,0.0,0.0,0.0,0.0,0.0,0.0,0.0,0.0,0.0,0.0,0.0,0.0,0.0,0.0,0.0,0.0,0.0,0.0,0.0,0.0,0.0,0.0,0.0,0.0,0.0,0.0,0.0,0.0,0.6855,0.7303,0.7524,0.7583,0.7924,0.8191,0.8393,0.8,0.8276,0.0,0.0,0.0,0.0,0.0,0.0,0.0,0.0,0.0,0.0,0.0,0.0,0.0,0.0,0.0,0.0,0.0,0.0,0.0,0.0,0.0,0.0,0.0,0.0,0.0,0.0,0.0,0.0,0.0,0.0,0.0,0.0,0.0,0.0,0.0,0.0,0.0,0.0,0.0,0.0,0.0,0.6068,0.5409,0.6632,0.7636,0.0,0.0,0.7353,0.6591,0.572,0.5136,0.5193,0.0,0.0,0.0,0.0,0.0,0.0,0.0,0.0,0.0,0.0,0.0,0.0,0.0,0.0,0.0,0.0,0.0,0.0,0.0,0.0,0.0,0.0,0.0,0.0,0.0,0.0,0.0,0.0,0.0,0.0,0.0,0.0,0.0,0.0,0.0,0.0,0.0,0.0,0.0,0.0,0.0,0.0,0.0,0.0,0.0,0.0,0.0,0.0,0.0,0.0,0.0,0.0,0.0,0.5882,0.6898,0.7368,0.759,0.759,0.7848,0.8114,0.8387,0.8288,0.8579,0.0,0.0,0.0,0.0,0.0,0.0,0.0,0.0,0.0,0.0,0.0,0.0,0.0,0.0,0.0,0.0,0.0,0.0,0.0,0.0,0.0,0.0,0.0,0.0,0.0,0.0,0.0,0.0,0.4297,0.5098,0.5098,0.0,0.0,0.0,0.0,0.0,0.0,0.0,0.0,0.0,0.0,0.6463,0.6621,0.6788,0.0,0.0,0.7695,0.7596,0.7245,0.6933,0.6699,0.6693,0.6709,0.0,0.0,0.0,0.0,0.0,0.0,0.0,0.0,0.0,0.0,0.0,0.0,0.0,0.0,0.0,0.0,0.0,0.0,0.0,0.0,0.0,0.0,0.0,0.0,0.0,0.0,0.0,0.0,0.0,0.0,0.0,0.0,0.0,0.0,0.0,0.0,0.0,0.0,0.0,0.0,0.0,0.0,0.0,0.0,0.0,0.0,0.0,0.0,0.0,0.0,0.0,0.0,0.6061,0.7088,0.7492,0.7687,0.7694,0.7819,0.8039,0.8387,0.8274,0.8426,0.0,0.0,0.0,0.0,0.0,0.0,0.0,0.0,0.0,0.0,0.0,0.0,0.0,0.0,0.0,0.0,0.0,0.0,0.0,0.0,0.0,0.0,0.0,0.0,0.0,0.0,0.0,0.0,0.4805,0.5098,0.5098,0.0,0.0,0.0,0.0,0.0,0.0,0.0,0.0,0.0,0.0,0.7072,0.7786,0.7473,0.7363,0.7891,0.8027,0.7988,0.7734,0.7695,0.7597,0.7359,0.0,0.0,0.0,0.0,0.0,0.0,0.0,0.0,0.0,0.0,0.0,0.0,0.0,0.0,0.0,0.0,0.0,0.0,0.0,0.0,0.0,0.0,0.0,0.0,0.0,0.0,0.0,0.0,0.0,0.0,0.0,0.0,0.0,0.0,0.0,0.0,0.0,0.0,0.0,0.0,0.0,0.0,0.0,0.0,0.0,0.0,0.0,0.0,0.0,0.0,0.0,0.0,0.0,0.0,0.7553,0.779,0.7892,0.7892,0.7899,0.8054,0.8374,0.7714,0.7556,0.8009,0.0,0.0,0.0,0.0,0.0,0.0,0.0,0.0,0.0,0.0,0.0,0.0,0.0,0.0,0.0,0.0,0.0,0.0,0.0,0.0,0.0,0.0,0.0,0.0,0.0,0.0,0.291,0.4141,0.5098,0.0,0.0,0.0,0.0,0.0,0.0,0.0,0.0,0.0,0.0,0.7658,0.7904,0.8476,0.877,0.8789,0.8594,0.8789,0.8672,0.7852,0.7734,0.7422,0.0,0.0,0.0,0.0,0.0,0.0,0.0,0.0,0.0,0.0,0.0,0.0,0.0,0.0,0.0,0.0,0.0,0.0,0.0,0.0,0.0,0.0,0.0,0.0,0.0,0.0,0.0,0.6303,0.5976,0.0,0.0,0.0,0.0,0.0,0.0,0.0,0.0,0.0,0.0,0.0,0.7821,0.791,0.0,0.0,0.0,0.0,0.0,0.0,0.0,0.0,0.0,0.0,0.0,0.0,0.6912,0.7569,0.7783,0.7906,0.7906,0.7906,0.8061,0.838,0.8163,0.7803,0.7283,0.0,0.0,0.0,0.0,0.0,0.0,0.0,0.0,0.0,0.0,0.0,0.0,0.0,0.0,0.0,0.0,0.0,0.0,0.0,0.0,0.0,0.0,0.0,0.0,0.0,0.4881,0.0,0.0,0.0,0.0,0.0,0.0,0.0,0.0,0.0,0.0,0.0,0.7156,0.6863,0.7642,0.8329,0.8554,0.8672,0.8711,0.0,0.0,0.0,0.0,0.0,0.0,0.0,0.0,0.0,0.0,0.0,0.0,0.0,0.0,0.8807,0.7113,0.6102,0.5606,0.5895,0.0,0.0,0.0,0.0,0.0,0.0,0.0,0.0,0.0,0.0,0.0,0.0,0.0,0.0,0.0,0.0,0.7253,0.0,0.0,0.0,0.0,0.0,0.0,0.0,0.0,0.8189,0.8488,0.8839,0.8931,0.9009,0.0,0.9258,0.8618,0.0,0.0,0.0,0.0,0.0,0.0,0.0,0.0,0.7507,0.8032,0.8422,0.8596,0.8589,0.8372,0.8406,0.8734,0.8375,0.79,0.7281,0.7423,0.7059,0.0,0.0,0.0,0.0,0.0,0.0,0.0,0.0,0.0,0.0,0.0,0.0,0.0,0.0,0.0,0.0,0.0,0.0,0.0,0.0,0.0,0.0,0.0,0.5096,0.0,0.0,0.0,0.0,0.0,0.0,0.0,0.0,0.0,0.6389,0.6908,0.7251,0.7299,0.802,0.8569,0.8711,0.0,0.0,0.0,0.0,0.0,0.0,0.0,1.0195,0.9841,0.9781,0.9425,0.8336,0.8817,0.923,0.8828,0.0,0.0,0.7979,0.7026,0.6508,0.6811,0.7089,0.736,0.7669,0.8136,0.85,0.0,0.0,0.0,0.0,0.0,0.0,0.0,0.0,0.8938,0.9243,0.0,0.939,0.0,0.0,0.0,0.0,0.0,0.0,0.0,0.0,0.9654,0.9943,0.9969,1.0148,0.9879,0.9274,1.0246,1.0018,0.8712,0.7911,0.0,0.0,0.0,0.0,0.0,0.0,0.8274,0.8935,0.9548,0.9893,0.9863,0.9257,0.9072,0.9342,0.8408,0.7895,0.7896,0.813,0.757,0.6085,0.7608,0.0,0.0,0.0,0.0,0.0,0.0,0.0,0.0,0.0,0.0,0.0,0.0,0.0,0.0,0.0,0.0,0.0,0.0,0.0,0.0,0.4999,0.0,0.0,0.0,0.0,0.0,0.0,0.0,0.0,0.0,0.0,0.8751,0.753,0.7105,0.8762,0.0,0.0,0.0,0.0,1.0312,1.0273,1.0293,1.0293,1.0293,1.0293,1.002,0.9219,0.0,0.0,0.7188,0.8758,0.9836,0.8782,0.8873,0.921,1.0005,0.9267,0.8976,0.9732,0.9229,0.9191,0.9887,0.9926,1.0055,1.0099,0.0,0.0,0.0,0.0,0.9729,1.0057,1.0621,1.0356,1.0271,1.0311,1.0324,0.0,0.0,0.0,0.0,0.0,0.0,0.988,1.0244,1.0407,1.0709,1.1113,1.117,1.1197,1.117,1.1281,1.1107,1.0638,1.0058,0.9059,0.7739,0.0,0.0,0.0,0.0,0.942,0.9599,0.98,0.9973,1.012,0.9779,0.9537,0.9406,0.9385,0.8908,0.7942,0.7983,0.7902,0.7637,0.7015,0.0,0.0,0.0,0.0,0.0,0.0,0.0,0.0,0.0,0.0,0.0,0.0,0.0,0.0,0.0,0.0,0.0,0.0,0.0,0.5087,0.2907,0.2925,0.0,0.0,0.0,0.0,0.0,0.0,0.0,0.0,0.0,0.9542,0.8905,0.8437,0.0,0.0,0.9844,0.9922,1.0156,1.0312,1.0312,0.0,0.0,0.0,1.0312,1.0215,0.998,0.9922,0.9785,0.9374,0.9841,1.0154,0.9824,0.9843,0.9998,1.0095,0.9057,0.8236,0.8374,0.8688,0.9019,0.9304,0.9771,1.0195,1.0956,1.0225,1.0267,1.0367,1.0528,1.0376,1.0564,1.102,1.1064,1.1091,1.1106,1.1283,1.1086,1.0558,1.0332,0.0,0.0,0.0,1.0858,1.137,1.1357,1.1685,1.2215,1.2241,1.2197,1.2167,1.2152,1.1945,1.1543,1.1676,1.1064,0.9737,0.0,0.0,0.9323,0.9929,1.0264,1.0269,1.0533,1.0758,1.0998,1.0794,1.0341,0.9599,0.9852,0.9467,0.8338,0.8369,0.8332,0.8217,0.7375,0.7206,0.0,0.0,0.0,0.0,0.0,0.0,0.0,0.0,0.0,0.0,0.0,0.3942,0.0,0.0,0.0,0.0,0.5101,0.5093,0.5088,0.3822,0.0,0.0,0.0,0.0,0.0,0.0,0.0,0.8785,0.8307,0.847,0.9982,0.9768,0.9485,0.9466,0.996,1.0293,1.0271,0.0,1.0312,1.0312,1.0312,1.0312,1.0312,1.0312,1.0312,1.0312,1.0312,1.0312,1.0312,1.0312,1.0312,1.0312,1.0312,1.0312,1.0312,0.9433,0.873,0.873,0.9141,0.9492,0.9529,0.9899,1.0249,1.14,1.1789,1.1187,1.0782,1.0566,1.0906,1.076,1.0425,1.137,1.1766,1.185,1.2287,1.219,1.1688,1.1146,0.0,0.0,1.1475,1.1989,1.245,1.245,1.2726,1.3185,1.3198,1.2952,1.2479,1.2831,1.2589,1.1878,1.2803,1.2846,1.1892,1.077,1.0159,1.0084,1.0658,1.0932,1.0887,1.1465,1.1929,1.2174,1.2076,1.134,0.993,1.0025,0.9726,0.8931,0.9005,0.8818,0.8229,0.8253,0.7269,0.5184,0.0,0.0,0.0,0.0,0.0,0.0,0.0,0.0,0.0,0.0,0.0,0.0,0.0,0.0,0.0,0.5273,0.0,0.5348,0.6831,0.0,0.0,0.0,0.7902,0.6824,0.7998,0.8914,0.8991,0.0,0.0,0.0,0.0,1.0323,1.0382,1.0418,1.0388,1.0219,1.0462,1.0566,1.0645,1.0527,1.0488,1.0508,1.0391,1.0312,1.0312,1.0312,1.0312,1.0312,1.0312,1.0312,1.0312,1.0312,1.0312,1.0312,1.0234,1.0312,1.0215,1.0254,1.0293,1.0254,1.0273,1.0332,1.2058,1.2171,1.2009,1.2163,1.2506,1.2235,1.2235,1.2443,1.2345,1.251,1.2849,1.2959,1.2935,1.2826,1.2672,1.2609,1.2609,1.2764,1.2902,1.301,1.301,1.3073,1.3198,1.321,1.3135,1.301,1.3103,1.3211,1.3349,1.3409,1.3473,1.35,1.3082,1.2373,1.1426,1.1995,1.207,1.1565,1.1715,1.1918,1.219,1.2744,1.2255,1.0612,1.0755,1.0223,0.8965,0.893,0.892,0.8853,0.7783,0.702,0.6736,0.6181,0.0,0.0,0.0,0.0,0.0,0.0,0.0,0.0,0.0,0.6824,0.6756,0.0,0.684,0.0,0.6944,0.7176,0.7577,0.8752,0.0,0.0,0.8413,0.8163,0.9092,0.9039,0.9139,0.9758,0.9452,0.9708,1.0942,1.1115,1.1366,1.1984,1.1767,1.1219,1.0392,1.1758,1.2673,1.2361,1.2203,1.1986,1.1387,1.0723,1.0352,1.0312,1.0332,1.0312,1.0312,1.0312,1.0312,1.0312,1.0312,1.0312,1.0312,1.0312,1.0312,1.0312,1.0312,1.0312,1.0312,1.0312,1.0488,1.2116,1.2298,1.2298,1.2785,1.3496,1.2547,1.2436,1.2896,1.2621,1.265,1.2896,1.3082,1.321,1.321,1.321,1.321,1.321,1.321,1.321,1.321,1.321,1.321,1.321,1.321,1.321,1.3215,1.3408,1.3531,1.3606,1.4014,1.4246,1.4293,1.4552,1.4182,1.3193,1.3211,1.3062,1.2703,1.2523,1.2415,1.2382,1.2926,1.2665,1.1541,1.1571,1.0917,0.9438,0.9371,0.9293,0.9088,0.7945,0.7266,0.7217,0.6636,0.6376,0.0,0.0,0.0,0.0,0.0,0.0,0.0,0.0,0.0,0.0,0.0,0.7511,0.0,0.0,0.0,0.9,0.9687,0.9931,0.9563,0.9026,0.8947,0.9498,0.9825,1.0192,1.0617,1.0615,1.0947,1.1851,1.1968,1.2293,1.3118,1.2993,1.2444,1.1656,1.2643,1.3647,1.3907,1.3304,1.2684,1.2226,1.1777,1.1465,1.1445,1.1465,1.123,1.0488,1.0625,1.0762,1.041,1.0312,1.0312,1.0312,1.0312,1.0312,1.0312,1.0312,1.0312,1.0312,1.0605,1.1055,1.1995,1.2378,1.2378,1.2999,1.3854,1.253,1.2331,1.2881,1.276,1.2734,1.2824,1.324,1.3428,1.3416,1.3336,1.3315,1.3298,1.3235,1.321,1.321,1.321,1.321,1.321,1.321,1.321,1.3215,1.3632,1.3632,1.3335,1.442,1.4814,1.4627,1.5315,1.5443,1.4917,1.4333,1.3974,1.3797,1.3482,1.3113,1.2693,1.2943,1.2793,1.2228,1.2133,1.1441,1.003,0.9988,0.9763,0.922,0.8455,0.7813,0.7347,0.7137,0.7523,0.0,0.7661,0.0,0.0,0.0,0.0,0.0,0.0,0.0,0.0,0.7113,0.7887,0.8529,0.8693,0.9061,0.9845,0.982,0.9599,0.9261,0.9722,0.9919,0.9594,1.0673,1.1483,1.1543,1.2238,1.2721,1.2832,1.2851,1.3159,1.392,1.4038,1.3775,1.3224,1.3524,1.4238,1.5176,1.3995,1.306,1.3027,1.293,1.2812,1.2852,1.2773,1.2344,1.082,1.1152,1.1406,1.0742,1.0605,1.0605,1.0625,1.0684,1.0664,1.0762,1.0781,1.0742,1.0625,1.1055,1.1641,1.2698,1.2784,1.2794,1.3188,1.3808,1.3565,1.3861,1.4451,1.3995,1.4036,1.4437,1.4544,1.4563,1.4544,1.4117,1.3946,1.3891,1.3416,1.321,1.321,1.321,1.321,1.321,1.321,1.321,1.3215,1.3288,1.348,1.3769,1.4016,1.4422,1.4983,1.5149,1.536,0.0,0.0,0.0,0.0,1.3928,1.3706,1.3117,1.3362,1.2896,1.1695,1.1286,0.0,0.9745,0.9901,0.9952,0.9807,0.9112,0.0,0.0,0.0,0.0,0.0,0.0,0.0,0.0,0.0,0.0,0.0,0.926,0.8773,0.8139,0.8783,0.9058,0.8596,0.9109,0.9616,0.9922,0.8717,0.8814,1.0916,1.0549,1.075,1.2346,1.2094,1.1906,1.2389,1.2623,1.2967,1.3577,1.3668,1.3997,1.475,1.4962,1.4885,1.4714,1.4794,1.5057,1.5273,1.4482,1.3866,1.3867,1.3359,1.3066,1.291,1.291,1.2617,1.1973,1.1777,1.1953,1.1699,1.168,1.1855,1.2266,1.2422,1.2305,1.2383,1.2383,1.2207,1.1504,1.1484,1.1992,1.2915,0.0,1.2915,1.3238,0.0,0.0,1.4403,1.5229,1.473,1.4626,1.4884,1.4884,1.4884,1.4903,1.4614,1.45,1.4462,1.3903,1.3634,1.3639,1.3341,1.321,1.321,1.321,1.321,1.321,1.321,1.3306,1.3547,1.3785,1.4198,1.4799,1.4998,1.5344,1.5799,1.5814,1.5304,1.4303,1.4429,1.4218,1.3713,1.3515,1.3126,1.2549,0.0,0.0,0.0,0.0,0.0,0.0,0.0,0.0,0.0,0.0,0.0,0.9612,0.9652,0.9178,0.8144,0.9251,1.0286,1.0843,1.0808,1.0479,0.9738,1.005,1.0296,1.0296,1.0648,1.0926,1.1005,1.0518,1.0696,1.1809,1.1503,1.1695,1.2671,1.278,1.2814,1.3226,1.3635,1.4099,1.4478,1.4536,1.4709,1.5115,1.5195,1.5195,1.5198,1.5226,1.5274,1.5342,1.5071,1.4746,1.4707,1.4453,1.4121,1.4141,1.4141,1.4004,1.373,1.3223,1.2988,1.3457,1.3242,1.2891,1.2871,1.291,1.291,1.291,1.291,1.2969,1.2793,1.2832,1.3047,1.2988,1.3003,1.2935,1.3262,1.3792,1.3933,1.4641,1.5738,0.0,0.0,0.0,1.5185,1.5173,1.5173,1.5085,1.5035,1.4997,1.4475,1.4204,1.4078,1.3596,1.3298,1.321,1.321,1.321,1.321,1.321,1.321,1.3215,1.3581,1.4019,1.4485,1.4845,1.5255,1.5785,1.5814,1.553,1.5005,1.4975,1.4766,1.4311,1.377,1.3543,1.362,1.3109,1.2573,1.2039,1.214,1.1954,1.1367,1.1323,1.1147,1.0775,1.0961,1.1299,1.1705,1.1561,1.0972,0.998,1.1151,1.1983,1.2085,1.2223,1.1966,1.1173,1.1113,1.1375,1.2058,1.2228,1.2316,1.2349,1.2952,1.3163,1.2722,1.2678,1.272,1.2836,1.3341,1.3856,1.4086,1.4695,1.5195,1.5157,1.5157,1.5195,1.5195,1.5195,1.5195,1.5195,1.5212,1.5253,1.5289,1.5279,1.5371,1.5391,1.5332,1.541,1.5273,1.5312,1.541,1.5273,1.4629,1.4453,1.5039,1.457,1.3945,1.3477,1.3457,1.334,1.334,1.334,1.3535,1.4121,1.4316,1.4316,1.3428,1.3389,1.3062,1.3238,1.3839,1.4352,1.5265,1.6333,1.6303,1.6283,1.6296,1.6283,1.6262,1.6258,1.5793,1.5588,1.5542,1.5022,1.4538,0.0,1.4009,1.3702,1.321,1.321,1.321,1.321,1.321,1.321,1.3228,1.3296,1.3702,1.4422,1.4564,1.4998,1.5741,1.5814,1.5754,1.5664,1.5679,1.5363,1.4729,1.4624,1.4319,1.3769,1.2788,1.2296,1.2406,1.2169,1.2007,1.2137,1.2128,1.2111,1.2026,1.1458,1.113,1.1219,1.1451,1.173,1.2098,1.211,1.2076,1.2132,1.2742,1.2797,1.2021,1.193,1.1985,1.2113,1.2761,1.3184,1.3323,1.3866,1.4286,1.4401,1.4284,1.4294,1.4452,1.4642,1.4757,1.49,1.5107,1.5195,1.5195,1.5195,1.5195,1.5195,1.5291,1.5234,1.5278,1.525,1.5293,1.5308,1.5363,1.5397,1.5421,1.5408,1.541,1.541,1.541,1.541,1.541,1.5195,1.5117,1.5371,1.5195,1.5059,1.4941,1.5039,1.4902,1.4863,1.4844,1.498,1.5098,1.5117,1.5156,1.3821,1.3854,1.4048,1.4299,1.4627,1.5662,1.6243,1.6447,1.6435,1.6465,1.6513,1.6513,1.6513,1.6488,1.6237,1.6124,1.6107,1.5567,1.5211,1.4947,1.4664,1.4236,1.3727,1.369,1.3521,1.3223,1.321,1.321,1.321,1.321,1.3635,1.4485,1.4953,1.5404,1.577,1.5814,1.5814,1.5814,1.5814,1.5649,1.5335,1.5165,1.4845,1.4346,1.3952,1.3749,1.3701,1.3837,1.3974,1.409,1.3718,1.3489,1.3472,1.2754,1.2392,1.2454,1.271,1.3022,1.3382,1.3403,1.3594,1.4022,1.4382,1.4646,1.4695,1.3912,1.3416,1.3411,1.3747,1.3976,1.404,1.4337,1.455,1.468,1.4567,1.4565,1.4714,1.4913,1.5011,1.5041,1.5136,1.5192,1.5195,1.5195,1.5195,1.5231,1.5538,1.5868,1.5868,1.5898,1.577,1.541,1.5348,1.5411,1.5414,1.5407,1.541,1.541,1.541,1.541,1.541,1.541,1.541,1.541,1.541,1.541,1.541,1.541,1.541,1.541,1.541,1.541,1.541,1.541,1.541,1.4402,1.4331,1.495,1.538,1.5764,1.685,1.7099,1.6809,1.668,1.6614,1.6608,1.6405,1.6293,1.6315,1.6436,1.65,1.6437,1.6061,1.5806,1.5676,1.5273,1.4802,1.4305,1.4179,1.384,1.3416,1.3278,1.321,1.3215,1.3318,1.3802,1.4627,1.5404,1.5814,1.5814,1.5814,1.5814,1.5814,1.5814,1.5842,1.5897,1.567,1.5432,1.5283,1.5283,1.5245,1.5063,1.5332,1.5529,1.5578,1.5054,1.4757,1.4723,1.4217,1.3931,1.4065,1.4294,1.4471,1.456,1.4792,1.5196,1.5747,1.5849,1.6166,1.6682,1.5661,1.4915,1.5025,1.5056,1.508,1.5068,1.4952,1.4909,1.5019,1.4695,1.4718,1.5028,1.5009,1.4999,1.5127,1.5193,1.5152,1.5186,1.5195,1.5195,1.5311,1.5945,1.641,1.6272,1.6192,1.5914,1.5514,1.5326,1.5365,1.5369,1.5386,1.541,1.541,1.541,1.541,1.541,1.541,1.541,1.541,1.541,1.541,1.541,1.541,1.541,1.541,1.541,1.541,1.541,1.541,1.541,1.5321,1.4824,1.5089,1.5941,1.7069,1.729,1.7605,1.7891,1.746,1.7158,1.6955,1.6084,1.5734,1.5776,1.6284,1.6525,1.6522,1.645,1.6149,1.5743,1.5655,1.5336,1.4815,1.4368,1.4078,1.3934,1.3483,1.3265,1.3267,1.3665,1.4246,1.5013,1.5566,1.5814,1.5814,1.5814,1.5814,1.5814,1.5814,1.5956,1.6232,1.6225,1.634,1.6603,1.6052,1.5859,1.602,1.5549,1.5358,1.5559,1.5561,1.5503,1.5494,1.5419,1.5385,1.5399,1.5802,1.6026,1.5925,1.616,1.6208,1.6099,1.6316,1.661,1.6925,1.6358,1.6175,1.6542,1.667,1.6572,1.6652,1.6211,1.6083,1.6358,1.5521,1.5097,1.6262,1.5469,1.4932,1.5997,1.5434,1.5056,1.5177,1.5195,1.525,1.5462,1.6042,1.6295,1.5731,1.5596,1.5503,1.5306,1.528,1.5314,1.5309,1.5362,1.541,1.541,1.541,1.541,1.541,1.541,1.541,1.541,1.541,1.541,1.541,1.541,1.541,1.541,1.541,1.541,1.541,1.541,1.541,1.5818,1.5222,1.5752,1.6815,1.8084,1.8593,1.8734,1.8621,1.8055,1.7565,1.7194,1.6776,1.6384,1.6064,1.6722,1.6848,1.6513,1.6513,1.6387,1.6195,1.6162,1.5894,1.5399,1.516,1.472,1.4128,1.384,1.3674,1.3738,1.4278,1.4783,1.5119,1.5566,1.5814,1.5814,1.5814,1.5814,1.5814,1.5814,1.597,1.6287,1.6488,1.6675,1.6812,1.6904,1.6921,1.6858,1.677,1.679,1.687,1.6502,1.6248,1.6248,1.5832,1.5663,1.578,1.6063,1.6112,1.5825,1.6247,1.6589,1.6739,1.7183,1.7673,1.8247,1.8115,1.8096,1.8207,1.7741,1.725,1.6963,1.6688,1.667,1.6908,1.7099,1.7261,1.6902,1.6017,1.5583,1.6031,1.5475,1.5046,1.5171,1.5195,1.5638,1.6292,1.6679,1.6295,1.5962,1.5965,1.5734,1.5339,1.5262,1.5283,1.5314,1.5369,1.5406,1.541,1.541,1.541,1.5449,1.541,1.541,1.541,1.541,1.541,1.541,1.541,1.541,1.541,1.541,1.541,1.541,1.541,1.541,1.6379,1.5835,1.6293,1.7357,1.8715,1.9254,1.9406,1.9183,1.8743,1.8233,1.7721,1.7883,1.752,1.6872,1.7216,1.7137,1.676,1.6575,1.6513,1.6513,1.6513,1.6287,1.5932,1.5743,1.5311,1.4626,1.4387,1.4315,1.4363,1.5005,1.5352,1.5358,1.5639,1.5814,1.5814,1.5814,1.5814,1.5814,1.5814,1.6011,1.6423,1.6657,1.6841,1.6993,1.7507,1.7681,1.7467,1.767,1.7789,1.7772,1.7287,1.701,1.6993,1.6502,1.6288,1.6532,1.6737,1.6737,1.6454,1.6888,1.7345,1.7746,1.8149,1.8598,1.9135,1.9279,1.9279,1.9205,1.8592,1.7972,1.7667,1.7557,1.7477,1.7367,1.85,1.8629,1.713,1.6337,1.5949,1.5981,1.5415,1.5037,1.5187,1.5426,1.5984,1.658,1.6619,1.633,1.6195,1.6061,1.5849,1.5311,1.5245,1.5283,1.5307,1.5363,1.544,1.5644,1.5684,1.5508,1.5605,1.5644,1.541,1.541,1.541,1.541,1.541,1.541,1.541,1.541,1.541,1.541,1.541,1.541,1.541,1.7107,1.6521,1.6492,1.7385,1.8688,1.8806,1.9164,1.971,1.9684,1.9285,1.8768,1.9288,1.8978,1.7838,1.7633,1.741,1.7287,1.6835,1.6588,1.6563,1.655,1.65,1.6434,1.5957,1.5655,1.5475,1.5125,1.5047,1.5298,1.5773,1.5943,1.5786,1.5814,1.5814,1.5814,1.5814,1.5814,1.5814,1.5814,1.6094,1.6659,1.6763,1.6939,1.7248,1.7612,1.7777,1.7766,1.7789,1.7789,1.7789,1.7732,1.7715,1.7715,1.7693,1.7733,1.7994,1.8282,1.8435,1.8384,1.8574,1.8878,1.9084,1.8944,1.9038,1.9237,1.9279,1.9242,1.926,1.9051,1.8959,1.8875,1.8673,1.8519,1.8005,1.8647,1.8353,1.7092,1.6371,1.6073,1.5854,1.5325,1.5099,1.5248,1.5926,1.5926,1.5868,1.6042,1.6195,1.5561,1.5327,1.5288,1.525,1.5212,1.5233,1.5299,1.5354,1.575,1.5937,1.5703,1.5605,1.5937,1.6074,1.5684,1.541,1.541,1.541,1.541,1.541,1.541,1.541,1.541,1.541,1.541,1.541,1.541,1.7879,1.7246,1.7715,1.8221,1.8715,1.9202,1.9553,1.9798,1.9798,1.9669,1.9475,1.9695,1.9557,1.9091,1.8634,1.8242,1.7903,1.7677,1.7413,1.7112,1.7061,1.6873,1.6488,1.6274,1.6007,1.5754,1.5846,1.6096,1.6423,1.6495,1.6454,1.6323,1.5993,1.5814,1.5814,1.5814,1.5814,1.5814,1.5814,1.6025,1.6477,1.6686,1.6964,1.7296,1.7618,1.7789,1.7789,1.7789,1.7789,1.7789,1.7789,1.7789,1.7811,1.796,1.8014,1.7992,1.8361,1.8595,1.8623,1.8861,1.9076,1.9259,1.9227,1.9196,1.93,1.9279,1.9087,1.8647,1.8364,1.8181,1.7924,1.8071,1.8016,1.7484,1.7264,1.7245,1.6872,1.6291,1.584,1.5793,1.5367,1.522,1.569,1.583,1.5772,1.5962,1.583,1.5541,1.5327,1.5195,1.5195,1.5195,1.5198,1.5226,1.5284,1.5303,1.5469,1.5625,1.5586,1.5527,1.5703,1.5742,1.543,1.541,1.541,1.541,1.541,1.541,1.541,1.541,1.541,1.541,1.541,1.541,1.541,1.8259,1.7743,1.814,1.8489,1.8741,1.9228,1.9592,1.9773,1.9798,1.9798,1.9798,1.9798,1.9798,1.9748,1.9396,1.907,1.8694,1.838,1.8003,1.7652,1.7486,1.7197,1.6823,1.6575,1.63,1.6131,1.6678,1.7143,1.7337,1.7353,1.7234,1.6995,1.6413,1.6099,1.6069,1.5918,1.5814,1.5814,1.5814,1.6011,1.6436,1.6672,1.7018,1.7403,1.7692,1.7789,1.7789,1.7789,1.7789,1.7789,1.7789,1.7789,1.7811,1.7971,1.8009,1.7872,1.8218,1.8526,1.8614,1.8861,1.9076,1.9274,1.9279,1.9279,1.9279,1.9069,1.8629,1.817,1.7667,1.7202,1.6743,1.6835,1.6908,1.6566,1.6255,1.6083,1.6101,1.5876,1.5636,1.5439,1.5183,1.5331,1.5795,1.5504,1.5538,1.6042,1.5522,1.5234,1.5195,1.5195,1.5195,1.5195,1.5195,1.5228,1.5272,1.5305,1.5677,1.5859,1.5566,1.5469,1.5527,1.5488,1.541,1.541,1.541,1.541,1.541,1.541,1.541,1.541,1.541,1.541,1.541,1.541,1.541,1.834,1.7797,1.766,1.8194,1.8768,1.8886,1.9202,1.9747,1.9798,1.9798,1.9798,1.9798,1.9798,1.9786,1.9736,1.9736,1.951,1.8769,1.8317,1.8179,1.7727,1.7473,1.7287,1.6823,1.6633,1.6646,1.7578,1.7991,1.8007,1.83,1.8222,1.7667,1.704,1.6667,1.6666,1.6144,1.5844,1.5814,1.5814,1.6137,1.6699,1.6789,1.7117,1.767,1.7789,1.7789,1.7789,1.7789,1.7789,1.7789,1.7789,1.7789,1.78,1.7867,1.7833,1.785,1.8072,1.833,1.8547,1.8825,1.9042,1.9251,1.9289,1.9266,1.9205,1.8647,1.8144,1.7887,1.7282,1.656,1.5876,1.5747,1.5747,1.571,1.5796,1.5551,1.5044,1.5252,1.544,1.4924,1.4822,1.4909,1.5038,1.514,1.5254,1.5285,1.5272,1.5195,1.5195,1.5195,1.5195,1.5195,1.5198,1.5215,1.5257,1.5347,1.5873,1.623,1.5742,1.5469,1.5703,1.5742,1.5469,1.541,1.541,1.541,1.541,1.541,1.541,1.541,1.541,1.541,1.541,1.541,1.541,1.9307,1.9123,1.9123,1.9228,1.9449,1.9449,1.9618,1.9773,1.9798,1.9798,1.9798,1.9798,1.9798,1.9798,1.9798,1.9798,1.9773,1.9422,1.9096,1.877,1.8581,1.8078,1.7476,1.7222,1.7273,1.7591,1.7927,1.8489,1.8961,1.8857,1.8568,1.8296,1.7728,1.716,1.6756,1.6502,1.6234,1.5844,1.5814,1.6137,1.6725,1.6789,1.7117,1.7721,1.7789,1.7789,1.7789,1.7789,1.7789,1.7789,1.7789,1.7789,1.7833,1.7971,1.7982,1.7878,1.8229,1.8293,1.8142,1.8479,1.8904,1.918,1.9182,1.9182,1.9201,1.8574,1.7887,1.7374,1.6555,1.5747,1.508,1.4879,1.4952,1.4879,1.4934,1.4946,1.4634,1.4732,1.4794,1.4751,1.4728,1.4816,1.497,1.5071,1.5124,1.5186,1.5195,1.5195,1.5195,1.5195,1.5195,1.5195,1.5201,1.5212,1.5253,1.528,1.5586,1.5902,1.5644,1.543,1.5684,1.5781,1.5527,1.541,1.541,1.541,1.541,1.541,1.541,1.541,1.541,1.541,1.541,1.541,1.541,2.0426,2.0426,2.0426,2.0426,2.0439,2.0426,2.0313,2.0175,2.0338,2.0313,2.0189,2.0151,2.0125,2.0101,1.9899,1.9798,1.9798,1.9798,1.9635,1.9296,1.9058,1.8594,1.7987,1.7775,1.8115,1.8605,1.8531,1.8855,1.9642,1.9303,1.9061,1.8972,1.8386,1.7893,1.7428,1.7189,1.6756,1.6248,1.6144,1.6354,1.6694,1.6789,1.7117,1.7681,1.7789,1.7789,1.7789,1.7789,1.7789,1.7789,1.7789,1.7789,1.7811,1.7949,1.7954,1.7905,1.8068,1.8125,1.7894,1.8303,1.8707,1.8982,1.9084,1.9166,1.9146,1.8555,1.7832,1.7355,1.6658,1.5943,1.5539,1.5411,1.5172,1.4524,1.4524,1.4488,1.4488,1.4488,1.4546,1.4619,1.4717,1.4826,1.4933,1.5058,1.5107,1.5183,1.5195,1.5195,1.5195,1.5195,1.5195,1.5195,1.5195,1.5218,1.525,1.5291,1.5307,1.5418,1.5449,1.541,1.5527,1.5566,1.541,1.541,1.541,1.541,1.541,1.541,1.541,1.541,1.541,1.541,1.541,1.541,1.541,2.1468,2.1481,2.1468,2.1405,2.1393,2.1393,2.1104,2.0855,2.1192,2.1117,2.0792,2.0729,2.0691,2.0553,2.0163,1.9911,1.9798,1.9798,1.9786,1.9623,1.9321,1.8983,1.8768,1.8419,1.8781,1.9523,1.9213,1.9268,1.9854,1.9675,1.969,1.9558,1.9031,1.8702,1.8431,1.8027,1.7413,1.6846,1.6712,1.6693,1.6828,1.6805,1.7093,1.7704,1.7777,1.7789,1.7789,1.7789,1.7789,1.7789,1.7789,1.7789,1.7789,1.7783,1.7822,1.7828,1.7833,1.7845,1.7894,1.8187,1.8577,1.8789,1.904,1.9289,1.919,1.8574,1.8052,1.7931,1.7257,1.6798,1.6743,1.6707,1.6083,1.497,1.4915,1.4873,1.464,1.4708,1.4933,1.4894,1.4893,1.506,1.5267,1.5411,1.5465,1.5519,1.5503,1.5407,1.5195,1.5195,1.5195,1.5214,1.5212,1.5204,1.5232,1.5248,1.5347,1.5783,1.5713,1.5623,1.5486,1.5449,1.541,1.541,1.541,1.541,1.541,1.541,1.541,1.541,1.541,1.541,1.541,1.541,1.5469,2.1481,2.1481,2.1481,2.1481,2.1481,2.1481,2.143,2.132,2.1418,2.1468,2.1307,2.1295,2.1094,2.0691,2.0553,2.0239,1.9911,1.9811,1.9798,1.9773,1.9685,1.9334,1.9056,1.8936,1.9246,1.9887,1.985,1.9933,2.0356,1.9959,1.9753,1.969,1.9495,1.9151,1.8732,1.8536,1.8102,1.7443,1.6936,1.6909,1.7114,1.6955,1.7005,1.7392,1.7715,1.7805,1.7789,1.7789,1.7789,1.7789,1.7789,1.7789,1.7789,1.78,1.7872,1.8025,1.7905,1.78,1.7833,1.796,1.8346,1.9006,1.8971,1.9038,1.9263,1.8555,1.817,1.7968,1.7392,1.6963,1.6945,1.6982,1.6652,1.6413,1.6266,1.6083,1.579,1.6034,1.6266,1.6279,1.6282,1.6349,1.6478,1.6601,1.6704,1.6758,1.6426,1.5926,1.5599,1.5404,1.55,1.5308,1.5269,1.5212,1.5201,1.5232,1.5496,1.6123,1.6188,1.6008,1.5761,1.5508,1.5449,1.541,1.541,1.541,1.541,1.541,1.541,1.541,1.541,1.541,1.543,1.5449,1.5527,2.2184,2.2184,2.2184,2.2184,2.2155,2.2184,2.2058,2.1907,2.2083,2.2033,2.1882,2.1832,2.1656,2.133,2.0905,2.0528,2.0201,1.9911,1.9798,1.9798,1.9786,1.9927,2.0009,1.9976,2.0235,2.0998,2.0782,2.0671,2.062,2.0303,2.0007,1.9753,1.9723,1.9498,1.9196,1.9106,1.8792,1.8194,1.7713,1.762,1.7651,1.7695,1.7904,1.8094,1.8265,1.8155,1.7884,1.7789,1.7789,1.7789,1.7789,1.7789,1.7789,1.7789,1.7916,1.8156,1.804,1.791,1.7861,1.7975,1.8375,1.8824,1.8789,1.8895,1.9028,1.8711,1.8489,1.854,1.8126,1.7942,1.7906,1.7906,1.7906,1.7906,1.7906,1.7484,1.6572,1.667,1.6872,1.6903,1.6963,1.7071,1.7285,1.7377,1.7502,1.7477,1.6987,1.6522,1.6118,1.5981,1.6019,1.6096,1.6115,1.6234,1.6292,1.6301,1.6346,1.6877,1.7178,1.6902,1.6378,1.5969,1.5762,1.5723,1.5547,1.5488,1.5605,1.5605,1.541,1.541,1.541,1.5625,1.5781,1.5937,1.5977,2.3095,2.3095,2.3095,2.3095,2.3045,2.3083,2.2757,2.2518,2.2807,2.2769,2.2472,2.2368,2.2297,2.2259,2.1368,2.083,2.0654,2.0175,1.9911,1.9888,1.9991,2.0444,2.1274,2.0972,2.1403,2.2217,2.2017,2.154,2.1186,2.0946,2.0438,2.0049,1.9869,1.9768,1.9618,1.9633,1.9346,1.8882,1.8583,1.8371,1.8299,1.8475,1.8748,1.8931,1.8839,1.8544,1.8104,1.7884,1.7789,1.7789,1.7789,1.7789,1.7789,1.7789,1.7949,1.8146,1.8198,1.8103,1.8044,1.8356,1.8479,1.8537,1.8529,1.867,1.8869,1.8866,1.8949,1.9065,1.9263,1.9077,1.9058,1.9168,1.9077,1.9003,1.9132,1.8537,1.7594,1.7147,1.714,1.7147,1.7292,1.7378,1.7538,1.7658,1.7871,1.8528,1.7984,1.7426,1.7196,1.7154,1.7346,1.7596,1.758,1.7503,1.7523,1.7526,1.7587,1.7822,1.8211,1.8087,1.7405,1.6928,1.6461,1.625,1.6445,1.6367,1.6172,1.6016,1.5859,1.5977,1.6367,1.6504,1.6602,1.6758,1.6836,2.3095,2.3095,2.3095,2.3095,2.3095,2.3095,2.3032,2.2932,2.3045,2.302,2.292,2.292,2.2681,2.2293,2.1983,2.1518,2.083,2.0541,2.0289,1.9862,2.0371,2.0942,2.1578,2.1517,2.1972,2.2542,2.2596,2.2383,2.2143,2.165,2.1156,2.0572,2.0393,2.0228,1.9798,1.9738,1.9663,1.9405,1.9001,1.8736,1.8715,1.8841,1.9034,1.9139,1.9051,1.8887,1.8606,1.8104,1.7817,1.7789,1.7789,1.7789,1.7789,1.7789,1.7949,1.8149,1.8232,1.8413,1.878,1.8587,1.8262,1.8125,1.8283,1.8444,1.866,1.8878,1.8992,1.9102,1.9206,1.9271,1.9279,1.9279,1.9279,1.9279,1.9279,1.9168,1.8849,1.872,1.8629,1.8662,1.8691,1.8899,1.9141,1.9103,1.9244,1.9472,1.9077,1.8465,1.833,1.8308,1.8462,1.8692,1.8504,1.835,1.835,1.8388,1.8526,1.8665,1.9024,1.9206,1.8511,1.8008,1.7594,1.75,1.7578,1.7344,1.6894,1.7148,1.7129,1.7246,1.7305,1.7402,1.75,1.7637,1.7891,2.3095,2.3095,2.3095,2.3095,2.3095,2.3095,2.3095,2.3095,2.3095,2.3095,2.3095,2.3095,2.2932,2.2673,2.2393,2.1933,2.1418,2.088,2.0377,1.9989,2.0232,2.0818,2.1592,2.1791,2.2156,2.2951,2.3109,2.2996,2.2673,2.2343,2.1829,2.1171,2.0882,2.0524,2.0124,1.9869,1.9723,1.9663,1.9393,1.9166,1.92,1.9429,1.9601,1.9715,1.978,1.9735,1.8922,1.8555,1.8149,1.7901,1.7805,1.7789,1.7789,1.7789,1.7905,1.8018,1.818,1.855,1.8937,1.8789,1.8391,1.8187,1.8242,1.8442,1.8642,1.8825,1.894,1.9101,1.9227,1.9279,1.9279,1.9279,1.9279,1.9279,1.9279,1.9279,1.9279,1.9279,1.9279,1.9279,1.9194,1.936,1.958,1.9744,1.9842,1.9715,1.99,1.9365,1.9442,1.9404,1.9346,1.9385,1.9215,1.91,1.9119,1.9196,1.9369,1.9527,1.9776,1.987,1.959,1.9182,1.8806,1.8574,1.8242,1.7969,1.7656,1.7988,1.8144,1.7871,1.7852,1.8164,1.8437,1.8555,1.8945,2.3095,2.3095,2.3095,2.3095,2.3095,2.3095,2.3095,2.3095,2.3095,2.3095,2.3095,2.3095,2.307,2.2982,2.2644,2.2406,2.1995,2.1194,2.0415,2.0127,2.0131,2.0782,2.1506,2.1946,2.2455,2.3508,2.3535,2.3266,2.3002,2.2808,2.2493,2.1874,2.1365,2.0957,2.0628,2.0183,1.9842,1.9708,1.9648,1.9618,1.9689,2.0003,2.0273,2.0672,2.0776,2.05,1.9633,1.9181,1.8809,1.8172,1.802,1.7901,1.7817,1.7789,1.7789,1.7833,1.8114,1.8558,1.893,1.8869,1.8678,1.867,1.843,1.8479,1.8752,1.8816,1.8913,1.9099,1.9269,1.9279,1.9279,1.9279,1.9279,1.9279,1.9279,1.9279,1.9279,1.9279,1.9279,1.9279,1.9312,1.9416,1.9559,1.9713,1.9852,1.9988,2.018,2.0288,2.0288,2.025,2.0019,1.9942,1.9731,1.9658,1.9677,1.9658,1.9869,1.9965,2.0242,2.0252,2.0246,1.9934,1.9435,1.9007,1.8672,1.8555,1.8613,1.8906,1.8848,1.8418,1.8594,1.9121,1.9355,1.9492,1.9844,2.3095,2.3095,2.3095,2.3095,2.3095,2.3095,2.3095,2.3095,2.3095,2.3095,2.3095,2.3095,2.3095,2.3058,2.3045,2.2719,2.2146,2.1333,2.0758,2.0561,2.0617,2.1106,2.1734,2.2253,2.2883,2.3384,2.3595,2.349,2.343,2.3437,2.3062,2.2613,2.2343,2.1829,2.1051,2.0543,2.0198,1.9839,1.9768,1.9723,1.9815,2.0108,2.0619,2.1131,2.1237,2.1002,2.0699,2.0128,1.9761,1.9592,1.9046,1.8442,1.8003,1.7839,1.7907,1.7889,1.8177,1.851,1.8734,1.8843,1.8973,1.9041,1.8798,1.8576,1.8734,1.8834,1.8957,1.9067,1.9219,1.9279,1.9279,1.9279,1.9279,1.9279,1.937,1.9334,1.9315,1.937,1.9334,1.9315,1.9338,1.9368,1.9509,1.965,1.979,1.9967,2.0171,2.0273,2.0288,2.0288,2.0231,2.0192,2.0212,2.0173,2.0173,2.0135,2.0173,2.0135,2.0273,2.0273,2.0282,2.0286,1.998,1.9547,1.959,1.9766,1.9844,1.984,1.9805,1.9551,1.9844,2.0137,2.0078,2.0039,2.0156,2.3095,2.3095,2.3095,2.3095,2.3095,2.3095,2.3095,2.3095,2.3095,2.3095,2.3095,2.3095,2.3095,2.3095,2.3095,2.2794,2.2246,2.1845,2.1384,2.1248,2.1223,2.1564,2.2147,2.2595,2.3031,2.3443,2.3595,2.3595,2.3595,2.358,2.3415,2.3197,2.2897,2.2358,2.168,2.1002,2.0647,2.0213,1.9914,1.9723,1.9744,2.0089,2.065,2.1083,2.1373,2.1343,2.1143,2.0919,2.0386,2.0002,1.9647,1.8882,1.8408,1.8425,1.8582,1.8127,1.8147,1.8385,1.8536,1.8661,1.8789,1.9219,1.9092,1.8972,1.8956,1.9017,1.9142,1.9186,1.9196,1.9279,1.9279,1.9352,1.9279,1.937,1.9638,1.9711,1.9565,1.9756,1.9683,1.9499,1.9378,1.939,1.9394,1.9559,1.9719,1.992,2.0149,2.0229,2.0281,2.0288,2.0288,2.0288,2.0288,2.0288,2.0288,2.0288,2.0288,2.0288,2.0288,2.0288,2.03,2.0294,2.0299,2.0124,2.0352,2.045,2.0394,2.0152,2.0398,2.0562,2.0449,2.0391,2.0508,2.0586,2.0605,2.3095,2.3095,2.3095,2.3095,2.3095,2.3095,2.3095,2.3095,2.3095,2.3095,2.3095,2.3095,2.3095,2.3095,2.3058,2.2857,2.2472,2.2343,2.211,2.1995,2.1681,2.2015,2.2696,2.2806,2.3024,2.3508,2.3595,2.3595,2.3595,2.3595,2.3595,2.3445,2.3077,2.2778,2.2418,2.1695,2.1171,2.0722,2.0258,1.9902,1.983,2.0104,2.0466,2.0878,2.1322,2.1493,2.132,2.139,2.1147,2.0724,2.0302,1.9811,1.9101,1.9541,1.9575,1.8831,1.8489,1.8573,1.8751,1.9135,1.9586,2.0268,1.995,1.985,1.9855,1.9931,1.9779,1.9753,1.9866,1.9958,2.0068,1.9885,1.9793,1.9829,2.0317,2.0658,2.0501,2.0427,2.028,2.0031,1.9646,1.9485,1.9531,1.9488,1.9663,1.9793,2.0,2.0208,2.026,2.0285,2.0288,2.0288,2.0288,2.0288,2.0288,2.0288,2.0288,2.0288,2.0288,2.0288,2.0288,2.03,2.0342,2.0406,2.0337,2.0376,2.0415,2.0453,2.0477,2.0513,2.0542,2.0586,2.0586,2.0605,2.0605,2.3095,2.3095,2.3095,2.3095,2.3095,2.3095,2.3095,2.3095,2.3095,2.3095,2.3095,2.3095,2.3095,2.3095,2.3095,2.3058,2.2869,2.2602,2.2667,2.2894,2.2339,2.2533,2.3344,2.291,2.3164,2.356,2.3595,2.3595,2.3595,2.3595,2.3595,2.355,2.346,2.3251,2.2808,2.2388,2.2179,2.156,2.0932,2.0318,1.993,2.0166,2.0393,2.0649,2.1133,2.1622,2.1635,2.1852,2.1924,2.1857,2.1312,2.1312,2.1465,2.0508,2.091,2.1023,2.0819,1.9998,1.9921,2.0314,2.0975,2.1514,2.1574,2.1519,2.1226,2.1181,2.1165,2.1502,2.1408,2.1262,2.117,2.1343,2.117,2.1005,2.1041,2.1657,2.1831,2.1712,2.1473,2.0739,2.0409,1.9976,1.9761,1.9663,1.9609,1.9726,1.9858,2.0064,2.0248,2.0277,2.0288,2.0288,2.0288,2.0288,2.0288,2.0288,2.0304,2.0308,2.0481,2.0481,2.0654,2.0731,2.05,2.0531,2.0452,2.0344,2.0338,2.0378,2.0427,2.0475,2.0508,2.0541,2.0605,2.0605,2.0625,2.3095,2.3095,2.3095,2.3095,2.3095,2.3095,2.3095,2.3095,2.3095,2.3095,2.3095,2.3095,2.3095,2.3095,2.3095,2.3095,2.3058,2.2832,2.3202,2.3795,2.3418,2.3526,2.3999,2.3901,2.3881,2.3576,2.3595,2.3595,2.3595,2.3595,2.3595,2.3595,2.3595,2.3505,2.3137,2.2853,2.2568,2.2149,2.1605,2.0946,2.0535,2.0605,2.0789,2.073,2.1307,2.1675,2.1974,2.2135,2.2296,2.2245,2.1904,2.1955,2.211,2.1721,2.1688,2.2023,2.1813,2.124,2.0916,2.1426,2.2029,2.2411,2.2373,2.2069,2.1904,2.1849,2.1849,2.1776,2.1776,2.1831,2.1776,2.1482,2.1225,2.1188,2.1739,2.2125,2.2675,2.3107,2.2887,2.2006,2.1198,2.0794,2.0344,1.9973,1.9826,1.9726,1.9757,1.9809,2.0074,2.0281,2.0288,2.0288,2.0288,2.0288,2.0288,2.0288,2.0338,2.0454,2.103,2.1111,2.1308,2.1331,2.1096,2.0827,2.072,2.0572,2.042,2.0398,2.0505,2.0488,2.0443,2.072,2.0951,2.0723,2.0742,2.3095,2.3095,2.3095,2.3095,2.3095,2.3095,2.3095,2.3095,2.3095,2.3095,2.3095,2.3095,2.3095,2.3095,2.3095,2.3095,2.3095,2.3095,2.3641,2.4133,2.4431,2.4527,2.4737,2.4771,2.4462,2.3849,2.3947,2.3819,2.3625,2.3595,2.3595,2.3595,2.3595,2.358,2.3475,2.3206,2.2897,2.2568,2.2158,2.1605,2.1128,2.1127,2.1148,2.1227,2.1436,2.1779,2.2077,2.2268,2.2313,2.2279,2.2262,2.2243,2.2245,2.2178,2.211,2.2296,2.2118,2.2076,2.1923,2.2176,2.2527,2.2782,2.2969,2.2932,2.262,2.2382,2.2418,2.2602,2.2565,2.2528,2.2318,2.2097,2.2143,2.2235,2.2363,2.262,2.2914,2.3428,2.3492,2.2666,2.2006,2.184,2.1298,2.0546,2.0131,1.9852,1.9729,1.9674,1.9938,2.0327,2.0278,2.027,2.0222,2.0236,2.028,2.0308,2.0359,2.0747,2.1323,2.1613,2.1791,2.1838,2.1712,2.1423,2.1273,2.1281,2.1405,2.1003,2.0637,2.0911,2.1157,2.1296,2.1344,2.1128,2.1113,2.3095,2.3095,2.3095,2.3095,2.3095,2.3095,2.3095,2.3095,2.3095,2.3095,2.3095,2.3095,2.3095,2.3095,2.3095,2.3095,2.3095,2.3095,2.3631,2.4103,2.4409,2.484,2.5181,2.5313,2.5211,2.4619,2.4515,2.4186,2.3789,2.3774,2.3684,2.3595,2.3595,2.3595,2.3565,2.3445,2.3161,2.2927,2.2658,2.2324,2.1851,2.1624,2.149,2.1434,2.152,2.1643,2.1705,2.2092,2.2313,2.2313,2.2313,2.2313,2.2313,2.2313,2.2313,2.2313,2.2313,2.2344,2.2473,2.2699,2.3173,2.3559,2.3777,2.3823,2.3612,2.3869,2.3969,2.3749,2.3547,2.3704,2.3804,2.3933,2.3437,2.3373,2.3281,2.3428,2.363,2.3777,2.3749,2.3162,2.2832,2.2703,2.24,2.1675,2.0949,2.0644,2.0077,1.9988,2.0214,2.0494,2.0316,2.0221,2.0144,2.0156,2.0245,2.0469,2.0982,2.1447,2.1963,2.2087,2.2143,2.2196,2.275,2.2577,2.2519,2.2462,2.2331,2.2041,2.1829,2.1797,2.1876,2.2017,2.2207,2.2216,2.2205,2.3095,2.3095,2.3095,2.3095,2.3095,2.3095,2.3095,2.3095,2.3095,2.3095,2.3095,2.3095,2.3095,2.3095,2.3095,2.3095,2.3095,2.3095,2.3619,2.4268,2.4776,2.5167,2.5589,2.5835,2.5869,2.536,2.5173,2.4859,2.4291,2.4201,2.3872,2.3759,2.3729,2.3595,2.3595,2.3595,2.3415,2.3325,2.3218,2.3017,2.2909,2.2936,2.2752,2.2199,2.2566,2.2419,2.2178,2.2211,2.2282,2.2313,2.233,2.2313,2.2313,2.2313,2.2313,2.2313,2.2313,2.2405,2.2548,2.2807,2.3117,2.366,2.3978,2.419,2.419,2.4199,2.4199,2.4181,2.4199,2.4199,2.4171,2.4153,2.4052,2.4181,2.4199,2.4199,2.4199,2.4199,2.4126,2.3566,2.3602,2.3639,2.3272,2.285,2.2125,2.1454,2.0837,2.0399,2.0674,2.0926,2.0851,2.0787,2.0764,2.0884,2.1028,2.1381,2.1771,2.2174,2.2595,2.2761,2.2963,2.3895,2.4284,2.4034,2.3692,2.3538,2.3351,2.3139,2.2919,2.2655,2.2627,2.2718,2.2944,2.3244,2.3296,2.3095,2.3095,2.3095,2.3095,2.3095,2.3095,2.3095,2.3095,2.3095,2.3095,2.3095,2.3095,2.3095,2.3095,2.3095,2.3095,2.3095,2.3125,2.3454,2.4092,2.4785,2.5326,2.5766,2.6216,2.6557,2.6048,2.5839,2.5531,2.4918,2.4903,2.4694,2.4433,2.4178,2.4118,2.3595,2.3595,2.3595,2.3595,2.3593,2.3712,2.3672,2.3825,2.3985,2.3342,2.3607,2.3502,2.3078,2.2939,2.2702,2.2615,2.2479,2.233,2.2313,2.2313,2.2313,2.2313,2.2313,2.2313,2.2377,2.2594,2.3009,2.3628,2.3876,2.4046,2.4152,2.4199,2.4199,2.4199,2.4199,2.4199,2.4199,2.4199,2.4199,2.4199,2.4199,2.4199,2.4199,2.4199,2.4199,2.4043,2.4116,2.4061,2.3914,2.3465,2.273,2.2033,2.1435,2.1121,2.1324,2.1559,2.1747,2.17,2.1663,2.1853,2.2067,2.2253,2.2443,2.2831,2.3251,2.3662,2.4094,2.4922,2.5249,2.4827,2.4558,2.4519,2.4389,2.4178,2.3759,2.3326,2.3493,2.377,2.4053,2.4361,2.4367,2.3185,2.3095,2.3168,2.3185,2.3245,2.3095,2.3095,2.3095,2.3095,2.3155,2.3215,2.3215,2.3275,2.3305,2.3471,2.3501,2.3471,2.3382,2.3471,2.393,2.5035,2.5398,2.5942,2.6578,2.7106,2.6692,2.6512,2.6228,2.56,2.5561,2.551,2.5375,2.5121,2.4762,2.3729,2.3616,2.3595,2.3616,2.3659,2.4034,2.4373,2.4414,2.4468,2.4513,2.4491,2.4357,2.3983,2.3596,2.3393,2.3308,2.2767,2.255,2.2496,2.2347,2.2313,2.2313,2.2313,2.2313,2.2324,2.2563,2.2972,2.3522,2.3742,2.3907,2.4113,2.4199,2.4199,2.4199,2.4199,2.4199,2.4199,2.4199,2.4199,2.4199,2.4199,2.4199,2.4199,2.4199,2.4199,2.4199,2.4199,2.4199,2.4199,2.3961,2.3226,2.2584,2.2014,2.1912,2.214,2.2368,2.2632,2.2676,2.2636,2.2642,2.2823,2.2919,2.3138,2.3515,2.3802,2.4099,2.4424,2.4872,2.5135,2.5259,2.5173,2.4923,2.5058,2.5192,2.4639,2.4187,2.4681,2.5003,2.5257,2.5276,2.5113,2.4625,2.4639,2.4639,2.4639,2.4496,2.3501,2.3095,2.3095,2.3138,2.3395,2.3826,2.3884,2.4221,2.4467,2.4553,2.4511,2.454,2.4625,2.4625,2.4711,2.5646,2.6014,2.6443,2.6953,2.7425,2.733,2.7195,2.6881,2.6282,2.6258,2.5944,2.5734,2.5674,2.5098,2.4469,2.4191,2.4137,2.422,2.4491,2.4914,2.5376,2.5338,2.5315,2.5347,2.5275,2.505,2.4677,2.4288,2.4152,2.4051,2.3427,2.3071,2.2919,2.2767,2.2398,2.2347,2.2313,2.2313,2.231,2.2453,2.2721,2.3218,2.3577,2.3806,2.4133,2.419,2.4199,2.4199,2.4199,2.4199,2.4199,2.4199,2.4199,2.4199,2.4199,2.4199,2.4199,2.4199,2.4199,2.4199,2.4199,2.4199,2.4199,2.4199,2.3648,2.3483,2.3043,2.3098,2.3318,2.3465,2.3676,2.3667,2.3649,2.3538,2.3539,2.3511,2.3657,2.3971,2.4142,2.4271,2.461,2.4911,2.5077,2.5234,2.5274,2.5308,2.5308,2.5288,2.5192,2.5144,2.5281,2.5356,2.535,2.5403,2.5432,2.5398,2.5398,2.5398,2.5398,2.5203,2.4047,2.3407,2.3155,2.3125,2.3531,2.4147,2.4279,2.4667,2.5175,2.5398,2.5398,2.5398,2.5398,2.537,2.5508,2.6149,2.6377,2.6695,2.7203,2.7504,2.7585,2.7555,2.7315,2.6971,2.6956,2.6776,2.6437,2.6033,2.5809,2.5401,2.5253,2.5014,2.5062,2.5249,2.5628,2.5856,2.5932,2.5959,2.5984,2.5947,2.5794,2.5354,2.5066,2.4864,2.4677,2.4288,2.3799,2.3611,2.3376,2.2936,2.2784,2.2398,2.2364,2.231,2.2665,2.3045,2.3473,2.3548,2.3742,2.4066,2.419,2.4199,2.4199,2.4254,2.4273,2.4309,2.4291,2.4218,2.4218,2.4218,2.4218,2.4199,2.4199,2.4199,2.4199,2.4199,2.4199,2.4199,2.4199,2.4034,2.4089,2.4126,2.4199,2.4199,2.4199,2.4199,2.4163,2.4144,2.3952,2.3906,2.3979,2.4164,2.4451,2.4486,2.4469,2.4648,2.4905,2.5077,2.5219,2.5269,2.5308,2.5308,2.5269,2.5231,2.5231,2.5284,2.5333,2.5383,2.5441,2.5506,2.5481,2.5467,2.5495,2.555,2.537,2.4794,2.4002,2.3245,2.3245,2.3738,2.4436,2.4567,2.5063,2.5508,2.5563,2.5632,2.5714,2.5687,2.5714,2.5837,2.6484,2.659,2.6852,2.728,2.7534,2.7585,2.7585,2.7555,2.754,2.742,2.7405,2.733,2.6811,2.6587,2.6473,2.6581,2.6234,2.6036,2.6106,2.6381,2.6467,2.6188,2.6299,2.6404,2.6471,2.6454,2.6184,2.593,2.5693,2.5389,2.4932,2.4677,2.4508,2.4491,2.4034,2.3494,2.2801,2.2682,2.2649,2.3122,2.3592,2.3953,2.3736,2.382,2.4182,2.4581,2.4685,2.4667,2.4704,2.4557,2.4465,2.4355,2.4245,2.4245,2.4245,2.4226,2.4218,2.4199,2.4199,2.4199,2.4199,2.4199,2.4199,2.4199,2.4199,2.4199,2.4199,2.4199,2.4199,2.4199,2.4199,2.4199,2.4181,2.4199,2.4199,2.4199,2.4375,2.4561,2.4591,2.4615,2.4776,2.493,2.5099,2.5229,2.5274,2.5308,2.5308,2.5308,2.5288,2.5308,2.5308,2.5317,2.5354,2.5375,2.5453,2.6967,2.6967,2.6967,2.6982,2.6878,2.6162,2.5425,2.4781,2.4753,2.5175,2.5864,2.5878,2.6135,2.6941,2.6967,2.693,2.6916,2.6967,2.6993,2.706,2.7008,2.7203,2.7372,2.7458,2.7585,2.7585,2.7585,2.7585,2.757,2.7585,2.7585,2.7495,2.7405,2.7305,2.7567,2.8093,2.7586,2.721,2.73,2.7218,2.7035,2.6754,2.6741,2.6674,2.6708,2.6708,2.6573,2.6471,2.6302,2.6201,2.5642,2.5304,2.5287,2.4829,2.4288,2.4254,2.3949,2.3797,2.356,2.3881,2.4331,2.4707,2.478,2.5066,2.5321,2.5382,2.5444,2.5401,2.5419,2.5419,2.5217,2.5034,2.4942,2.4924,2.4942,2.4961,2.485,2.4538,2.4502,2.4199,2.4199,2.4199,2.4199,2.4199,2.4199,2.4199,2.4199,2.4199,2.4199,2.4199,2.4199,2.4199,2.4199,2.4199,2.4199,2.4199,2.4436,2.4634,2.4631,2.4741,2.4981,2.5135,2.5208,2.5264,2.5284,2.5308,2.5308,2.5308,2.5308,2.5308,2.5308,2.5313,2.534,2.5363,2.5408,2.7585,2.7585,2.7585,2.7585,2.7509,2.7126,2.6654,2.6215,2.5673,2.581,2.6443,2.6443,2.6904,2.7458,2.7509,2.7509,2.7509,2.7433,2.7458,2.7458,2.7585,2.7534,2.756,2.7585,2.7585,2.7585,2.7585,2.7585,2.7585,2.7585,2.7585,2.7625,2.7775,2.7934,2.8258,2.8914,2.9227,2.8837,2.858,2.8324,2.7858,2.7385,2.7097,2.6759,2.6742,2.6725,2.6708,2.6708,2.6708,2.6691,2.615,2.6065,2.5913,2.5372,2.4982,2.488,2.4525,2.4169,2.3915,2.4509,2.4932,2.5372,2.5947,2.6485,2.6308,2.6189,2.6209,2.6216,2.6345,2.6382,2.6117,2.5897,2.586,2.5833,2.586,2.5886,2.5511,2.5052,2.4685,2.4309,2.4199,2.4199,2.4199,2.4199,2.4199,2.4199,2.4199,2.4199,2.4199,2.4199,2.4199,2.4199,2.4199,2.4199,2.4199,2.4218,2.4384,2.4537,2.4575,2.4741,2.5084,2.5253,2.5269,2.5274,2.5288,2.5308,2.5308,2.5308,2.5308,2.5308,2.5308,2.5298,2.5313,2.5317,2.5387,2.7585,2.7585,2.7585,2.7585,2.7585,2.7534,2.7509,2.7458,2.6215,2.5973,2.6549,2.663,2.7008,2.7534,2.7585,2.7585,2.7585,2.7585,2.7585,2.7585,2.7585,2.7585,2.7585,2.7585,2.7585,2.7585,2.7585,2.7585,2.765,2.771,2.781,2.7675,2.8165,2.8367,2.8535,2.9384,2.9756,2.986,2.9718,2.9533,2.8483,2.7925,2.7553,2.6979,2.6843,2.681,2.6725,2.6708,2.6708,2.6708,2.6691,2.6623,2.6387,2.6082,2.5778,2.5575,2.5252,2.4931,2.4812,2.5286,2.544,2.6016,2.6835,2.7356,2.7201,2.7114,2.7171,2.7281,2.7427,2.7446,2.7244,2.7108,2.7053,2.709,2.7145,2.6767,2.6153,2.5713,2.5328,2.4942,2.4622,2.4566,2.4199,2.4199,2.4199,2.4199,2.4199,2.4199,2.4199,2.4199,2.4199,2.4199,2.4199,2.4199,2.4199,2.4237,2.4303,2.4409,2.4503,2.4693,2.5018,2.5168,2.5308,2.5308,2.5308,2.5308,2.5308,2.5308,2.5308,2.5308,2.5308,2.5308,2.5313,2.5399,2.5368,2.7585,2.7585,2.7585,2.7585,2.7585,2.7585,2.7585,2.756,2.728,2.7097,2.7306,2.7331,2.7382,2.7534,2.7585,2.7585,2.7585,2.7585,2.7585,2.7585,2.7585,2.7585,2.7585,2.7585,2.7585,2.7585,2.7585,2.7585,2.7685,2.791,2.8042,2.7735,2.8295,2.8685,2.8748,2.9563,3.0021,3.0418,3.059,3.0376,2.9582,2.8856,2.8383,2.7791,2.7486,2.7165,2.6996,2.6725,2.6708,2.6691,2.6691,2.6691,2.6657,2.6488,2.642,2.637,2.6116,2.5862,2.5862,2.6064,2.6216,2.6544,2.7204,2.7637,2.7906,2.8082,2.823,2.8352,2.84,2.8381,2.8345,2.8235,2.818,2.8253,2.829,2.7556,2.6814,2.641,2.6025,2.5603,2.5209,2.4879,2.4493,2.4309,2.4218,2.4199,2.4199,2.4199,2.4199,2.4199,2.4199,2.4199,2.4199,2.4199,2.4199,2.4218,2.4284,2.4393,2.4478,2.47,2.4936,2.5141,2.5308,2.5308,2.5308,2.5308,2.5308,2.5308,2.5308,2.5442,2.5558,2.5654,2.5673,2.5717,2.5569,2.7585,2.7585,2.7585,2.7585,2.7585,2.7585,2.7585,2.7585,2.7585,2.7585,2.7585,2.7585,2.7585,2.7585,2.7585,2.7585,2.7585,2.7585,2.7585,2.7585,2.7585,2.7585,2.7585,2.7585,2.7585,2.7585,2.7585,2.761,2.77,2.8116,2.8262,2.8165,2.8685,2.9225,2.9339,2.9848,3.0272,3.0699,3.1055,3.0898,3.048,2.9837,2.9128,2.8552,2.7942,2.7621,2.7283,2.6945,2.6708,2.6708,2.6708,2.6708,2.6708,2.6657,2.6674,2.6657,2.6623,2.6708,2.6708,2.6725,2.6857,2.7241,2.7485,2.7897,2.8224,2.8379,2.8634,2.8748,2.8748,2.873,2.873,2.8656,2.862,2.8656,2.8601,2.8198,2.7622,2.7163,2.6686,2.6172,2.5933,2.586,2.5603,2.5585,2.5383,2.486,2.4768,2.4456,2.4401,2.4328,2.4291,2.4199,2.4199,2.4199,2.4199,2.4209,2.4247,2.4358,2.4462,2.467,2.4898,2.5135,2.5308,2.5308,2.5308,2.5308,2.5308,2.5481,2.575,2.5981,2.6058,2.6115,2.6115,2.6236,2.6378,2.7585,2.7585,2.7585,2.7585,2.7585,2.7585,2.7585,2.7585,2.7585,2.7585,2.7585,2.7585,2.7585,2.7585,2.7585,2.7585,2.7585,2.7585,2.7585,2.7585,2.7585,2.7585,2.7585,2.7585,2.7585,2.7585,2.7585,2.76,2.7625,2.814,2.8559,2.8756,2.9406,3.0187,3.0435,3.0716,3.0955,3.1035,3.1171,3.119,3.0903,3.0581,2.9871,2.9144,2.8518,2.8077,2.7773,2.7486,2.7063,2.6996,2.7046,2.6826,2.6725,2.6708,2.6708,2.6708,2.6708,2.6708,2.6708,2.6708,2.7162,2.7622,2.7826,2.8061,2.8381,2.867,2.8929,2.8987,2.8987,2.8987,2.8987,2.8987,2.895,2.8932,2.884,2.8785,2.8319,2.7879,2.7402,2.684,2.6741,2.6722,2.6594,2.6583,2.63,2.576,2.5393,2.5007,2.475,2.4658,2.4585,2.4365,2.4199,2.4199,2.4199,2.4209,2.4218,2.4303,2.4419,2.4625,2.4852,2.5118,2.5293,2.5346,2.5346,2.5635,2.5788,2.6005,2.6255,2.6659,2.6755,2.689,2.7082,2.7227,2.7537,2.7585,2.7585,2.7585,2.7585,2.7585,2.7585,2.7585,2.7585,2.7585,2.7585,2.7585,2.7585,2.7585,2.7585,2.7585,2.7585,2.7585,2.7585,2.7585,2.7585,2.7585,2.7585,2.7585,2.7585,2.7585,2.761,2.7635,2.76,2.7735,2.8213,2.8535,2.8654,2.9225,2.987,3.0335,3.0617,3.0838,3.1035,3.119,3.119,3.119,3.0886,3.0581,3.0091,2.9734,2.9279,2.8907,2.8688,2.8587,2.84,2.7875,2.7317,2.6962,2.6759,2.6708,2.6708,2.6708,2.6708,2.6708,2.6708,2.7131,2.7765,2.7936,2.8102,2.8438,2.8791,2.894,2.8987,2.8987,2.8987,2.8987,2.8987,2.8968,2.8968,2.8932,2.8913,2.8693,2.8539,2.8253,2.7842,2.7567,2.7291,2.6895,2.6877,2.6822,2.6447,2.6374,2.5988,2.5364,2.5154,2.4989,2.4713,2.4456,2.4199,2.4199,2.4199,2.4218,2.4284,2.4502,2.4953,2.5203,2.5162,2.5311,2.5836,2.6115,2.639,2.6524,2.664,2.714,2.7544,2.7607,2.7741,2.7967,2.8184,2.8461]}]]